Time,TemperatureF,DewpointF,PressureIn,WindDirection,WindDirectionDegrees,WindSpeedMPH,WindSpeedGustMPH,Humidity,HourlyPrecipIn,Conditions,Clouds,dailyrainin,SoftwareType,DateUTC
2013-09-18 00:00:00,41.6,39.7,30.31,NW,304,0.0,0.0,93,0.00,,CLR,0.00,VWS V14.01,2013-09-18 04:00:00,
2013-09-18 00:01:00,42.0,40.4,30.31,NW,304,0.0,0.0,94,0.00,,,0.00,WUHU216VWC,2013-09-18 04:01:00,
2013-09-18 00:02:00,41.6,40.0,30.31,NW,304,0.0,0.0,94,0.00,,CLR,0.00,VWS V14.01,2013-09-18 04:02:00,
2013-09-18 00:03:00,41.6,40.0,30.31,NW,304,0.0,0.0,94,0.00,,CLR,0.00,VWS V14.01,2013-09-18 04:03:00,
2013-09-18 00:04:00,41.5,39.9,30.31,NW,304,0.0,0.0,94,0.00,,CLR,0.00,VWS V14.01,2013-09-18 04:04:00,
2013-09-18 00:05:00,41.5,39.9,30.31,NW,304,0.0,0.0,94,0.00,,CLR,0.00,VWS V14.01,2013-09-18 04:05:00,
2013-09-18 00:06:00,41.9,40.3,30.31,NW,304,0.0,0.0,94,0.00,,,0.00,WUHU216VWC,2013-09-18 04:06:00,
2013-09-18 00:07:00,41.5,39.9,30.31,NW,304,0.0,0.0,94,0.00,,CLR,0.00,VWS V14.01,2013-09-18 04:07:00,
2013-09-18 00:08:00,41.5,39.9,30.31,NW,304,0.0,0.0,94,0.00,,CLR,0.00,VWS V14.01,2013-09-18 04:08:00,
2013-09-18 00:09:00,41.4,39.8,30.31,NW,304,0.0,0.0,94,0.00,,CLR,0.00,VWS V14.01,2013-09-18 04:09:00,
2013-09-18 00:10:00,41.4,39.8,30.31,NW,304,0.0,0.0,94,0.00,,CLR,0.00,VWS V14.01,2013-09-18 04:10:00,
2013-09-18 00:11:00,41.7,40.1,30.31,NW,304,0.0,0.0,94,0.00,,,0.00,WUHU216VWC,2013-09-18 04:11:00,
2013-09-18 00:12:00,41.4,39.8,30.31,NW,304,0.0,0.0,94,0.00,,CLR,0.00,VWS V14.01,2013-09-18 04:12:00,
2013-09-18 00:13:00,41.4,39.8,30.31,NW,304,0.0,0.0,94,0.00,,CLR,0.00,VWS V14.01,2013-09-18 04:13:00,
2013-09-18 00:14:00,41.4,39.8,30.31,NW,304,0.0,0.0,94,0.00,,CLR,0.00,VWS V14.01,2013-09-18 04:14:00,
2013-09-18 00:15:00,41.4,39.8,30.31,NW,304,0.0,0.0,94,0.00,,CLR,0.00,VWS V14.01,2013-09-18 04:15:00,
2013-09-18 00:16:00,41.6,40.0,30.31,NW,304,0.0,0.0,94,0.00,,,0.00,WUHU216VWC,2013-09-18 04:16:00,
2013-09-18 00:17:00,41.4,39.8,30.31,NW,304,0.0,0.0,94,0.00,,CLR,0.00,VWS V14.01,2013-09-18 04:17:00,
2013-09-18 00:18:00,41.4,39.8,30.31,NW,304,0.0,0.0,94,0.00,,CLR,0.00,VWS V14.01,2013-09-18 04:18:00,
2013-09-18 00:19:00,41.4,39.8,30.31,NW,304,0.0,0.0,94,0.00,,CLR,0.00,VWS V14.01,2013-09-18 04:19:00,
2013-09-18 00:20:00,41.4,39.8,30.31,NW,304,0.0,0.0,94,0.00,,CLR,0.00,VWS V14.01,2013-09-18 04:20:00,
2013-09-18 00:21:00,41.5,39.9,30.31,NW,304,0.0,0.0,94,0.00,,,0.00,WUHU216VWC,2013-09-18 04:21:00,
2013-09-18 00:22:00,41.3,39.7,30.31,NW,304,0.0,0.0,94,0.00,,CLR,0.00,VWS V14.01,2013-09-18 04:22:00,
2013-09-18 00:23:00,41.3,39.7,30.31,NW,304,0.0,0.0,94,0.00,,CLR,0.00,VWS V14.01,2013-09-18 04:23:00,
2013-09-18 00:24:00,41.3,39.7,30.31,NW,304,0.0,0.0,94,0.00,,CLR,0.00,VWS V14.01,2013-09-18 04:24:00,
2013-09-18 00:25:00,41.2,39.6,30.31,NW,304,0.0,0.0,94,0.00,,CLR,0.00,VWS V14.01,2013-09-18 04:25:00,
2013-09-18 00:26:00,41.4,39.8,30.31,NW,304,0.0,0.0,94,0.00,,,0.00,WUHU216VWC,2013-09-18 04:26:00,
2013-09-18 00:27:00,41.1,39.5,30.31,NW,304,0.0,0.0,94,0.00,,CLR,0.00,VWS V14.01,2013-09-18 04:27:00,
2013-09-18 00:28:00,41.1,39.5,30.31,NW,304,0.0,0.0,94,0.00,,CLR,0.00,VWS V14.01,2013-09-18 04:28:00,
2013-09-18 00:29:00,41.1,39.5,30.31,NW,304,0.0,0.0,94,0.00,,CLR,0.00,VWS V14.01,2013-09-18 04:29:00,
2013-09-18 00:30:00,41.0,39.4,30.31,NW,304,0.0,0.0,94,0.00,,CLR,0.00,VWS V14.01,2013-09-18 04:30:00,
2013-09-18 00:31:00,41.4,39.8,30.31,NW,304,0.0,0.0,94,0.00,,,0.00,WUHU216VWC,2013-09-18 04:31:00,
2013-09-18 00:32:00,41.0,39.1,30.31,NW,304,0.0,0.0,93,0.00,,CLR,0.00,VWS V14.01,2013-09-18 04:32:00,
2013-09-18 00:33:00,41.0,39.4,30.31,NW,304,0.0,0.0,94,0.00,,CLR,0.00,VWS V14.01,2013-09-18 04:33:00,
2013-09-18 00:34:00,40.9,39.3,30.31,NW,304,0.0,0.0,94,0.00,,CLR,0.00,VWS V14.01,2013-09-18 04:34:00,
2013-09-18 00:35:00,40.9,39.3,30.31,NW,304,0.0,0.0,94,0.00,,CLR,0.00,VWS V14.01,2013-09-18 04:35:00,
2013-09-18 00:36:00,41.3,39.7,30.31,NW,304,0.0,0.0,94,0.00,,,0.00,WUHU216VWC,2013-09-18 04:36:00,
2013-09-18 00:37:00,40.9,39.3,30.31,NW,304,0.0,0.0,94,0.00,,CLR,0.00,VWS V14.01,2013-09-18 04:37:00,
2013-09-18 00:38:00,40.9,39.3,30.31,NW,304,0.0,0.0,94,0.00,,CLR,0.00,VWS V14.01,2013-09-18 04:38:00,
2013-09-18 00:39:00,40.8,39.2,30.31,NW,304,0.0,0.0,94,0.00,,CLR,0.00,VWS V14.01,2013-09-18 04:39:00,
2013-09-18 00:40:00,40.8,39.2,30.31,NW,304,0.0,0.0,94,0.00,,CLR,0.00,VWS V14.01,2013-09-18 04:40:00,
2013-09-18 00:41:00,41.2,39.6,30.31,NW,304,0.0,0.0,94,0.00,,,0.00,WUHU216VWC,2013-09-18 04:41:00,
2013-09-18 00:42:00,40.7,39.1,30.31,NW,304,0.0,0.0,94,0.00,,CLR,0.00,VWS V14.01,2013-09-18 04:42:00,
2013-09-18 00:43:00,40.7,39.1,30.31,NW,304,0.0,0.0,94,0.00,,CLR,0.00,VWS V14.01,2013-09-18 04:43:00,
2013-09-18 00:44:00,40.7,39.1,30.31,NW,304,0.0,0.0,94,0.00,,CLR,0.00,VWS V14.01,2013-09-18 04:44:00,
2013-09-18 00:45:00,40.7,39.1,30.31,NW,304,0.0,0.0,94,0.00,,CLR,0.00,VWS V14.01,2013-09-18 04:45:00,
2013-09-18 00:46:00,41.0,39.4,30.31,NW,304,0.0,0.0,94,0.00,,,0.00,WUHU216VWC,2013-09-18 04:46:00,
2013-09-18 00:47:00,40.6,39.0,30.31,NW,304,0.0,0.0,94,0.00,,CLR,0.00,VWS V14.01,2013-09-18 04:47:00,
2013-09-18 00:48:00,40.6,39.0,30.31,NW,304,0.0,0.0,94,0.00,,CLR,0.00,VWS V14.01,2013-09-18 04:48:00,
2013-09-18 00:49:00,40.6,39.0,30.31,NW,304,0.0,0.0,94,0.00,,CLR,0.00,VWS V14.01,2013-09-18 04:49:00,
2013-09-18 00:50:00,40.5,38.9,30.31,NW,304,0.0,0.0,94,0.00,,CLR,0.00,VWS V14.01,2013-09-18 04:50:00,
2013-09-18 00:51:00,40.9,39.3,30.31,NW,304,0.0,0.0,94,0.00,,,0.00,WUHU216VWC,2013-09-18 04:51:00,
2013-09-18 00:52:00,40.5,38.9,30.31,NW,304,0.0,0.0,94,0.00,,CLR,0.00,VWS V14.01,2013-09-18 04:52:00,
2013-09-18 00:53:00,40.5,38.9,30.31,NW,304,0.0,0.0,94,0.00,,CLR,0.00,VWS V14.01,2013-09-18 04:53:00,
2013-09-18 00:54:00,40.5,38.9,30.31,NW,304,0.0,0.0,94,0.00,,CLR,0.00,VWS V14.01,2013-09-18 04:54:00,
2013-09-18 00:55:00,40.5,38.9,30.31,NW,304,0.0,0.0,94,0.00,,CLR,0.00,VWS V14.01,2013-09-18 04:55:00,
2013-09-18 00:56:00,40.8,39.2,30.31,NW,304,0.0,0.0,94,0.00,,,0.00,WUHU216VWC,2013-09-18 04:56:00,
2013-09-18 00:57:00,40.4,38.8,30.31,NW,304,0.0,0.0,94,0.00,,CLR,0.00,VWS V14.01,2013-09-18 04:57:00,
2013-09-18 00:58:00,40.4,38.8,30.31,NW,304,0.0,0.0,94,0.00,,CLR,0.00,VWS V14.01,2013-09-18 04:58:00,
2013-09-18 00:59:00,40.4,38.8,30.31,NW,304,0.0,0.0,94,0.00,,CLR,0.00,VWS V14.01,2013-09-18 04:59:00,
2013-09-18 01:00:00,40.3,38.7,30.31,NW,304,0.0,0.0,94,0.00,,CLR,0.00,VWS V14.01,2013-09-18 05:00:00,
2013-09-18 01:01:00,40.3,38.7,30.31,NW,304,0.0,0.0,94,0.00,,CLR,0.00,VWS V14.01,2013-09-18 05:01:00,
2013-09-18 01:02:00,40.6,39.0,30.31,NW,304,0.0,0.0,94,0.00,,,0.00,WUHU216VWC,2013-09-18 05:02:00,
2013-09-18 01:03:00,40.2,38.6,30.31,NW,304,0.0,0.0,94,0.00,,CLR,0.00,VWS V14.01,2013-09-18 05:03:00,
2013-09-18 01:04:00,40.2,38.6,30.31,NW,304,0.0,0.0,94,0.00,,CLR,0.00,VWS V14.01,2013-09-18 05:04:00,
2013-09-18 01:05:00,40.2,38.6,30.31,NW,304,0.0,0.0,94,0.00,,CLR,0.00,VWS V14.01,2013-09-18 05:05:00,
2013-09-18 01:06:00,40.1,38.5,30.31,NW,304,0.0,0.0,94,0.00,,CLR,0.00,VWS V14.01,2013-09-18 05:06:00,
2013-09-18 01:07:00,40.5,38.9,30.31,NW,304,0.0,0.0,94,0.00,,,0.00,WUHU216VWC,2013-09-18 05:07:00,
2013-09-18 01:08:00,40.1,38.5,30.31,NW,304,0.0,0.0,94,0.00,,CLR,0.00,VWS V14.01,2013-09-18 05:08:00,
2013-09-18 01:09:00,40.1,38.5,30.31,NW,304,0.0,0.0,94,0.00,,CLR,0.00,VWS V14.01,2013-09-18 05:09:00,
2013-09-18 01:10:00,40.0,38.4,30.31,NW,304,0.0,0.0,94,0.00,,CLR,0.00,VWS V14.01,2013-09-18 05:10:00,
2013-09-18 01:11:00,40.0,38.4,30.31,NW,304,0.0,0.0,94,0.00,,CLR,0.00,VWS V14.01,2013-09-18 05:11:00,
2013-09-18 01:12:00,40.4,38.8,30.31,NW,304,0.0,0.0,94,0.00,,,0.00,WUHU216VWC,2013-09-18 05:12:00,
2013-09-18 01:13:00,39.9,38.3,30.30,NW,304,0.0,0.0,94,0.00,,CLR,0.00,VWS V14.01,2013-09-18 05:13:00,
2013-09-18 01:14:00,40.0,38.4,30.30,NW,304,0.0,0.0,94,0.00,,CLR,0.00,VWS V14.01,2013-09-18 05:14:00,
2013-09-18 01:15:00,39.9,38.3,30.30,NW,304,0.0,0.0,94,0.00,,CLR,0.00,VWS V14.01,2013-09-18 05:15:00,
2013-09-18 01:16:00,39.9,38.3,30.30,NW,304,0.0,0.0,94,0.00,,CLR,0.00,VWS V14.01,2013-09-18 05:16:00,
2013-09-18 01:17:00,40.3,38.7,30.31,NW,304,0.0,0.0,94,0.00,,,0.00,WUHU216VWC,2013-09-18 05:17:00,
2013-09-18 01:18:00,39.9,38.3,30.30,NW,304,0.0,0.0,94,0.00,,CLR,0.00,VWS V14.01,2013-09-18 05:18:00,
2013-09-18 01:19:00,39.9,38.3,30.30,NW,304,0.0,0.0,94,0.00,,CLR,0.00,VWS V14.01,2013-09-18 05:19:00,
2013-09-18 01:20:00,39.9,38.3,30.30,NW,304,0.0,0.0,94,0.00,,CLR,0.00,VWS V14.01,2013-09-18 05:20:00,
2013-09-18 01:21:00,39.9,38.3,30.30,NW,304,0.0,0.0,94,0.00,,CLR,0.00,VWS V14.01,2013-09-18 05:21:00,
2013-09-18 01:22:00,40.1,38.5,30.31,NW,304,0.0,0.0,94,0.00,,,0.00,WUHU216VWC,2013-09-18 05:22:00,
2013-09-18 01:23:00,39.9,38.3,30.30,NW,304,0.0,0.0,94,0.00,,CLR,0.00,VWS V14.01,2013-09-18 05:23:00,
2013-09-18 01:24:00,39.9,38.3,30.30,NW,304,0.0,0.0,94,0.00,,CLR,0.00,VWS V14.01,2013-09-18 05:24:00,
2013-09-18 01:25:00,39.8,38.2,30.30,NW,304,0.0,0.0,94,0.00,,CLR,0.00,VWS V14.01,2013-09-18 05:25:00,
2013-09-18 01:26:00,39.8,38.2,30.30,NW,304,0.0,0.0,94,0.00,,CLR,0.00,VWS V14.01,2013-09-18 05:26:00,
2013-09-18 01:27:00,40.0,38.4,30.31,NW,304,0.0,0.0,94,0.00,,,0.00,WUHU216VWC,2013-09-18 05:27:00,
2013-09-18 01:28:00,39.8,38.2,30.30,NW,304,0.0,0.0,94,0.00,,CLR,0.00,VWS V14.01,2013-09-18 05:28:00,
2013-09-18 01:29:00,39.8,38.2,30.30,NW,304,0.0,0.0,94,0.00,,CLR,0.00,VWS V14.01,2013-09-18 05:29:00,
2013-09-18 01:30:00,39.8,38.2,30.30,NW,304,0.0,0.0,94,0.00,,CLR,0.00,VWS V14.01,2013-09-18 05:30:00,
2013-09-18 01:31:00,39.9,38.3,30.30,NW,304,0.0,0.0,94,0.00,,,0.00,WUHU216VWC,2013-09-18 05:31:00,
2013-09-18 01:32:00,39.7,38.1,30.30,NW,304,0.0,0.0,94,0.00,,CLR,0.00,VWS V14.01,2013-09-18 05:32:00,
2013-09-18 01:33:00,39.7,38.1,30.30,NW,304,0.0,0.0,94,0.00,,CLR,0.00,VWS V14.01,2013-09-18 05:33:00,
2013-09-18 01:34:00,39.7,38.1,30.30,NW,304,0.0,0.0,94,0.00,,CLR,0.00,VWS V14.01,2013-09-18 05:34:00,
2013-09-18 01:35:00,39.7,38.1,30.30,NW,304,0.0,0.0,94,0.00,,CLR,0.00,VWS V14.01,2013-09-18 05:35:00,
2013-09-18 01:36:00,39.9,38.3,30.30,NW,304,0.0,0.0,94,0.00,,,0.00,WUHU216VWC,2013-09-18 05:36:00,
2013-09-18 01:37:00,39.6,38.0,30.30,NW,304,0.0,0.0,94,0.00,,CLR,0.00,VWS V14.01,2013-09-18 05:37:00,
2013-09-18 01:38:00,39.6,38.0,30.30,NW,304,0.0,0.0,94,0.00,,CLR,0.00,VWS V14.01,2013-09-18 05:38:00,
2013-09-18 01:39:00,39.6,38.0,30.30,NW,304,0.0,0.0,94,0.00,,CLR,0.00,VWS V14.01,2013-09-18 05:39:00,
2013-09-18 01:40:00,39.6,38.0,30.30,NW,304,0.0,0.0,94,0.00,,CLR,0.00,VWS V14.01,2013-09-18 05:40:00,
2013-09-18 01:41:00,39.8,38.2,30.30,NW,304,0.0,0.0,94,0.00,,,0.00,WUHU216VWC,2013-09-18 05:41:00,
2013-09-18 01:42:00,39.5,37.9,30.30,NW,304,0.0,0.0,94,0.00,,CLR,0.00,VWS V14.01,2013-09-18 05:42:00,
2013-09-18 01:43:00,39.5,37.9,30.30,NW,304,0.0,0.0,94,0.00,,CLR,0.00,VWS V14.01,2013-09-18 05:43:00,
2013-09-18 01:44:00,39.5,37.9,30.30,NW,304,0.0,0.0,94,0.00,,CLR,0.00,VWS V14.01,2013-09-18 05:44:00,
2013-09-18 01:45:00,39.5,37.9,30.30,NW,304,0.0,0.0,94,0.00,,CLR,0.00,VWS V14.01,2013-09-18 05:45:00,
2013-09-18 01:46:00,39.8,38.2,30.30,NW,304,0.0,0.0,94,0.00,,,0.00,WUHU216VWC,2013-09-18 05:46:00,
2013-09-18 01:47:00,39.5,37.9,30.30,NW,304,0.0,0.0,94,0.00,,CLR,0.00,VWS V14.01,2013-09-18 05:47:00,
2013-09-18 01:48:00,39.4,37.8,30.30,NW,304,0.0,0.0,94,0.00,,CLR,0.00,VWS V14.01,2013-09-18 05:48:00,
2013-09-18 01:49:00,39.4,37.8,30.30,NW,304,0.0,0.0,94,0.00,,CLR,0.00,VWS V14.01,2013-09-18 05:49:00,
2013-09-18 01:50:00,39.4,37.8,30.30,NW,304,0.0,0.0,94,0.00,,CLR,0.00,VWS V14.01,2013-09-18 05:50:00,
2013-09-18 01:51:00,39.7,38.1,30.30,NW,304,0.0,0.0,94,0.00,,,0.00,WUHU216VWC,2013-09-18 05:51:00,
2013-09-18 01:52:00,39.3,37.7,30.30,NW,304,0.0,0.0,94,0.00,,CLR,0.00,VWS V14.01,2013-09-18 05:52:00,
2013-09-18 01:53:00,39.3,37.7,30.30,NW,304,0.0,0.0,94,0.00,,CLR,0.00,VWS V14.01,2013-09-18 05:53:00,
2013-09-18 01:54:00,39.3,37.7,30.30,NW,304,0.0,0.0,94,0.00,,CLR,0.00,VWS V14.01,2013-09-18 05:54:00,
2013-09-18 01:55:00,39.3,37.7,30.30,NW,304,0.0,0.0,94,0.00,,CLR,0.00,VWS V14.01,2013-09-18 05:55:00,
2013-09-18 01:56:00,39.6,38.0,30.30,NW,304,0.0,0.0,94,0.00,,,0.00,WUHU216VWC,2013-09-18 05:56:00,
2013-09-18 01:57:00,39.2,37.6,30.30,NW,304,0.0,0.0,94,0.00,,CLR,0.00,VWS V14.01,2013-09-18 05:57:00,
2013-09-18 01:58:00,39.2,37.6,30.30,NW,304,0.0,0.0,94,0.00,,CLR,0.00,VWS V14.01,2013-09-18 05:58:00,
2013-09-18 01:59:00,39.2,37.6,30.30,NW,304,0.0,0.0,94,0.00,,CLR,0.00,VWS V14.01,2013-09-18 05:59:00,
2013-09-18 02:00:00,39.2,37.6,30.30,NW,304,0.0,0.0,94,0.00,,CLR,0.00,VWS V14.01,2013-09-18 06:00:00,
2013-09-18 02:01:00,39.5,37.9,30.30,NW,304,0.0,0.0,94,0.00,,,0.00,WUHU216VWC,2013-09-18 06:01:00,
2013-09-18 02:02:00,39.1,37.5,30.30,NW,304,0.0,0.0,94,0.00,,CLR,0.00,VWS V14.01,2013-09-18 06:02:00,
2013-09-18 02:03:00,39.1,37.5,30.30,NW,304,0.0,0.0,94,0.00,,CLR,0.00,VWS V14.01,2013-09-18 06:03:00,
2013-09-18 02:04:00,39.1,37.5,30.30,NW,304,0.0,0.0,94,0.00,,CLR,0.00,VWS V14.01,2013-09-18 06:04:00,
2013-09-18 02:05:00,39.1,37.5,30.30,NW,304,0.0,0.0,94,0.00,,CLR,0.00,VWS V14.01,2013-09-18 06:05:00,
2013-09-18 02:06:00,39.4,37.8,30.30,NW,304,0.0,0.0,94,0.00,,,0.00,WUHU216VWC,2013-09-18 06:06:00,
2013-09-18 02:07:00,39.1,37.8,30.30,NW,304,0.0,0.0,95,0.00,,CLR,0.00,VWS V14.01,2013-09-18 06:07:00,
2013-09-18 02:08:00,39.1,37.8,30.30,NW,304,0.0,0.0,95,0.00,,CLR,0.00,VWS V14.01,2013-09-18 06:08:00,
2013-09-18 02:09:00,39.1,37.8,30.30,NW,304,0.0,0.0,95,0.00,,CLR,0.00,VWS V14.01,2013-09-18 06:09:00,
2013-09-18 02:10:00,39.1,37.8,30.30,NW,304,0.0,0.0,95,0.00,,CLR,0.00,VWS V14.01,2013-09-18 06:10:00,
2013-09-18 02:11:00,39.3,37.7,30.30,NW,304,0.0,0.0,94,0.00,,,0.00,WUHU216VWC,2013-09-18 06:11:00,
2013-09-18 02:12:00,39.1,37.8,30.30,NW,304,0.0,0.0,95,0.00,,CLR,0.00,VWS V14.01,2013-09-18 06:12:00,
2013-09-18 02:13:00,39.1,37.8,30.30,NW,304,0.0,0.0,95,0.00,,CLR,0.00,VWS V14.01,2013-09-18 06:13:00,
2013-09-18 02:14:00,39.0,37.7,30.30,NW,304,0.0,0.0,95,0.00,,CLR,0.00,VWS V14.01,2013-09-18 06:14:00,
2013-09-18 02:15:00,39.0,37.7,30.30,NW,304,0.0,0.0,95,0.00,,CLR,0.00,VWS V14.01,2013-09-18 06:15:00,
2013-09-18 02:16:00,39.2,37.6,30.30,NW,304,0.0,0.0,94,0.00,,,0.00,WUHU216VWC,2013-09-18 06:16:00,
2013-09-18 02:17:00,39.0,37.7,30.30,NW,304,0.0,0.0,95,0.00,,CLR,0.00,VWS V14.01,2013-09-18 06:17:00,
2013-09-18 02:18:00,39.0,37.4,30.30,NW,304,0.0,0.0,94,0.00,,CLR,0.00,VWS V14.01,2013-09-18 06:18:00,
2013-09-18 02:19:00,39.0,37.4,30.30,NW,304,0.0,0.0,94,0.00,,CLR,0.00,VWS V14.01,2013-09-18 06:19:00,
2013-09-18 02:20:00,39.0,37.4,30.30,NW,304,0.0,0.0,94,0.00,,CLR,0.00,VWS V14.01,2013-09-18 06:20:00,
2013-09-18 02:21:00,39.1,37.5,30.30,NW,304,0.0,0.0,94,0.00,,,0.00,WUHU216VWC,2013-09-18 06:21:00,
2013-09-18 02:22:00,38.9,37.3,30.30,NW,304,0.0,0.0,94,0.00,,CLR,0.00,VWS V14.01,2013-09-18 06:22:00,
2013-09-18 02:23:00,38.9,37.3,30.29,NW,304,0.0,0.0,94,0.00,,CLR,0.00,VWS V14.01,2013-09-18 06:23:00,
2013-09-18 02:24:00,38.9,37.3,30.29,NW,304,0.0,0.0,94,0.00,,CLR,0.00,VWS V14.01,2013-09-18 06:24:00,
2013-09-18 02:25:00,38.9,37.3,30.29,NW,304,0.0,0.0,94,0.00,,CLR,0.00,VWS V14.01,2013-09-18 06:25:00,
2013-09-18 02:26:00,39.1,37.8,30.30,NW,304,0.0,0.0,95,0.00,,,0.00,WUHU216VWC,2013-09-18 06:26:00,
2013-09-18 02:27:00,38.8,37.2,30.29,NW,304,0.0,0.0,94,0.00,,CLR,0.00,VWS V14.01,2013-09-18 06:27:00,
2013-09-18 02:28:00,38.8,37.2,30.29,NW,304,0.0,0.0,94,0.00,,CLR,0.00,VWS V14.01,2013-09-18 06:28:00,
2013-09-18 02:29:00,38.8,37.2,30.30,NW,304,0.0,0.0,94,0.00,,CLR,0.00,VWS V14.01,2013-09-18 06:29:00,
2013-09-18 02:30:00,38.8,37.2,30.30,NW,304,0.0,0.0,94,0.00,,CLR,0.00,VWS V14.01,2013-09-18 06:30:00,
2013-09-18 02:31:00,39.0,37.7,30.30,NW,304,0.0,0.0,95,0.00,,,0.00,WUHU216VWC,2013-09-18 06:31:00,
2013-09-18 02:32:00,38.7,37.1,30.30,NW,304,0.0,0.0,94,0.00,,CLR,0.00,VWS V14.01,2013-09-18 06:32:00,
2013-09-18 02:33:00,38.7,37.1,30.30,NW,304,0.0,0.0,94,0.00,,CLR,0.00,VWS V14.01,2013-09-18 06:33:00,
2013-09-18 02:34:00,38.7,37.1,30.30,NW,304,0.0,0.0,94,0.00,,CLR,0.00,VWS V14.01,2013-09-18 06:34:00,
2013-09-18 02:35:00,38.7,37.1,30.29,NW,304,0.0,0.0,94,0.00,,CLR,0.00,VWS V14.01,2013-09-18 06:35:00,
2013-09-18 02:36:00,39.0,37.4,30.30,NW,304,0.0,0.0,94,0.00,,,0.00,WUHU216VWC,2013-09-18 06:36:00,
2013-09-18 02:37:00,38.6,37.0,30.29,NW,304,0.0,0.0,94,0.00,,CLR,0.00,VWS V14.01,2013-09-18 06:37:00,
2013-09-18 02:38:00,38.6,37.0,30.30,NW,304,0.0,0.0,94,0.00,,CLR,0.00,VWS V14.01,2013-09-18 06:38:00,
2013-09-18 02:39:00,38.6,37.0,30.30,NW,304,0.0,0.0,94,0.00,,CLR,0.00,VWS V14.01,2013-09-18 06:39:00,
2013-09-18 02:40:00,38.6,37.0,30.30,NW,304,0.0,0.0,94,0.00,,CLR,0.00,VWS V14.01,2013-09-18 06:40:00,
2013-09-18 02:41:00,38.9,37.3,30.29,NW,304,0.0,0.0,94,0.00,,,0.00,WUHU216VWC,2013-09-18 06:41:00,
2013-09-18 02:42:00,38.6,37.0,30.29,NW,304,0.0,0.0,94,0.00,,CLR,0.00,VWS V14.01,2013-09-18 06:42:00,
2013-09-18 02:43:00,38.5,36.9,30.29,NW,304,0.0,0.0,94,0.00,,CLR,0.00,VWS V14.01,2013-09-18 06:43:00,
2013-09-18 02:44:00,38.5,36.9,30.29,NW,304,0.0,0.0,94,0.00,,CLR,0.00,VWS V14.01,2013-09-18 06:44:00,
2013-09-18 02:45:00,38.5,36.9,30.29,NW,304,0.0,0.0,94,0.00,,CLR,0.00,VWS V14.01,2013-09-18 06:45:00,
2013-09-18 02:46:00,38.8,37.2,30.30,NW,304,0.0,0.0,94,0.00,,,0.00,WUHU216VWC,2013-09-18 06:46:00,
2013-09-18 02:47:00,38.5,37.2,30.29,NW,304,0.0,0.0,95,0.00,,CLR,0.00,VWS V14.01,2013-09-18 06:47:00,
2013-09-18 02:48:00,38.5,36.9,30.29,NW,304,0.0,0.0,94,0.00,,CLR,0.00,VWS V14.01,2013-09-18 06:48:00,
2013-09-18 02:49:00,38.4,36.8,30.29,NW,304,0.0,0.0,94,0.00,,CLR,0.00,VWS V14.01,2013-09-18 06:49:00,
2013-09-18 02:50:00,38.5,36.9,30.30,NW,304,0.0,0.0,94,0.00,,CLR,0.00,VWS V14.01,2013-09-18 06:50:00,
2013-09-18 02:51:00,38.7,37.1,30.29,NW,304,0.0,0.0,94,0.00,,,0.00,WUHU216VWC,2013-09-18 06:51:00,
2013-09-18 02:52:00,38.4,36.8,30.29,NW,304,0.0,0.0,94,0.00,,CLR,0.00,VWS V14.01,2013-09-18 06:52:00,
2013-09-18 02:53:00,38.4,36.8,30.29,NW,304,0.0,0.0,94,0.00,,CLR,0.00,VWS V14.01,2013-09-18 06:53:00,
2013-09-18 02:54:00,38.4,36.8,30.29,NW,304,0.0,0.0,94,0.00,,CLR,0.00,VWS V14.01,2013-09-18 06:54:00,
2013-09-18 02:55:00,38.4,36.8,30.29,NW,304,0.0,0.0,94,0.00,,CLR,0.00,VWS V14.01,2013-09-18 06:55:00,
2013-09-18 02:56:00,38.6,37.0,30.30,NW,304,0.0,0.0,94,0.00,,,0.00,WUHU216VWC,2013-09-18 06:56:00,
2013-09-18 02:57:00,38.4,37.1,30.29,NW,304,0.0,0.0,95,0.00,,CLR,0.00,VWS V14.01,2013-09-18 06:57:00,
2013-09-18 02:58:00,38.3,36.7,30.29,NW,304,0.0,0.0,94,0.00,,CLR,0.00,VWS V14.01,2013-09-18 06:58:00,
2013-09-18 02:59:00,38.3,36.7,30.29,NW,304,0.0,0.0,94,0.00,,CLR,0.00,VWS V14.01,2013-09-18 06:59:00,
2013-09-18 03:00:00,38.3,36.7,30.29,NW,304,0.0,0.0,94,0.00,,CLR,0.00,VWS V14.01,2013-09-18 07:00:00,
2013-09-18 03:01:00,38.5,36.9,30.29,NW,304,0.0,0.0,94,0.00,,,0.00,WUHU216VWC,2013-09-18 07:01:00,
2013-09-18 03:02:00,38.3,36.7,30.30,NW,304,0.0,0.0,94,0.00,,CLR,0.00,VWS V14.01,2013-09-18 07:02:00,
2013-09-18 03:03:00,38.3,36.7,30.29,NW,304,0.0,0.0,94,0.00,,CLR,0.00,VWS V14.01,2013-09-18 07:03:00,
2013-09-18 03:04:00,38.3,36.7,30.29,NW,304,0.0,0.0,94,0.00,,CLR,0.00,VWS V14.01,2013-09-18 07:04:00,
2013-09-18 03:05:00,38.3,36.7,30.29,NW,304,0.0,0.0,94,0.00,,CLR,0.00,VWS V14.01,2013-09-18 07:05:00,
2013-09-18 03:06:00,38.4,36.8,30.30,NW,304,0.0,0.0,94,0.00,,,0.00,WUHU216VWC,2013-09-18 07:06:00,
2013-09-18 03:07:00,38.2,36.6,30.29,NW,304,0.0,0.0,94,0.00,,CLR,0.00,VWS V14.01,2013-09-18 07:07:00,
2013-09-18 03:08:00,38.2,36.6,30.29,NW,304,0.0,0.0,94,0.00,,CLR,0.00,VWS V14.01,2013-09-18 07:08:00,
2013-09-18 03:09:00,38.2,36.9,30.29,NW,304,0.0,0.0,95,0.00,,CLR,0.00,VWS V14.01,2013-09-18 07:09:00,
2013-09-18 03:10:00,38.2,36.9,30.29,NW,304,0.0,0.0,95,0.00,,CLR,0.00,VWS V14.01,2013-09-18 07:10:00,
2013-09-18 03:11:00,38.4,36.8,30.29,NW,304,0.0,0.0,94,0.00,,,0.00,WUHU216VWC,2013-09-18 07:11:00,
2013-09-18 03:12:00,38.2,36.9,30.29,NW,304,0.0,0.0,95,0.00,,CLR,0.00,VWS V14.01,2013-09-18 07:12:00,
2013-09-18 03:13:00,38.2,36.9,30.29,NW,304,0.0,0.0,95,0.00,,CLR,0.00,VWS V14.01,2013-09-18 07:13:00,
2013-09-18 03:14:00,38.2,36.9,30.29,NW,304,0.0,0.0,95,0.00,,CLR,0.00,VWS V14.01,2013-09-18 07:14:00,
2013-09-18 03:15:00,38.2,36.9,30.29,NW,304,0.0,0.0,95,0.00,,CLR,0.00,VWS V14.01,2013-09-18 07:15:00,
2013-09-18 03:16:00,38.3,36.7,30.29,NW,304,0.0,0.0,94,0.00,,,0.00,WUHU216VWC,2013-09-18 07:16:00,
2013-09-18 03:17:00,38.2,36.9,30.29,NW,304,0.0,0.0,95,0.00,,CLR,0.00,VWS V14.01,2013-09-18 07:17:00,
2013-09-18 03:18:00,38.1,36.8,30.29,NW,304,0.0,0.0,95,0.00,,CLR,0.00,VWS V14.01,2013-09-18 07:18:00,
2013-09-18 03:19:00,38.2,36.9,30.29,NW,304,0.0,0.0,95,0.00,,CLR,0.00,VWS V14.01,2013-09-18 07:19:00,
2013-09-18 03:20:00,38.1,36.8,30.29,NW,304,0.0,0.0,95,0.00,,CLR,0.00,VWS V14.01,2013-09-18 07:20:00,
2013-09-18 03:21:00,38.3,36.7,30.29,NW,304,0.0,0.0,94,0.00,,,0.00,WUHU216VWC,2013-09-18 07:21:00,
2013-09-18 03:22:00,38.1,36.8,30.29,NW,304,0.0,0.0,95,0.00,,CLR,0.00,VWS V14.01,2013-09-18 07:22:00,
2013-09-18 03:23:00,38.1,36.8,30.29,NW,304,0.0,0.0,95,0.00,,CLR,0.00,VWS V14.01,2013-09-18 07:23:00,
2013-09-18 03:24:00,38.1,36.8,30.29,NW,304,0.0,0.0,95,0.00,,CLR,0.00,VWS V14.01,2013-09-18 07:24:00,
2013-09-18 03:25:00,38.1,36.8,30.29,NW,304,0.0,0.0,95,0.00,,CLR,0.00,VWS V14.01,2013-09-18 07:25:00,
2013-09-18 03:26:00,38.2,36.9,30.29,NW,304,0.0,0.0,95,0.00,,,0.00,WUHU216VWC,2013-09-18 07:26:00,
2013-09-18 03:27:00,38.1,36.8,30.29,NW,304,0.0,0.0,95,0.00,,CLR,0.00,VWS V14.01,2013-09-18 07:27:00,
2013-09-18 03:28:00,38.1,36.8,30.29,NW,304,0.0,0.0,95,0.00,,CLR,0.00,VWS V14.01,2013-09-18 07:28:00,
2013-09-18 03:29:00,38.1,36.8,30.29,NW,304,0.0,0.0,95,0.00,,CLR,0.00,VWS V14.01,2013-09-18 07:29:00,
2013-09-18 03:30:00,38.1,36.8,30.29,NW,304,0.0,0.0,95,0.00,,CLR,0.00,VWS V14.01,2013-09-18 07:30:00,
2013-09-18 03:31:00,38.2,36.9,30.29,NW,304,0.0,0.0,95,0.00,,,0.00,WUHU216VWC,2013-09-18 07:31:00,
2013-09-18 03:32:00,38.0,36.7,30.29,NW,304,0.0,0.0,95,0.00,,CLR,0.00,VWS V14.01,2013-09-18 07:32:00,
2013-09-18 03:33:00,38.0,36.7,30.29,NW,304,0.0,0.0,95,0.00,,CLR,0.00,VWS V14.01,2013-09-18 07:33:00,
2013-09-18 03:34:00,38.0,36.7,30.29,NW,304,0.0,0.0,95,0.00,,CLR,0.00,VWS V14.01,2013-09-18 07:34:00,
2013-09-18 03:35:00,38.0,36.7,30.29,NW,304,0.0,0.0,95,0.00,,CLR,0.00,VWS V14.01,2013-09-18 07:35:00,
2013-09-18 03:36:00,38.1,36.8,30.29,NW,304,0.0,0.0,95,0.00,,,0.00,WUHU216VWC,2013-09-18 07:36:00,
2013-09-18 03:37:00,38.0,36.7,30.29,NW,304,0.0,0.0,95,0.00,,CLR,0.00,VWS V14.01,2013-09-18 07:37:00,
2013-09-18 03:38:00,38.0,36.7,30.29,NW,304,0.0,0.0,95,0.00,,CLR,0.00,VWS V14.01,2013-09-18 07:38:00,
2013-09-18 03:39:00,38.0,36.7,30.29,NW,304,0.0,0.0,95,0.00,,CLR,0.00,VWS V14.01,2013-09-18 07:39:00,
2013-09-18 03:40:00,37.9,36.6,30.29,NW,304,0.0,0.0,95,0.00,,CLR,0.00,VWS V14.01,2013-09-18 07:40:00,
2013-09-18 03:41:00,38.1,36.8,30.29,NW,304,0.0,0.0,95,0.00,,,0.00,WUHU216VWC,2013-09-18 07:41:00,
2013-09-18 03:42:00,37.9,36.6,30.29,NW,304,0.0,0.0,95,0.00,,CLR,0.00,VWS V14.01,2013-09-18 07:42:00,
2013-09-18 03:43:00,37.9,36.6,30.29,NW,304,0.0,0.0,95,0.00,,CLR,0.00,VWS V14.01,2013-09-18 07:43:00,
2013-09-18 03:44:00,37.9,36.6,30.29,NW,304,0.0,0.0,95,0.00,,CLR,0.00,VWS V14.01,2013-09-18 07:44:00,
2013-09-18 03:45:00,37.9,36.6,30.29,NW,304,0.0,0.0,95,0.00,,CLR,0.00,VWS V14.01,2013-09-18 07:45:00,
2013-09-18 03:46:00,38.1,36.8,30.29,NW,304,0.0,0.0,95,0.00,,,0.00,WUHU216VWC,2013-09-18 07:46:00,
2013-09-18 03:47:00,37.9,36.6,30.29,NW,304,0.0,0.0,95,0.00,,CLR,0.00,VWS V14.01,2013-09-18 07:47:00,
2013-09-18 03:48:00,37.9,36.6,30.29,NW,304,0.0,0.0,95,0.00,,CLR,0.00,VWS V14.01,2013-09-18 07:48:00,
2013-09-18 03:49:00,37.9,36.6,30.29,NW,304,0.0,0.0,95,0.00,,CLR,0.00,VWS V14.01,2013-09-18 07:49:00,
2013-09-18 03:50:00,37.9,36.6,30.29,NW,304,0.0,0.0,95,0.00,,CLR,0.00,VWS V14.01,2013-09-18 07:50:00,
2013-09-18 03:51:00,38.0,36.7,30.29,NW,304,0.0,0.0,95,0.00,,,0.00,WUHU216VWC,2013-09-18 07:51:00,
2013-09-18 03:52:00,37.8,36.5,30.29,NW,304,0.0,0.0,95,0.00,,CLR,0.00,VWS V14.01,2013-09-18 07:52:00,
2013-09-18 03:53:00,37.8,36.5,30.29,NW,304,0.0,0.0,95,0.00,,CLR,0.00,VWS V14.01,2013-09-18 07:53:00,
2013-09-18 03:54:00,37.8,36.5,30.29,NW,304,0.0,0.0,95,0.00,,CLR,0.00,VWS V14.01,2013-09-18 07:54:00,
2013-09-18 03:55:00,37.8,36.5,30.29,NW,304,0.0,0.0,95,0.00,,CLR,0.00,VWS V14.01,2013-09-18 07:55:00,
2013-09-18 03:56:00,37.9,36.6,30.29,NW,304,0.0,0.0,95,0.00,,,0.00,WUHU216VWC,2013-09-18 07:56:00,
2013-09-18 03:57:00,37.8,36.5,30.29,NW,304,0.0,0.0,95,0.00,,CLR,0.00,VWS V14.01,2013-09-18 07:57:00,
2013-09-18 03:58:00,37.8,36.5,30.29,NW,304,0.0,0.0,95,0.00,,CLR,0.00,VWS V14.01,2013-09-18 07:58:00,
2013-09-18 03:59:00,37.8,36.5,30.29,NW,304,0.0,0.0,95,0.00,,CLR,0.00,VWS V14.01,2013-09-18 07:59:00,
2013-09-18 04:00:00,37.8,36.5,30.29,NW,304,0.0,0.0,95,0.00,,CLR,0.00,VWS V14.01,2013-09-18 08:00:00,
2013-09-18 04:01:00,37.9,36.6,30.29,NW,304,0.0,0.0,95,0.00,,,0.00,WUHU216VWC,2013-09-18 08:01:00,
2013-09-18 04:02:00,37.7,36.4,30.29,NW,304,0.0,0.0,95,0.00,,CLR,0.00,VWS V14.01,2013-09-18 08:02:00,
2013-09-18 04:03:00,37.7,36.4,30.29,NW,304,0.0,0.0,95,0.00,,CLR,0.00,VWS V14.01,2013-09-18 08:03:00,
2013-09-18 04:04:00,37.7,36.4,30.29,NW,304,0.0,0.0,95,0.00,,CLR,0.00,VWS V14.01,2013-09-18 08:04:00,
2013-09-18 04:05:00,37.7,36.4,30.29,NW,304,0.0,0.0,95,0.00,,CLR,0.00,VWS V14.01,2013-09-18 08:05:00,
2013-09-18 04:06:00,37.9,36.6,30.29,NW,304,0.0,0.0,95,0.00,,,0.00,WUHU216VWC,2013-09-18 08:06:00,
2013-09-18 04:07:00,37.7,36.4,30.29,NW,304,0.0,0.0,95,0.00,,CLR,0.00,VWS V14.01,2013-09-18 08:07:00,
2013-09-18 04:08:00,37.7,36.4,30.29,NW,304,0.0,0.0,95,0.00,,CLR,0.00,VWS V14.01,2013-09-18 08:08:00,
2013-09-18 04:09:00,37.7,36.4,30.29,NW,304,0.0,0.0,95,0.00,,CLR,0.00,VWS V14.01,2013-09-18 08:09:00,
2013-09-18 04:10:00,37.6,36.3,30.29,NW,304,0.0,0.0,95,0.00,,CLR,0.00,VWS V14.01,2013-09-18 08:10:00,
2013-09-18 04:11:00,37.8,36.5,30.29,NW,304,0.0,0.0,95,0.00,,,0.00,WUHU216VWC,2013-09-18 08:11:00,
2013-09-18 04:12:00,37.6,36.3,30.29,NW,304,0.0,0.0,95,0.00,,CLR,0.00,VWS V14.01,2013-09-18 08:12:00,
2013-09-18 04:13:00,37.6,36.3,30.29,NW,304,0.0,0.0,95,0.00,,CLR,0.00,VWS V14.01,2013-09-18 08:13:00,
2013-09-18 04:14:00,37.6,36.3,30.29,NW,304,0.0,0.0,95,0.00,,CLR,0.00,VWS V14.01,2013-09-18 08:14:00,
2013-09-18 04:15:00,37.6,36.3,30.29,NW,304,0.0,0.0,95,0.00,,CLR,0.00,VWS V14.01,2013-09-18 08:15:00,
2013-09-18 04:16:00,37.8,36.5,30.29,NW,304,0.0,0.0,95,0.00,,,0.00,WUHU216VWC,2013-09-18 08:16:00,
2013-09-18 04:17:00,37.5,36.2,30.29,NW,304,0.0,0.0,95,0.00,,CLR,0.00,VWS V14.01,2013-09-18 08:17:00,
2013-09-18 04:18:00,37.5,36.2,30.29,NW,304,0.0,0.0,95,0.00,,CLR,0.00,VWS V14.01,2013-09-18 08:18:00,
2013-09-18 04:19:00,37.5,36.2,30.29,NW,304,0.0,0.0,95,0.00,,CLR,0.00,VWS V14.01,2013-09-18 08:19:00,
2013-09-18 04:20:00,37.5,36.2,30.29,NW,304,0.0,0.0,95,0.00,,CLR,0.00,VWS V14.01,2013-09-18 08:20:00,
2013-09-18 04:21:00,37.7,36.4,30.29,NW,304,0.0,0.0,95,0.00,,,0.00,WUHU216VWC,2013-09-18 08:21:00,
2013-09-18 04:22:00,37.5,36.2,30.28,NW,304,0.0,0.0,95,0.00,,CLR,0.00,VWS V14.01,2013-09-18 08:22:00,
2013-09-18 04:23:00,37.5,36.2,30.28,NW,304,0.0,0.0,95,0.00,,CLR,0.00,VWS V14.01,2013-09-18 08:23:00,
2013-09-18 04:24:00,37.5,36.2,30.29,NW,304,0.0,0.0,95,0.00,,CLR,0.00,VWS V14.01,2013-09-18 08:24:00,
2013-09-18 04:25:00,37.5,36.2,30.29,NW,304,0.0,0.0,95,0.00,,CLR,0.00,VWS V14.01,2013-09-18 08:25:00,
2013-09-18 04:26:00,37.6,36.3,30.29,NW,304,0.0,0.0,95,0.00,,,0.00,WUHU216VWC,2013-09-18 08:26:00,
2013-09-18 04:27:00,37.5,36.2,30.29,NW,304,0.0,0.0,95,0.00,,CLR,0.00,VWS V14.01,2013-09-18 08:27:00,
2013-09-18 04:28:00,37.5,36.2,30.28,NW,304,0.0,0.0,95,0.00,,CLR,0.00,VWS V14.01,2013-09-18 08:28:00,
2013-09-18 04:29:00,37.5,36.2,30.28,NW,304,0.0,0.0,95,0.00,,CLR,0.00,VWS V14.01,2013-09-18 08:29:00,
2013-09-18 04:30:00,37.5,36.2,30.28,NW,304,0.0,0.0,95,0.00,,CLR,0.00,VWS V14.01,2013-09-18 08:30:00,
2013-09-18 04:31:00,37.6,36.3,30.29,NW,304,0.0,0.0,95,0.00,,,0.00,WUHU216VWC,2013-09-18 08:31:00,
2013-09-18 04:32:00,37.5,36.2,30.28,NW,304,0.0,0.0,95,0.00,,CLR,0.00,VWS V14.01,2013-09-18 08:32:00,
2013-09-18 04:33:00,37.5,36.2,30.28,NW,304,0.0,0.0,95,0.00,,CLR,0.00,VWS V14.01,2013-09-18 08:33:00,
2013-09-18 04:34:00,37.5,36.2,30.28,NW,304,0.0,0.0,95,0.00,,CLR,0.00,VWS V14.01,2013-09-18 08:34:00,
2013-09-18 04:35:00,37.5,36.2,30.28,NW,304,0.0,0.0,95,0.00,,CLR,0.00,VWS V14.01,2013-09-18 08:35:00,
2013-09-18 04:36:00,37.5,36.2,30.29,NW,304,0.0,0.0,95,0.00,,,0.00,WUHU216VWC,2013-09-18 08:36:00,
2013-09-18 04:37:00,37.5,36.2,30.28,NW,304,0.0,0.0,95,0.00,,CLR,0.00,VWS V14.01,2013-09-18 08:37:00,
2013-09-18 04:38:00,37.5,36.2,30.28,NW,304,0.0,0.0,95,0.00,,CLR,0.00,VWS V14.01,2013-09-18 08:38:00,
2013-09-18 04:39:00,37.5,36.2,30.28,NW,304,0.0,0.0,95,0.00,,CLR,0.00,VWS V14.01,2013-09-18 08:39:00,
2013-09-18 04:40:00,37.5,36.2,30.28,NW,304,0.0,0.0,95,0.00,,CLR,0.00,VWS V14.01,2013-09-18 08:40:00,
2013-09-18 04:41:00,37.5,36.2,30.29,NW,304,0.0,0.0,95,0.00,,,0.00,WUHU216VWC,2013-09-18 08:41:00,
2013-09-18 04:42:00,37.5,36.2,30.28,NW,304,0.0,0.0,95,0.00,,CLR,0.00,VWS V14.01,2013-09-18 08:42:00,
2013-09-18 04:43:00,37.5,36.2,30.28,NW,304,0.0,0.0,95,0.00,,CLR,0.00,VWS V14.01,2013-09-18 08:43:00,
2013-09-18 04:44:00,37.5,36.2,30.28,NW,304,0.0,0.0,95,0.00,,CLR,0.00,VWS V14.01,2013-09-18 08:44:00,
2013-09-18 04:45:00,37.5,36.2,30.28,NW,304,0.0,0.0,95,0.00,,CLR,0.00,VWS V14.01,2013-09-18 08:45:00,
2013-09-18 04:46:00,37.5,36.2,30.28,NW,304,0.0,0.0,95,0.00,,,0.00,WUHU216VWC,2013-09-18 08:46:00,
2013-09-18 04:47:00,37.4,36.1,30.28,NW,304,0.0,0.0,95,0.00,,CLR,0.00,VWS V14.01,2013-09-18 08:47:00,
2013-09-18 04:48:00,37.4,36.1,30.29,NW,304,0.0,0.0,95,0.00,,CLR,0.00,VWS V14.01,2013-09-18 08:48:00,
2013-09-18 04:49:00,37.4,36.1,30.29,NW,304,0.0,0.0,95,0.00,,CLR,0.00,VWS V14.01,2013-09-18 08:49:00,
2013-09-18 04:50:00,37.4,36.1,30.29,NW,304,0.0,0.0,95,0.00,,CLR,0.00,VWS V14.01,2013-09-18 08:50:00,
2013-09-18 04:51:00,37.5,36.2,30.28,NW,304,0.0,0.0,95,0.00,,,0.00,WUHU216VWC,2013-09-18 08:51:00,
2013-09-18 04:52:00,37.3,36.0,30.29,NW,304,0.0,0.0,95,0.00,,CLR,0.00,VWS V14.01,2013-09-18 08:52:00,
2013-09-18 04:53:00,37.3,36.0,30.29,NW,304,0.0,0.0,95,0.00,,CLR,0.00,VWS V14.01,2013-09-18 08:53:00,
2013-09-18 04:54:00,37.3,36.0,30.29,NW,304,0.0,0.0,95,0.00,,CLR,0.00,VWS V14.01,2013-09-18 08:54:00,
2013-09-18 04:55:00,37.5,36.2,30.28,NW,304,0.0,0.0,95,0.00,,,0.00,WUHU216VWC,2013-09-18 08:55:00,
2013-09-18 04:56:00,37.2,35.9,30.29,NW,304,0.0,0.0,95,0.00,,CLR,0.00,VWS V14.01,2013-09-18 08:56:00,
2013-09-18 04:57:00,37.2,35.9,30.29,NW,304,0.0,0.0,95,0.00,,CLR,0.00,VWS V14.01,2013-09-18 08:57:00,
2013-09-18 04:58:00,37.2,35.9,30.29,NW,304,0.0,0.0,95,0.00,,CLR,0.00,VWS V14.01,2013-09-18 08:58:00,
2013-09-18 04:59:00,37.2,35.9,30.29,NW,304,0.0,0.0,95,0.00,,CLR,0.00,VWS V14.01,2013-09-18 08:59:00,
2013-09-18 05:00:00,37.5,36.2,30.28,NW,304,0.0,0.0,95,0.00,,,0.00,WUHU216VWC,2013-09-18 09:00:00,
2013-09-18 05:01:00,37.2,35.9,30.29,NW,304,0.0,0.0,95,0.00,,CLR,0.00,VWS V14.01,2013-09-18 09:01:00,
2013-09-18 05:02:00,37.1,35.8,30.29,NW,304,0.0,0.0,95,0.00,,CLR,0.00,VWS V14.01,2013-09-18 09:02:00,
2013-09-18 05:03:00,37.1,35.8,30.29,NW,304,0.0,0.0,95,0.00,,CLR,0.00,VWS V14.01,2013-09-18 09:03:00,
2013-09-18 05:04:00,37.1,35.8,30.29,NW,304,0.0,0.0,95,0.00,,CLR,0.00,VWS V14.01,2013-09-18 09:04:00,
2013-09-18 05:05:00,37.4,36.1,30.29,NW,304,0.0,0.0,95,0.00,,,0.00,WUHU216VWC,2013-09-18 09:05:00,
2013-09-18 05:06:00,37.1,35.8,30.29,NW,304,0.0,0.0,95,0.00,,CLR,0.00,VWS V14.01,2013-09-18 09:06:00,
2013-09-18 05:07:00,37.1,35.8,30.29,NW,304,0.0,0.0,95,0.00,,CLR,0.00,VWS V14.01,2013-09-18 09:07:00,
2013-09-18 05:08:00,37.0,35.7,30.29,NW,304,0.0,0.0,95,0.00,,CLR,0.00,VWS V14.01,2013-09-18 09:08:00,
2013-09-18 05:09:00,37.1,35.8,30.29,NW,304,0.0,0.0,95,0.00,,CLR,0.00,VWS V14.01,2013-09-18 09:09:00,
2013-09-18 05:10:00,37.3,36.0,30.29,NW,304,0.0,0.0,95,0.00,,,0.00,WUHU216VWC,2013-09-18 09:10:00,
2013-09-18 05:11:00,37.0,35.7,30.29,NW,304,0.0,0.0,95,0.00,,CLR,0.00,VWS V14.01,2013-09-18 09:11:00,
2013-09-18 05:12:00,37.0,35.7,30.29,NW,304,0.0,0.0,95,0.00,,CLR,0.00,VWS V14.01,2013-09-18 09:12:00,
2013-09-18 05:13:00,37.1,35.8,30.29,NW,304,0.0,0.0,95,0.00,,CLR,0.00,VWS V14.01,2013-09-18 09:13:00,
2013-09-18 05:14:00,37.1,35.8,30.29,NW,304,0.0,0.0,95,0.00,,CLR,0.00,VWS V14.01,2013-09-18 09:14:00,
2013-09-18 05:15:00,37.2,35.9,30.29,NW,304,0.0,0.0,95,0.00,,,0.00,WUHU216VWC,2013-09-18 09:15:00,
2013-09-18 05:16:00,37.1,35.8,30.29,NW,304,0.0,0.0,95,0.00,,CLR,0.00,VWS V14.01,2013-09-18 09:16:00,
2013-09-18 05:17:00,37.0,35.7,30.29,NW,304,0.0,0.0,95,0.00,,CLR,0.00,VWS V14.01,2013-09-18 09:17:00,
2013-09-18 05:18:00,37.0,35.7,30.29,NW,304,0.0,0.0,95,0.00,,CLR,0.00,VWS V14.01,2013-09-18 09:18:00,
2013-09-18 05:19:00,37.1,35.8,30.29,NW,304,0.0,0.0,95,0.00,,CLR,0.00,VWS V14.01,2013-09-18 09:19:00,
2013-09-18 05:20:00,37.1,35.8,30.29,NW,304,0.0,0.0,95,0.00,,,0.00,WUHU216VWC,2013-09-18 09:20:00,
2013-09-18 05:21:00,37.0,35.7,30.29,NW,304,0.0,0.0,95,0.00,,CLR,0.00,VWS V14.01,2013-09-18 09:21:00,
2013-09-18 05:22:00,37.0,35.7,30.29,NW,304,0.0,0.0,95,0.00,,CLR,0.00,VWS V14.01,2013-09-18 09:22:00,
2013-09-18 05:23:00,37.0,35.7,30.29,NW,304,0.0,0.0,95,0.00,,CLR,0.00,VWS V14.01,2013-09-18 09:23:00,
2013-09-18 05:24:00,37.0,35.7,30.29,NW,304,0.0,0.0,95,0.00,,CLR,0.00,VWS V14.01,2013-09-18 09:24:00,
2013-09-18 05:25:00,37.1,35.8,30.29,NW,304,0.0,0.0,95,0.00,,,0.00,WUHU216VWC,2013-09-18 09:25:00,
2013-09-18 05:26:00,36.9,35.6,30.29,NW,304,0.0,0.0,95,0.00,,CLR,0.00,VWS V14.01,2013-09-18 09:26:00,
2013-09-18 05:27:00,36.9,35.6,30.29,NW,304,0.0,0.0,95,0.00,,CLR,0.00,VWS V14.01,2013-09-18 09:27:00,
2013-09-18 05:28:00,36.9,35.6,30.29,NW,304,0.0,0.0,95,0.00,,CLR,0.00,VWS V14.01,2013-09-18 09:28:00,
2013-09-18 05:29:00,36.9,35.6,30.29,NW,304,0.0,0.0,95,0.00,,CLR,0.00,VWS V14.01,2013-09-18 09:29:00,
2013-09-18 05:30:00,37.0,35.7,30.29,NW,304,0.0,0.0,95,0.00,,,0.00,WUHU216VWC,2013-09-18 09:30:00,
2013-09-18 05:31:00,36.8,35.5,30.29,NW,304,0.0,0.0,95,0.00,,CLR,0.00,VWS V14.01,2013-09-18 09:31:00,
2013-09-18 05:32:00,36.8,35.5,30.29,NW,304,0.0,0.0,95,0.00,,CLR,0.00,VWS V14.01,2013-09-18 09:32:00,
2013-09-18 05:33:00,36.8,35.5,30.29,NW,304,0.0,0.0,95,0.00,,CLR,0.00,VWS V14.01,2013-09-18 09:33:00,
2013-09-18 05:34:00,36.8,35.5,30.29,NW,304,0.0,0.0,95,0.00,,CLR,0.00,VWS V14.01,2013-09-18 09:34:00,
2013-09-18 05:35:00,37.0,35.7,30.29,NW,304,0.0,0.0,95,0.00,,,0.00,WUHU216VWC,2013-09-18 09:35:00,
2013-09-18 05:36:00,36.7,35.4,30.29,NW,304,0.0,0.0,95,0.00,,CLR,0.00,VWS V14.01,2013-09-18 09:36:00,
2013-09-18 05:37:00,36.7,35.4,30.29,NW,304,0.0,0.0,95,0.00,,CLR,0.00,VWS V14.01,2013-09-18 09:37:00,
2013-09-18 05:38:00,36.7,35.4,30.29,NW,304,0.0,0.0,95,0.00,,CLR,0.00,VWS V14.01,2013-09-18 09:38:00,
2013-09-18 05:39:00,36.7,35.4,30.29,NW,304,0.0,0.0,95,0.00,,CLR,0.00,VWS V14.01,2013-09-18 09:39:00,
2013-09-18 05:40:00,37.0,35.7,30.29,NW,304,0.0,0.0,95,0.00,,,0.00,WUHU216VWC,2013-09-18 09:40:00,
2013-09-18 05:41:00,36.7,35.4,30.29,NW,304,0.0,0.0,95,0.00,,CLR,0.00,VWS V14.01,2013-09-18 09:41:00,
2013-09-18 05:42:00,36.6,35.3,30.29,NW,304,0.0,0.0,95,0.00,,CLR,0.00,VWS V14.01,2013-09-18 09:42:00,
2013-09-18 05:43:00,36.6,35.3,30.29,NW,304,0.0,0.0,95,0.00,,CLR,0.00,VWS V14.01,2013-09-18 09:43:00,
2013-09-18 05:44:00,36.6,35.3,30.29,NW,304,0.0,0.0,95,0.00,,CLR,0.00,VWS V14.01,2013-09-18 09:44:00,
2013-09-18 05:45:00,36.6,35.3,30.29,NW,304,0.0,0.0,95,0.00,,,0.00,VWS V14.01,2013-09-18 09:45:00,
2013-09-18 05:46:00,36.9,35.6,30.29,NW,304,0.0,0.0,95,0.00,,,0.00,WUHU216VWC,2013-09-18 09:46:00,
2013-09-18 05:47:00,36.6,35.3,30.29,NW,304,0.0,0.0,95,0.00,,,0.00,VWS V14.01,2013-09-18 09:47:00,
2013-09-18 05:48:00,36.6,35.3,30.29,NW,304,0.0,0.0,95,0.00,,,0.00,VWS V14.01,2013-09-18 09:48:00,
2013-09-18 05:49:00,36.6,35.3,30.29,NW,304,0.0,0.0,95,0.00,,,0.00,VWS V14.01,2013-09-18 09:49:00,
2013-09-18 05:50:00,36.6,35.3,30.29,NW,304,0.0,0.0,95,0.00,,,0.00,VWS V14.01,2013-09-18 09:50:00,
2013-09-18 05:51:00,36.8,35.5,30.29,NW,304,0.0,0.0,95,0.00,,,0.00,WUHU216VWC,2013-09-18 09:51:00,
2013-09-18 05:52:00,36.6,35.3,30.29,NW,304,0.0,0.0,95,0.00,,,0.00,VWS V14.01,2013-09-18 09:52:00,
2013-09-18 05:53:00,36.6,35.3,30.30,NW,304,0.0,0.0,95,0.00,,,0.00,VWS V14.01,2013-09-18 09:53:00,
2013-09-18 05:54:00,36.6,35.3,30.30,NW,304,0.0,0.0,95,0.00,,,0.00,VWS V14.01,2013-09-18 09:54:00,
2013-09-18 05:55:00,36.6,35.3,30.30,NW,304,0.0,0.0,95,0.00,,,0.00,VWS V14.01,2013-09-18 09:55:00,
2013-09-18 05:56:00,36.6,35.3,30.29,NW,304,0.0,0.0,95,0.00,,,0.00,WUHU216VWC,2013-09-18 09:56:00,
2013-09-18 05:57:00,36.5,35.2,30.30,NW,304,0.0,0.0,95,0.00,,,0.00,VWS V14.01,2013-09-18 09:57:00,
2013-09-18 05:58:00,36.5,35.2,30.30,NW,304,0.0,0.0,95,0.00,,,0.00,VWS V14.01,2013-09-18 09:58:00,
2013-09-18 05:59:00,36.5,35.2,30.30,NW,304,0.0,0.0,95,0.00,,,0.00,VWS V14.01,2013-09-18 09:59:00,
2013-09-18 06:00:00,36.4,35.1,30.29,NW,304,0.0,0.0,95,0.00,,,0.00,VWS V14.01,2013-09-18 10:00:00,
2013-09-18 06:01:00,36.6,35.3,30.29,NW,304,0.0,0.0,95,0.00,,,0.00,WUHU216VWC,2013-09-18 10:01:00,
2013-09-18 06:02:00,36.4,35.1,30.30,NW,304,0.0,0.0,95,0.00,,,0.00,VWS V14.01,2013-09-18 10:02:00,
2013-09-18 06:03:00,36.4,35.1,30.30,NW,304,0.0,0.0,95,0.00,,,0.00,VWS V14.01,2013-09-18 10:03:00,
2013-09-18 06:04:00,36.4,35.1,30.30,NW,304,0.0,0.0,95,0.00,,,0.00,VWS V14.01,2013-09-18 10:04:00,
2013-09-18 06:05:00,36.4,35.1,30.30,NW,304,0.0,0.0,95,0.00,,,0.00,VWS V14.01,2013-09-18 10:05:00,
2013-09-18 06:06:00,36.6,35.3,30.29,NW,304,0.0,0.0,95,0.00,,,0.00,WUHU216VWC,2013-09-18 10:06:00,
2013-09-18 06:07:00,36.4,35.1,30.30,NW,304,0.0,0.0,95,0.00,,,0.00,VWS V14.01,2013-09-18 10:07:00,
2013-09-18 06:08:00,36.4,35.1,30.30,NW,304,0.0,0.0,95,0.00,,,0.00,VWS V14.01,2013-09-18 10:08:00,
2013-09-18 06:09:00,36.4,35.1,30.30,NW,304,0.0,0.0,95,0.00,,,0.00,VWS V14.01,2013-09-18 10:09:00,
2013-09-18 06:10:00,36.3,35.0,30.30,NW,304,0.0,0.0,95,0.00,,,0.00,VWS V14.01,2013-09-18 10:10:00,
2013-09-18 06:11:00,36.5,35.2,30.30,NW,304,0.0,0.0,95,0.00,,,0.00,WUHU216VWC,2013-09-18 10:11:00,
2013-09-18 06:12:00,36.3,35.0,30.30,NW,304,0.0,0.0,95,0.00,,,0.00,VWS V14.01,2013-09-18 10:12:00,
2013-09-18 06:13:00,36.3,35.0,30.30,NW,304,0.0,0.0,95,0.00,,,0.00,VWS V14.01,2013-09-18 10:13:00,
2013-09-18 06:14:00,36.3,35.0,30.30,NW,304,0.0,0.0,95,0.00,,,0.00,VWS V14.01,2013-09-18 10:14:00,
2013-09-18 06:15:00,36.3,35.0,30.30,NW,304,0.0,0.0,95,0.00,,,0.00,VWS V14.01,2013-09-18 10:15:00,
2013-09-18 06:16:00,36.4,35.1,30.29,NW,304,0.0,0.0,95,0.00,,,0.00,WUHU216VWC,2013-09-18 10:16:00,
2013-09-18 06:17:00,36.3,35.0,30.30,NW,304,0.0,0.0,95,0.00,,,0.00,VWS V14.01,2013-09-18 10:17:00,
2013-09-18 06:18:00,36.3,35.0,30.30,NW,304,0.0,0.0,95,0.00,,,0.00,VWS V14.01,2013-09-18 10:18:00,
2013-09-18 06:19:00,36.3,35.0,30.30,NW,304,0.0,0.0,95,0.00,,,0.00,VWS V14.01,2013-09-18 10:19:00,
2013-09-18 06:20:00,36.3,35.0,30.30,NW,304,0.0,0.0,95,0.00,,,0.00,VWS V14.01,2013-09-18 10:20:00,
2013-09-18 06:21:00,36.4,35.1,30.30,NW,304,0.0,0.0,95,0.00,,,0.00,WUHU216VWC,2013-09-18 10:21:00,
2013-09-18 06:22:00,36.3,35.0,30.30,NW,304,0.0,0.0,95,0.00,,,0.00,VWS V14.01,2013-09-18 10:22:00,
2013-09-18 06:23:00,36.2,34.9,30.30,NW,304,0.0,0.0,95,0.00,,,0.00,VWS V14.01,2013-09-18 10:23:00,
2013-09-18 06:24:00,36.2,34.9,30.30,NW,304,0.0,0.0,95,0.00,,,0.00,VWS V14.01,2013-09-18 10:24:00,
2013-09-18 06:25:00,36.2,34.9,30.30,NW,304,0.0,0.0,95,0.00,,,0.00,VWS V14.01,2013-09-18 10:25:00,
2013-09-18 06:26:00,36.3,35.0,30.30,NW,304,0.0,0.0,95,0.00,,,0.00,WUHU216VWC,2013-09-18 10:26:00,
2013-09-18 06:27:00,36.2,34.9,30.30,NW,304,0.0,0.0,95,0.00,,,0.00,VWS V14.01,2013-09-18 10:27:00,
2013-09-18 06:28:00,36.2,34.9,30.30,NW,304,0.0,0.0,95,0.00,,,0.00,VWS V14.01,2013-09-18 10:28:00,
2013-09-18 06:29:00,36.2,34.9,30.30,NW,304,0.0,0.0,95,0.00,,,0.00,VWS V14.01,2013-09-18 10:29:00,
2013-09-18 06:30:00,36.2,34.9,30.30,NW,304,0.0,0.0,95,0.00,,,0.00,VWS V14.01,2013-09-18 10:30:00,
2013-09-18 06:31:00,36.3,35.0,30.30,NW,304,0.0,0.0,95,0.00,,,0.00,WUHU216VWC,2013-09-18 10:31:00,
2013-09-18 06:32:00,36.1,34.8,30.30,NW,304,0.0,0.0,95,0.00,,,0.00,VWS V14.01,2013-09-18 10:32:00,
2013-09-18 06:33:00,36.1,34.8,30.30,NW,304,0.0,0.0,95,0.00,,,0.00,VWS V14.01,2013-09-18 10:33:00,
2013-09-18 06:34:00,36.1,34.8,30.30,NW,304,0.0,0.0,95,0.00,,,0.00,VWS V14.01,2013-09-18 10:34:00,
2013-09-18 06:35:00,36.1,34.8,30.30,NW,304,0.0,0.0,95,0.00,,,0.00,VWS V14.01,2013-09-18 10:35:00,
2013-09-18 06:36:00,36.3,35.0,30.30,NW,304,0.0,0.0,95,0.00,,,0.00,WUHU216VWC,2013-09-18 10:36:00,
2013-09-18 06:37:00,36.1,34.8,30.30,NW,304,0.0,0.0,95,0.00,,,0.00,VWS V14.01,2013-09-18 10:37:00,
2013-09-18 06:38:00,36.1,34.8,30.30,NW,304,0.0,0.0,95,0.00,,,0.00,VWS V14.01,2013-09-18 10:38:00,
2013-09-18 06:39:00,36.1,34.8,30.30,NW,304,0.0,0.0,95,0.00,,,0.00,VWS V14.01,2013-09-18 10:39:00,
2013-09-18 06:40:00,36.1,34.8,30.30,NW,304,0.0,0.0,95,0.00,,,0.00,VWS V14.01,2013-09-18 10:40:00,
2013-09-18 06:41:00,36.2,34.9,30.30,NW,304,0.0,0.0,95,0.00,,,0.00,WUHU216VWC,2013-09-18 10:41:00,
2013-09-18 06:42:00,36.1,34.8,30.30,NW,304,0.0,0.0,95,0.00,,,0.00,VWS V14.01,2013-09-18 10:42:00,
2013-09-18 06:43:00,36.1,34.8,30.30,NW,304,0.0,0.0,95,0.00,,,0.00,VWS V14.01,2013-09-18 10:43:00,
2013-09-18 06:44:00,36.1,34.8,30.30,NW,304,0.0,0.0,95,0.00,,,0.00,VWS V14.01,2013-09-18 10:44:00,
2013-09-18 06:45:00,36.1,34.8,30.30,NW,304,0.0,0.0,95,0.00,,FEW001,0.00,VWS V14.01,2013-09-18 10:45:00,
2013-09-18 06:46:00,36.1,34.8,30.30,NW,304,0.0,0.0,95,0.00,,,0.00,WUHU216VWC,2013-09-18 10:46:00,
2013-09-18 06:47:00,36.1,34.8,30.30,NW,304,0.0,0.0,95,0.00,,FEW001,0.00,VWS V14.01,2013-09-18 10:47:00,
2013-09-18 06:48:00,36.1,34.8,30.30,NW,304,0.0,0.0,95,0.00,,FEW001,0.00,VWS V14.01,2013-09-18 10:48:00,
2013-09-18 06:49:00,36.1,34.8,30.30,NW,304,0.0,0.0,95,0.00,,FEW001,0.00,VWS V14.01,2013-09-18 10:49:00,
2013-09-18 06:50:00,36.2,34.9,30.30,NW,304,0.0,0.0,95,0.00,,FEW001,0.00,VWS V14.01,2013-09-18 10:50:00,
2013-09-18 06:51:00,36.1,34.8,30.30,NW,304,0.0,0.0,95,0.00,,,0.00,WUHU216VWC,2013-09-18 10:51:00,
2013-09-18 06:52:00,36.2,34.9,30.30,NW,304,0.0,0.0,95,0.00,,FEW001,0.00,VWS V14.01,2013-09-18 10:52:00,
2013-09-18 06:53:00,36.2,34.9,30.30,NW,304,0.0,0.0,95,0.00,,FEW001,0.00,VWS V14.01,2013-09-18 10:53:00,
2013-09-18 06:54:00,36.2,34.9,30.30,NW,304,0.0,0.0,95,0.00,,FEW001,0.00,VWS V14.01,2013-09-18 10:54:00,
2013-09-18 06:55:00,36.2,34.9,30.30,NW,304,0.0,0.0,95,0.00,,FEW001,0.00,VWS V14.01,2013-09-18 10:55:00,
2013-09-18 06:56:00,36.1,34.8,30.30,NW,304,0.0,0.0,95,0.00,,,0.00,WUHU216VWC,2013-09-18 10:56:00,
2013-09-18 06:57:00,36.2,34.9,30.30,NW,304,0.0,0.0,95,0.00,,FEW001,0.00,VWS V14.01,2013-09-18 10:57:00,
2013-09-18 06:58:00,36.3,35.0,30.30,NW,304,0.0,0.0,95,0.00,,FEW001,0.00,VWS V14.01,2013-09-18 10:58:00,
2013-09-18 06:59:00,36.3,35.0,30.30,NW,304,0.0,0.0,95,0.00,,FEW001,0.00,VWS V14.01,2013-09-18 10:59:00,
2013-09-18 07:00:00,36.3,35.3,30.30,NW,304,0.0,0.0,96,0.00,,FEW001,0.00,VWS V14.01,2013-09-18 11:00:00,
2013-09-18 07:01:00,36.1,34.8,30.30,NW,304,0.0,0.0,95,0.00,,,0.00,WUHU216VWC,2013-09-18 11:01:00,
2013-09-18 07:02:00,36.3,35.0,30.30,NW,304,0.0,0.0,95,0.00,,FEW001,0.00,VWS V14.01,2013-09-18 11:02:00,
2013-09-18 07:03:00,36.4,35.4,30.30,NW,304,0.0,0.0,96,0.00,,FEW001,0.00,VWS V14.01,2013-09-18 11:03:00,
2013-09-18 07:04:00,36.4,35.4,30.30,NW,304,0.0,0.0,96,0.00,,FEW001,0.00,VWS V14.01,2013-09-18 11:04:00,
2013-09-18 07:05:00,36.4,35.4,30.30,NW,304,0.0,0.0,96,0.00,,FEW001,0.00,VWS V14.01,2013-09-18 11:05:00,
2013-09-18 07:06:00,36.2,34.9,30.30,NW,304,0.0,0.0,95,0.00,,,0.00,WUHU216VWC,2013-09-18 11:06:00,
2013-09-18 07:07:00,36.5,35.5,30.30,NW,304,0.0,0.0,96,0.00,,FEW001,0.00,VWS V14.01,2013-09-18 11:07:00,
2013-09-18 07:08:00,36.5,35.5,30.30,NW,304,0.0,0.0,96,0.00,,FEW001,0.00,VWS V14.01,2013-09-18 11:08:00,
2013-09-18 07:09:00,36.5,35.5,30.30,NW,304,0.0,0.0,96,0.00,,FEW001,0.00,VWS V14.01,2013-09-18 11:09:00,
2013-09-18 07:10:00,36.6,35.6,30.30,NW,304,0.0,0.0,96,0.00,,FEW001,0.00,VWS V14.01,2013-09-18 11:10:00,
2013-09-18 07:11:00,36.2,34.9,30.30,NW,304,0.0,0.0,95,0.00,,,0.00,WUHU216VWC,2013-09-18 11:11:00,
2013-09-18 07:12:00,36.6,35.6,30.30,NW,304,0.0,0.0,96,0.00,,FEW001,0.00,VWS V14.01,2013-09-18 11:12:00,
2013-09-18 07:13:00,36.6,35.6,30.30,NW,304,0.0,0.0,96,0.00,,FEW001,0.00,VWS V14.01,2013-09-18 11:13:00,
2013-09-18 07:14:00,36.7,35.7,30.30,NW,304,0.0,0.0,96,0.00,,FEW001,0.00,VWS V14.01,2013-09-18 11:14:00,
2013-09-18 07:15:00,36.7,35.7,30.30,NW,304,0.0,0.0,96,0.00,,FEW001,0.00,VWS V14.01,2013-09-18 11:15:00,
2013-09-18 07:16:00,36.3,35.3,30.30,NW,304,0.0,0.0,96,0.00,,,0.00,WUHU216VWC,2013-09-18 11:16:00,
2013-09-18 07:17:00,36.8,35.8,30.30,NW,304,0.0,0.0,96,0.00,,FEW001,0.00,VWS V14.01,2013-09-18 11:17:00,
2013-09-18 07:18:00,36.9,35.9,30.30,NW,304,0.0,0.0,96,0.00,,FEW001,0.00,VWS V14.01,2013-09-18 11:18:00,
2013-09-18 07:19:00,36.9,35.9,30.30,NW,304,0.0,0.0,96,0.00,,FEW001,0.00,VWS V14.01,2013-09-18 11:19:00,
2013-09-18 07:20:00,36.9,35.9,30.30,NW,304,0.0,0.0,96,0.00,,FEW001,0.00,VWS V14.01,2013-09-18 11:20:00,
2013-09-18 07:21:00,36.4,35.4,30.30,NW,304,0.0,0.0,96,0.00,,,0.00,WUHU216VWC,2013-09-18 11:21:00,
2013-09-18 07:22:00,37.0,36.0,30.30,NW,304,0.0,0.0,96,0.00,,FEW001,0.00,VWS V14.01,2013-09-18 11:22:00,
2013-09-18 07:23:00,37.1,36.1,30.30,NW,304,0.0,0.0,96,0.00,,FEW001,0.00,VWS V14.01,2013-09-18 11:23:00,
2013-09-18 07:24:00,37.2,36.2,30.30,NW,304,0.0,0.0,96,0.00,,FEW001,0.00,VWS V14.01,2013-09-18 11:24:00,
2013-09-18 07:25:00,37.2,36.2,30.30,NW,304,0.0,0.0,96,0.00,,FEW001,0.00,VWS V14.01,2013-09-18 11:25:00,
2013-09-18 07:26:00,36.6,35.6,30.30,NW,304,0.0,0.0,96,0.00,,,0.00,WUHU216VWC,2013-09-18 11:26:00,
2013-09-18 07:27:00,37.3,36.3,30.30,NW,304,0.0,0.0,96,0.00,,FEW001,0.00,VWS V14.01,2013-09-18 11:27:00,
2013-09-18 07:28:00,37.4,36.4,30.30,NW,304,0.0,0.0,96,0.00,,FEW001,0.00,VWS V14.01,2013-09-18 11:28:00,
2013-09-18 07:29:00,37.4,36.4,30.30,NW,304,0.0,0.0,96,0.00,,FEW001,0.00,VWS V14.01,2013-09-18 11:29:00,
2013-09-18 07:30:00,37.5,36.5,30.30,NW,304,0.0,0.0,96,0.00,,FEW001,0.00,VWS V14.01,2013-09-18 11:30:00,
2013-09-18 07:31:00,36.7,35.7,30.30,NW,304,0.0,0.0,96,0.00,,,0.00,WUHU216VWC,2013-09-18 11:31:00,
2013-09-18 07:32:00,37.6,36.6,30.30,NW,304,0.0,0.0,96,0.00,,FEW001,0.00,VWS V14.01,2013-09-18 11:32:00,
2013-09-18 07:33:00,37.6,36.6,30.30,NW,304,0.0,0.0,96,0.00,,FEW001,0.00,VWS V14.01,2013-09-18 11:33:00,
2013-09-18 07:34:00,37.7,36.7,30.30,NW,304,0.0,0.0,96,0.00,,FEW001,0.00,VWS V14.01,2013-09-18 11:34:00,
2013-09-18 07:35:00,37.8,36.8,30.30,NW,304,0.0,0.0,96,0.00,,FEW001,0.00,VWS V14.01,2013-09-18 11:35:00,
2013-09-18 07:36:00,36.9,35.9,30.30,NW,304,0.0,0.0,96,0.00,,,0.00,WUHU216VWC,2013-09-18 11:36:00,
2013-09-18 07:37:00,37.9,36.9,30.29,NW,304,0.0,0.0,96,0.00,,FEW001,0.00,VWS V14.01,2013-09-18 11:37:00,
2013-09-18 07:38:00,38.0,37.0,30.30,NW,304,0.0,0.0,96,0.00,,FEW001,0.00,VWS V14.01,2013-09-18 11:38:00,
2013-09-18 07:39:00,38.1,37.1,30.29,NW,304,0.0,0.0,96,0.00,,FEW001,0.00,VWS V14.01,2013-09-18 11:39:00,
2013-09-18 07:40:00,38.1,37.1,30.29,NW,304,0.0,0.0,96,0.00,,FEW001,0.00,VWS V14.01,2013-09-18 11:40:00,
2013-09-18 07:41:00,37.2,36.2,30.30,NW,304,0.0,0.0,96,0.00,,,0.00,WUHU216VWC,2013-09-18 11:41:00,
2013-09-18 07:42:00,38.3,37.3,30.29,NW,304,0.0,0.0,96,0.00,,FEW001,0.00,VWS V14.01,2013-09-18 11:42:00,
2013-09-18 07:43:00,38.4,37.4,30.30,NW,304,0.0,0.0,96,0.00,,FEW001,0.00,VWS V14.01,2013-09-18 11:43:00,
2013-09-18 07:44:00,38.5,37.5,30.30,NW,304,0.0,0.0,96,0.00,,FEW001,0.00,VWS V14.01,2013-09-18 11:44:00,
2013-09-18 07:45:00,38.7,37.7,30.30,NW,304,0.0,0.0,96,0.00,,FEW020,0.00,VWS V14.01,2013-09-18 11:45:00,
2013-09-18 07:46:00,37.5,36.5,30.30,NW,304,0.0,0.0,96,0.00,,,0.00,WUHU216VWC,2013-09-18 11:46:00,
2013-09-18 07:47:00,38.8,37.8,30.29,NW,304,0.0,0.0,96,0.00,,FEW020,0.00,VWS V14.01,2013-09-18 11:47:00,
2013-09-18 07:48:00,38.9,37.9,30.29,NW,304,0.0,0.0,96,0.00,,FEW020,0.00,VWS V14.01,2013-09-18 11:48:00,
2013-09-18 07:49:00,39.0,38.2,30.30,NW,304,0.0,0.0,97,0.00,,FEW020,0.00,VWS V14.01,2013-09-18 11:49:00,
2013-09-18 07:50:00,39.1,38.3,30.30,NW,304,0.0,0.0,97,0.00,,FEW020,0.00,VWS V14.01,2013-09-18 11:50:00,
2013-09-18 07:51:00,37.8,36.8,30.30,NW,304,0.0,0.0,96,0.00,,,0.00,WUHU216VWC,2013-09-18 11:51:00,
2013-09-18 07:52:00,39.3,38.3,30.30,NW,304,0.0,0.0,96,0.00,,FEW020,0.00,VWS V14.01,2013-09-18 11:52:00,
2013-09-18 07:53:00,39.5,38.5,30.29,NW,304,0.0,0.0,96,0.00,,FEW020,0.00,VWS V14.01,2013-09-18 11:53:00,
2013-09-18 07:54:00,39.6,38.6,30.29,NW,304,0.0,0.0,96,0.00,,FEW020,0.00,VWS V14.01,2013-09-18 11:54:00,
2013-09-18 07:55:00,39.7,38.9,30.29,NW,304,0.0,0.0,97,0.00,,FEW020,0.00,VWS V14.01,2013-09-18 11:55:00,
2013-09-18 07:56:00,38.2,37.2,30.30,NW,304,0.0,0.0,96,0.00,,,0.00,WUHU216VWC,2013-09-18 11:56:00,
2013-09-18 07:57:00,40.0,39.2,30.29,NW,304,0.0,0.0,97,0.00,,FEW020,0.00,VWS V14.01,2013-09-18 11:57:00,
2013-09-18 07:58:00,40.1,39.3,30.29,NW,304,0.0,0.0,97,0.00,,FEW020,0.00,VWS V14.01,2013-09-18 11:58:00,
2013-09-18 07:59:00,40.2,39.4,30.29,NW,304,0.0,0.0,97,0.00,,FEW020,0.00,VWS V14.01,2013-09-18 11:59:00,
2013-09-18 08:00:00,40.4,39.6,30.30,NW,304,0.0,0.0,97,0.00,,FEW020,0.00,VWS V14.01,2013-09-18 12:00:00,
2013-09-18 08:01:00,38.7,37.7,30.29,NW,304,0.0,0.0,96,0.00,,,0.00,WUHU216VWC,2013-09-18 12:01:00,
2013-09-18 08:02:00,40.6,39.8,30.29,NW,304,0.0,0.0,97,0.00,,FEW020,0.00,VWS V14.01,2013-09-18 12:02:00,
2013-09-18 08:03:00,40.6,39.8,30.29,NW,304,0.0,0.0,97,0.00,,FEW020,0.00,VWS V14.01,2013-09-18 12:03:00,
2013-09-18 08:04:00,40.7,39.9,30.30,NW,304,0.0,0.0,97,0.00,,FEW020,0.00,VWS V14.01,2013-09-18 12:04:00,
2013-09-18 08:05:00,40.8,40.0,30.29,NW,304,0.0,0.0,97,0.00,,FEW020,0.00,VWS V14.01,2013-09-18 12:05:00,
2013-09-18 08:06:00,39.2,38.4,30.30,NW,304,0.0,0.0,97,0.00,,,0.00,WUHU216VWC,2013-09-18 12:06:00,
2013-09-18 08:07:00,41.0,40.2,30.29,NW,304,0.0,0.0,97,0.00,,FEW020,0.00,VWS V14.01,2013-09-18 12:07:00,
2013-09-18 08:08:00,41.1,40.3,30.29,NW,304,0.0,0.0,97,0.00,,FEW020,0.00,VWS V14.01,2013-09-18 12:08:00,
2013-09-18 08:09:00,41.3,40.5,30.29,NW,304,0.0,0.0,97,0.00,,FEW020,0.00,VWS V14.01,2013-09-18 12:09:00,
2013-09-18 08:10:00,41.4,40.6,30.29,NW,304,0.0,0.0,97,0.00,,FEW020,0.00,VWS V14.01,2013-09-18 12:10:00,
2013-09-18 08:11:00,39.7,38.9,30.29,NW,304,0.0,0.0,97,0.00,,,0.00,WUHU216VWC,2013-09-18 12:11:00,
2013-09-18 08:12:00,41.7,40.9,30.29,NW,304,0.0,0.0,97,0.00,,FEW020,0.00,VWS V14.01,2013-09-18 12:12:00,
2013-09-18 08:13:00,41.8,41.0,30.29,NW,304,0.0,0.0,97,0.00,,FEW020,0.00,VWS V14.01,2013-09-18 12:13:00,
2013-09-18 08:14:00,42.0,41.2,30.29,NW,304,0.0,0.0,97,0.00,,FEW020,0.00,VWS V14.01,2013-09-18 12:14:00,
2013-09-18 08:15:00,42.1,41.3,30.29,NW,304,0.0,0.0,97,0.00,,FEW020,0.00,VWS V14.01,2013-09-18 12:15:00,
2013-09-18 08:16:00,40.4,39.6,30.29,NW,304,0.0,0.0,97,0.00,,,0.00,WUHU216VWC,2013-09-18 12:16:00,
2013-09-18 08:17:00,42.3,41.5,30.29,NW,304,0.0,0.0,97,0.00,,FEW020,0.00,VWS V14.01,2013-09-18 12:17:00,
2013-09-18 08:18:00,42.4,41.6,30.29,NW,304,0.0,0.0,97,0.00,,FEW020,0.00,VWS V14.01,2013-09-18 12:18:00,
2013-09-18 08:19:00,42.5,41.7,30.29,NW,304,0.0,0.0,97,0.00,,FEW020,0.00,VWS V14.01,2013-09-18 12:19:00,
2013-09-18 08:20:00,42.6,41.8,30.29,NW,304,0.0,0.0,97,0.00,,FEW020,0.00,VWS V14.01,2013-09-18 12:20:00,
2013-09-18 08:21:00,40.8,40.0,30.29,NW,304,0.0,0.0,97,0.00,,,0.00,WUHU216VWC,2013-09-18 12:21:00,
2013-09-18 08:22:00,42.8,42.0,30.29,NW,304,0.0,0.0,97,0.00,,FEW020,0.00,VWS V14.01,2013-09-18 12:22:00,
2013-09-18 08:23:00,42.9,42.1,30.29,NW,304,0.0,0.0,97,0.00,,FEW020,0.00,VWS V14.01,2013-09-18 12:23:00,
2013-09-18 08:24:00,42.9,42.1,30.29,NW,304,0.0,0.0,97,0.00,,FEW020,0.00,VWS V14.01,2013-09-18 12:24:00,
2013-09-18 08:25:00,43.1,42.3,30.29,NW,304,0.0,0.0,97,0.00,,FEW020,0.00,VWS V14.01,2013-09-18 12:25:00,
2013-09-18 08:26:00,41.4,40.6,30.29,NW,304,0.0,0.0,97,0.00,,,0.00,WUHU216VWC,2013-09-18 12:26:00,
2013-09-18 08:27:00,43.2,42.4,30.29,NW,304,0.0,0.0,97,0.00,,FEW020,0.00,VWS V14.01,2013-09-18 12:27:00,
2013-09-18 08:28:00,43.3,42.5,30.29,NW,304,0.0,0.0,97,0.00,,FEW020,0.00,VWS V14.01,2013-09-18 12:28:00,
2013-09-18 08:29:00,43.4,42.6,30.29,NW,304,0.0,0.0,97,0.00,,FEW020,0.00,VWS V14.01,2013-09-18 12:29:00,
2013-09-18 08:30:00,43.5,42.7,30.29,NW,304,0.0,0.0,97,0.00,,FEW020,0.00,VWS V14.01,2013-09-18 12:30:00,
2013-09-18 08:31:00,42.1,41.3,30.29,NW,304,0.0,0.0,97,0.00,,,0.00,WUHU216VWC,2013-09-18 12:31:00,
2013-09-18 08:32:00,43.7,42.9,30.29,NW,304,0.0,0.0,97,0.00,,FEW020,0.00,VWS V14.01,2013-09-18 12:32:00,
2013-09-18 08:33:00,43.9,43.1,30.29,NW,304,0.0,0.0,97,0.00,,FEW020,0.00,VWS V14.01,2013-09-18 12:33:00,
2013-09-18 08:34:00,44.0,43.2,30.29,NW,304,0.0,0.0,97,0.00,,FEW020,0.00,VWS V14.01,2013-09-18 12:34:00,
2013-09-18 08:35:00,44.2,43.4,30.29,NW,304,0.0,0.0,97,0.00,,FEW020,0.00,VWS V14.01,2013-09-18 12:35:00,
2013-09-18 08:36:00,42.6,41.8,30.29,NW,304,0.0,0.0,97,0.00,,,0.00,WUHU216VWC,2013-09-18 12:36:00,
2013-09-18 08:37:00,44.5,43.7,30.29,NW,304,0.0,0.0,97,0.00,,FEW020,0.00,VWS V14.01,2013-09-18 12:37:00,
2013-09-18 08:38:00,44.6,43.8,30.29,NW,304,0.0,0.0,97,0.00,,FEW020,0.00,VWS V14.01,2013-09-18 12:38:00,
2013-09-18 08:39:00,44.7,43.9,30.29,NW,304,0.0,0.0,97,0.00,,FEW020,0.00,VWS V14.01,2013-09-18 12:39:00,
2013-09-18 08:40:00,44.8,44.0,30.29,NW,304,0.0,0.0,97,0.00,,FEW020,0.00,VWS V14.01,2013-09-18 12:40:00,
2013-09-18 08:41:00,43.1,42.3,30.29,NW,304,0.0,0.0,97,0.00,,,0.00,WUHU216VWC,2013-09-18 12:41:00,
2013-09-18 08:42:00,45.0,44.2,30.29,NW,304,0.0,0.0,97,0.00,,FEW020,0.00,VWS V14.01,2013-09-18 12:42:00,
2013-09-18 08:43:00,45.1,44.3,30.29,NW,304,0.0,0.0,97,0.00,,FEW020,0.00,VWS V14.01,2013-09-18 12:43:00,
2013-09-18 08:44:00,45.2,44.4,30.29,NW,304,0.0,0.0,97,0.00,,FEW020,0.00,VWS V14.01,2013-09-18 12:44:00,
2013-09-18 08:45:00,45.3,44.5,30.29,NW,304,0.0,0.0,97,0.00,,CLR,0.00,VWS V14.01,2013-09-18 12:45:00,
2013-09-18 08:46:00,43.5,42.7,30.29,NW,304,0.0,0.0,97,0.00,,,0.00,WUHU216VWC,2013-09-18 12:46:00,
2013-09-18 08:47:00,45.5,44.7,30.29,NW,304,0.0,0.0,97,0.00,,CLR,0.00,VWS V14.01,2013-09-18 12:47:00,
2013-09-18 08:48:00,45.6,44.8,30.29,NW,304,0.0,1.0,97,0.00,,CLR,0.00,VWS V14.01,2013-09-18 12:48:00,
2013-09-18 08:49:00,45.8,45.0,30.28,NW,304,0.0,1.0,97,0.00,,CLR,0.00,VWS V14.01,2013-09-18 12:49:00,
2013-09-18 08:50:00,45.8,45.0,30.28,NW,304,0.0,1.0,97,0.00,,CLR,0.00,VWS V14.01,2013-09-18 12:50:00,
2013-09-18 08:51:00,44.2,43.4,30.28,NW,304,0.0,0.0,97,0.00,,,0.00,WUHU216VWC,2013-09-18 12:51:00,
2013-09-18 08:52:00,46.0,45.2,30.29,NW,304,0.0,0.0,97,0.00,,CLR,0.00,VWS V14.01,2013-09-18 12:52:00,
2013-09-18 08:53:00,46.1,45.3,30.28,NW,304,0.0,0.0,97,0.00,,CLR,0.00,VWS V14.01,2013-09-18 12:53:00,
2013-09-18 08:54:00,46.2,45.4,30.28,NW,304,0.0,0.0,97,0.00,,CLR,0.00,VWS V14.01,2013-09-18 12:54:00,
2013-09-18 08:55:00,46.3,45.5,30.28,NW,304,0.0,0.0,97,0.00,,CLR,0.00,VWS V14.01,2013-09-18 12:55:00,
2013-09-18 08:56:00,44.8,44.0,30.29,NW,304,0.0,0.0,97,0.00,,,0.00,WUHU216VWC,2013-09-18 12:56:00,
2013-09-18 08:57:00,46.5,45.7,30.28,NW,304,0.0,0.0,97,0.00,,CLR,0.00,VWS V14.01,2013-09-18 12:57:00,
2013-09-18 08:58:00,46.6,45.8,30.28,NW,304,0.0,0.0,97,0.00,,CLR,0.00,VWS V14.01,2013-09-18 12:58:00,
2013-09-18 08:59:00,46.8,46.0,30.28,NW,304,0.0,0.0,97,0.00,,CLR,0.00,VWS V14.01,2013-09-18 12:59:00,
2013-09-18 09:00:00,46.8,46.0,30.28,NW,304,0.0,0.0,97,0.00,,CLR,0.00,VWS V14.01,2013-09-18 13:00:00,
2013-09-18 09:01:00,45.3,44.5,30.29,NW,304,0.0,0.0,97,0.00,,,0.00,WUHU216VWC,2013-09-18 13:01:00,
2013-09-18 09:02:00,47.1,46.3,30.28,NW,304,0.0,1.0,97,0.00,,CLR,0.00,VWS V14.01,2013-09-18 13:02:00,
2013-09-18 09:03:00,47.2,46.4,30.28,NW,304,0.0,1.0,97,0.00,,CLR,0.00,VWS V14.01,2013-09-18 13:03:00,
2013-09-18 09:04:00,47.3,46.5,30.28,NW,304,0.0,0.0,97,0.00,,CLR,0.00,VWS V14.01,2013-09-18 13:04:00,
2013-09-18 09:05:00,47.4,46.6,30.28,NW,304,0.0,0.0,97,0.00,,CLR,0.00,VWS V14.01,2013-09-18 13:05:00,
2013-09-18 09:06:00,45.8,45.0,30.29,NW,304,0.0,1.0,97,0.00,,,0.00,WUHU216VWC,2013-09-18 13:06:00,
2013-09-18 09:07:00,47.7,46.9,30.28,NW,304,0.0,0.0,97,0.00,,CLR,0.00,VWS V14.01,2013-09-18 13:07:00,
2013-09-18 09:08:00,47.8,47.0,30.28,NW,304,0.0,0.0,97,0.00,,CLR,0.00,VWS V14.01,2013-09-18 13:08:00,
2013-09-18 09:09:00,47.9,47.1,30.28,NW,304,0.0,1.0,97,0.00,,CLR,0.00,VWS V14.01,2013-09-18 13:09:00,
2013-09-18 09:10:00,48.0,47.2,30.28,NW,304,0.0,1.0,97,0.00,,CLR,0.00,VWS V14.01,2013-09-18 13:10:00,
2013-09-18 09:11:00,46.3,45.5,30.28,NW,304,0.0,1.0,97,0.00,,,0.00,WUHU216VWC,2013-09-18 13:11:00,
2013-09-18 09:12:00,48.3,47.5,30.28,NW,304,0.0,1.0,97,0.00,,CLR,0.00,VWS V14.01,2013-09-18 13:12:00,
2013-09-18 09:13:00,48.5,47.7,30.28,NW,304,0.0,1.0,97,0.00,,CLR,0.00,VWS V14.01,2013-09-18 13:13:00,
2013-09-18 09:14:00,48.6,47.8,30.28,NW,304,0.0,0.0,97,0.00,,CLR,0.00,VWS V14.01,2013-09-18 13:14:00,
2013-09-18 09:15:00,48.7,47.9,30.28,NW,304,0.0,0.0,97,0.00,,CLR,0.00,VWS V14.01,2013-09-18 13:15:00,
2013-09-18 09:16:00,46.8,46.0,30.28,NW,304,0.0,1.0,97,0.00,,,0.00,WUHU216VWC,2013-09-18 13:16:00,
2013-09-18 09:17:00,48.9,48.1,30.28,NW,304,0.0,0.0,97,0.00,,CLR,0.00,VWS V14.01,2013-09-18 13:17:00,
2013-09-18 09:18:00,49.1,48.3,30.28,NW,304,0.0,0.0,97,0.00,,CLR,0.00,VWS V14.01,2013-09-18 13:18:00,
2013-09-18 09:19:00,49.2,48.1,30.28,NW,304,0.0,0.0,96,0.00,,CLR,0.00,VWS V14.01,2013-09-18 13:19:00,
2013-09-18 09:20:00,49.4,48.3,30.28,NW,304,0.0,0.0,96,0.00,,CLR,0.00,VWS V14.01,2013-09-18 13:20:00,
2013-09-18 09:21:00,47.4,46.6,30.28,NW,304,0.0,1.0,97,0.00,,,0.00,WUHU216VWC,2013-09-18 13:21:00,
2013-09-18 09:22:00,49.7,48.6,30.28,NW,304,1.0,1.0,96,0.00,,CLR,0.00,VWS V14.01,2013-09-18 13:22:00,
2013-09-18 09:23:00,49.9,48.5,30.28,WNW,303,1.0,1.0,95,0.00,,CLR,0.00,VWS V14.01,2013-09-18 13:23:00,
2013-09-18 09:24:00,50.0,48.3,30.28,WNW,303,0.0,1.0,94,0.00,,CLR,0.00,VWS V14.01,2013-09-18 13:24:00,
2013-09-18 09:25:00,50.2,48.3,30.28,WNW,303,1.0,1.0,93,0.00,,CLR,0.00,VWS V14.01,2013-09-18 13:25:00,
2013-09-18 09:26:00,48.1,47.3,30.28,NW,304,0.0,1.0,97,0.00,,,0.00,WUHU216VWC,2013-09-18 13:26:00,
2013-09-18 09:27:00,50.6,48.7,30.28,WNW,303,0.0,1.0,93,0.00,,CLR,0.00,VWS V14.01,2013-09-18 13:27:00,
2013-09-18 09:28:00,50.7,48.5,30.28,WNW,303,0.0,1.0,92,0.00,,CLR,0.00,VWS V14.01,2013-09-18 13:28:00,
2013-09-18 09:29:00,50.9,48.7,30.28,WNW,303,0.0,1.0,92,0.00,,CLR,0.00,VWS V14.01,2013-09-18 13:29:00,
2013-09-18 09:30:00,51.0,48.5,30.28,WNW,303,0.0,1.0,91,0.00,,CLR,0.00,VWS V14.01,2013-09-18 13:30:00,
2013-09-18 09:31:00,48.7,47.9,30.28,NW,304,0.0,1.0,97,0.00,,,0.00,WUHU216VWC,2013-09-18 13:31:00,
2013-09-18 09:32:00,51.3,48.5,30.28,WNW,303,0.0,0.0,90,0.00,,CLR,0.00,VWS V14.01,2013-09-18 13:32:00,
2013-09-18 09:33:00,51.5,48.4,30.28,WNW,303,0.0,0.0,89,0.00,,CLR,0.00,VWS V14.01,2013-09-18 13:33:00,
2013-09-18 09:34:00,51.7,48.6,30.28,WNW,303,0.0,1.0,89,0.00,,CLR,0.00,VWS V14.01,2013-09-18 13:34:00,
2013-09-18 09:35:00,51.8,48.7,30.28,WNW,303,0.0,1.0,89,0.00,,CLR,0.00,VWS V14.01,2013-09-18 13:35:00,
2013-09-18 09:36:00,49.4,48.3,30.28,NW,304,0.0,1.0,96,0.00,,,0.00,WUHU216VWC,2013-09-18 13:36:00,
2013-09-18 09:37:00,52.1,48.7,30.28,WNW,303,0.0,1.0,88,0.00,,CLR,0.00,VWS V14.01,2013-09-18 13:37:00,
2013-09-18 09:38:00,52.3,48.9,30.28,WNW,303,0.0,0.0,88,0.00,,CLR,0.00,VWS V14.01,2013-09-18 13:38:00,
2013-09-18 09:39:00,52.5,49.0,30.28,WNW,303,0.0,0.0,88,0.00,,CLR,0.00,VWS V14.01,2013-09-18 13:39:00,
2013-09-18 09:40:00,52.6,49.2,30.28,WNW,303,0.0,0.0,88,0.00,,CLR,0.00,VWS V14.01,2013-09-18 13:40:00,
2013-09-18 09:41:00,50.3,48.4,30.28,WNW,303,0.0,1.0,93,0.00,,,0.00,WUHU216VWC,2013-09-18 13:41:00,
2013-09-18 09:42:00,52.8,49.3,30.28,WNW,303,0.0,1.0,88,0.00,,CLR,0.00,VWS V14.01,2013-09-18 13:42:00,
2013-09-18 09:43:00,52.9,49.5,30.28,WNW,303,0.0,1.0,88,0.00,,CLR,0.00,VWS V14.01,2013-09-18 13:43:00,
2013-09-18 09:44:00,53.0,49.5,30.28,WNW,303,0.0,1.0,88,0.00,,CLR,0.00,VWS V14.01,2013-09-18 13:44:00,
2013-09-18 09:45:00,53.1,49.7,30.27,WNW,303,0.0,1.0,88,0.00,,CLR,0.00,VWS V14.01,2013-09-18 13:45:00,
2013-09-18 09:46:00,51.1,48.6,30.28,WNW,303,0.0,1.0,91,0.00,,,0.00,WUHU216VWC,2013-09-18 13:46:00,
2013-09-18 09:47:00,53.3,49.8,30.28,WNW,303,0.0,1.0,88,0.00,,CLR,0.00,VWS V14.01,2013-09-18 13:47:00,
2013-09-18 09:48:00,53.4,49.6,30.28,WNW,303,0.0,2.0,87,0.00,,CLR,0.00,VWS V14.01,2013-09-18 13:48:00,
2013-09-18 09:49:00,53.6,49.2,30.28,WNW,303,0.0,2.0,85,0.00,,CLR,0.00,VWS V14.01,2013-09-18 13:49:00,
2013-09-18 09:50:00,53.7,49.0,30.27,WNW,303,0.0,2.0,84,0.00,,CLR,0.00,VWS V14.01,2013-09-18 13:50:00,
2013-09-18 09:51:00,51.8,48.7,30.28,WNW,303,0.0,1.0,89,0.00,,,0.00,WUHU216VWC,2013-09-18 13:51:00,
2013-09-18 09:52:00,54.0,49.3,30.27,WNW,303,0.0,2.0,84,0.00,,CLR,0.00,VWS V14.01,2013-09-18 13:52:00,
2013-09-18 09:53:00,54.1,49.1,30.27,WNW,303,0.0,2.0,83,0.00,,CLR,0.00,VWS V14.01,2013-09-18 13:53:00,
2013-09-18 09:54:00,54.3,49.3,30.27,WNW,303,0.0,2.0,83,0.00,,CLR,0.00,VWS V14.01,2013-09-18 13:54:00,
2013-09-18 09:55:00,54.4,49.0,30.27,WNW,303,2.0,2.0,82,0.00,,CLR,0.00,VWS V14.01,2013-09-18 13:55:00,
2013-09-18 09:56:00,52.6,49.2,30.28,WNW,303,0.0,1.0,88,0.00,,,0.00,WUHU216VWC,2013-09-18 13:56:00,
2013-09-18 09:57:00,54.7,49.7,30.27,WNW,303,1.0,2.0,83,0.00,,CLR,0.00,VWS V14.01,2013-09-18 13:57:00,
2013-09-18 09:58:00,54.9,49.5,30.27,West,274,0.0,2.0,82,0.00,,CLR,0.00,VWS V14.01,2013-09-18 13:58:00,
2013-09-18 09:59:00,55.0,49.3,30.27,West,274,0.0,2.0,81,0.00,,CLR,0.00,VWS V14.01,2013-09-18 13:59:00,
2013-09-18 10:00:00,55.2,49.5,30.27,West,274,0.0,2.0,81,0.00,,CLR,0.00,VWS V14.01,2013-09-18 14:00:00,
2013-09-18 10:01:00,53.1,49.6,30.28,WNW,303,0.0,1.0,88,0.00,,,0.00,WUHU216VWC,2013-09-18 14:01:00,
2013-09-18 10:02:00,55.4,49.3,30.27,SW,232,1.0,1.0,80,0.00,,CLR,0.00,VWS V14.01,2013-09-18 14:02:00,
2013-09-18 10:03:00,55.5,49.4,30.27,SSW,202,0.0,2.0,80,0.00,,CLR,0.00,VWS V14.01,2013-09-18 14:03:00,
2013-09-18 10:04:00,55.7,49.6,30.27,SSW,202,0.0,2.0,80,0.00,,CLR,0.00,VWS V14.01,2013-09-18 14:04:00,
2013-09-18 10:05:00,55.7,49.0,30.27,SSW,202,0.0,2.0,78,0.00,,CLR,0.00,VWS V14.01,2013-09-18 14:05:00,
2013-09-18 10:06:00,53.7,49.0,30.27,WNW,303,0.0,2.0,84,0.00,,,0.00,WUHU216VWC,2013-09-18 14:06:00,
2013-09-18 10:07:00,56.1,49.3,30.27,SSW,202,0.0,0.0,78,0.00,,CLR,0.00,VWS V14.01,2013-09-18 14:07:00,
2013-09-18 10:08:00,56.1,49.0,30.27,SSW,202,1.0,1.0,77,0.00,,CLR,0.00,VWS V14.01,2013-09-18 14:08:00,
2013-09-18 10:09:00,56.3,48.5,30.27,SSW,202,0.0,1.0,75,0.00,,CLR,0.00,VWS V14.01,2013-09-18 14:09:00,
2013-09-18 10:10:00,56.4,48.6,30.27,WSW,253,3.0,3.0,75,0.00,,CLR,0.00,VWS V14.01,2013-09-18 14:10:00,
2013-09-18 10:11:00,54.5,49.1,30.27,WNW,303,0.0,2.0,82,0.00,,,0.00,WUHU216VWC,2013-09-18 14:11:00,
2013-09-18 10:12:00,56.7,48.5,30.27,WSW,252,1.0,3.0,74,0.00,,CLR,0.00,VWS V14.01,2013-09-18 14:12:00,
2013-09-18 10:13:00,56.7,48.2,30.27,SSW,196,0.0,3.0,73,0.00,,CLR,0.00,VWS V14.01,2013-09-18 14:13:00,
2013-09-18 10:14:00,56.9,48.3,30.27,SW,232,0.0,2.0,73,0.00,,CLR,0.00,VWS V14.01,2013-09-18 14:14:00,
2013-09-18 10:15:00,57.0,48.8,30.27,West,263,1.0,2.0,74,0.00,,CLR,0.00,VWS V14.01,2013-09-18 14:15:00,
2013-09-18 10:16:00,55.2,49.1,30.27,West,274,0.0,2.0,80,0.00,,,0.00,WUHU216VWC,2013-09-18 14:16:00,
2013-09-18 10:17:00,57.3,49.1,30.26,West,263,0.0,2.0,74,0.00,,CLR,0.00,VWS V14.01,2013-09-18 14:17:00,
2013-09-18 10:18:00,57.5,48.9,30.27,West,263,0.0,2.0,73,0.00,,CLR,0.00,VWS V14.01,2013-09-18 14:18:00,
2013-09-18 10:19:00,57.6,48.7,30.27,West,263,0.0,0.0,72,0.00,,CLR,0.00,VWS V14.01,2013-09-18 14:19:00,
2013-09-18 10:20:00,57.7,48.4,30.26,West,263,1.0,1.0,71,0.00,,CLR,0.00,VWS V14.01,2013-09-18 14:20:00,
2013-09-18 10:21:00,55.8,49.1,30.27,SSW,202,0.0,2.0,78,0.00,,,0.00,WUHU216VWC,2013-09-18 14:21:00,
2013-09-18 10:22:00,57.9,48.2,30.26,West,280,1.0,2.0,70,0.00,,CLR,0.00,VWS V14.01,2013-09-18 14:22:00,
2013-09-18 10:23:00,58.0,47.9,30.27,West,280,0.0,2.0,69,0.00,,CLR,0.00,VWS V14.01,2013-09-18 14:23:00,
2013-09-18 10:24:00,58.2,48.1,30.27,West,280,0.0,2.0,69,0.00,,CLR,0.00,VWS V14.01,2013-09-18 14:24:00,
2013-09-18 10:25:00,58.3,48.6,30.26,West,280,0.0,2.0,70,0.00,,CLR,0.00,VWS V14.01,2013-09-18 14:25:00,
2013-09-18 10:26:00,56.4,48.2,30.27,WSW,250,2.0,3.0,74,0.00,,,0.00,WUHU216VWC,2013-09-18 14:26:00,
2013-09-18 10:27:00,58.5,48.8,30.26,West,280,0.0,1.0,70,0.00,,CLR,0.00,VWS V14.01,2013-09-18 14:27:00,
2013-09-18 10:28:00,58.6,48.9,30.26,West,280,1.0,1.0,70,0.00,,CLR,0.00,VWS V14.01,2013-09-18 14:28:00,
2013-09-18 10:29:00,58.7,48.6,30.26,West,267,0.0,1.0,69,0.00,,CLR,0.00,VWS V14.01,2013-09-18 14:29:00,
2013-09-18 10:30:00,58.8,49.0,30.26,West,267,1.0,1.0,70,0.00,,CLR,0.00,VWS V14.01,2013-09-18 14:30:00,
2013-09-18 10:31:00,57.1,48.5,30.26,West,263,0.0,3.0,73,0.00,,,0.00,WUHU216VWC,2013-09-18 14:31:00,
2013-09-18 10:32:00,59.0,49.2,30.26,West,267,0.0,2.0,70,0.00,,CLR,0.00,VWS V14.01,2013-09-18 14:32:00,
2013-09-18 10:33:00,59.2,49.4,30.26,West,267,0.0,2.0,70,0.00,,CLR,0.00,VWS V14.01,2013-09-18 14:33:00,
2013-09-18 10:34:00,59.3,49.1,30.26,West,267,0.0,2.0,69,0.00,,CLR,0.00,VWS V14.01,2013-09-18 14:34:00,
2013-09-18 10:35:00,59.4,50.0,30.26,West,267,0.0,0.0,71,0.00,,CLR,0.00,VWS V14.01,2013-09-18 14:35:00,
2013-09-18 10:36:00,57.7,48.0,30.26,East,91,0.0,3.0,70,0.00,,,0.00,WUHU216VWC,2013-09-18 14:36:00,
2013-09-18 10:37:00,59.5,50.1,30.26,West,267,0.0,0.0,71,0.00,,CLR,0.00,VWS V14.01,2013-09-18 14:37:00,
2013-09-18 10:38:00,59.6,49.8,30.26,West,267,0.0,0.0,70,0.00,,CLR,0.00,VWS V14.01,2013-09-18 14:38:00,
2013-09-18 10:39:00,59.7,49.5,30.26,WSW,238,3.0,5.0,69,0.00,,CLR,0.00,VWS V14.01,2013-09-18 14:39:00,
2013-09-18 10:40:00,59.7,47.9,30.26,WSW,248,0.0,5.0,65,0.00,,CLR,0.00,VWS V14.01,2013-09-18 14:40:00,
2013-09-18 10:41:00,58.4,48.7,30.26,West,280,0.0,2.0,70,0.00,,,0.00,WUHU216VWC,2013-09-18 14:41:00,
2013-09-18 10:42:00,60.0,47.4,30.26,West,261,2.0,5.0,63,0.00,,CLR,0.00,VWS V14.01,2013-09-18 14:42:00,
2013-09-18 10:43:00,60.1,47.5,30.26,WSW,252,0.0,3.0,63,0.00,,CLR,0.00,VWS V14.01,2013-09-18 14:43:00,
2013-09-18 10:44:00,60.2,47.6,30.26,WSW,252,0.0,3.0,63,0.00,,CLR,0.00,VWS V14.01,2013-09-18 14:44:00,
2013-09-18 10:45:00,60.3,47.7,30.26,WSW,252,0.0,3.0,63,0.00,,CLR,0.00,VWS V14.01,2013-09-18 14:45:00,
2013-09-18 10:46:00,58.9,49.1,30.26,West,267,2.0,2.0,70,0.00,,,0.00,WUHU216VWC,2013-09-18 14:46:00,
2013-09-18 10:47:00,60.5,48.7,30.26,WSW,254,1.0,2.0,65,0.00,,CLR,0.00,VWS V14.01,2013-09-18 14:47:00,
2013-09-18 10:48:00,60.7,49.3,30.26,WSW,254,1.0,2.0,66,0.00,,CLR,0.00,VWS V14.01,2013-09-18 14:48:00,
2013-09-18 10:49:00,60.7,48.5,30.26,WSW,254,2.0,3.0,64,0.00,,CLR,0.00,VWS V14.01,2013-09-18 14:49:00,
2013-09-18 10:50:00,60.8,49.4,30.26,WSW,254,0.0,3.0,66,0.00,,CLR,0.00,VWS V14.01,2013-09-18 14:50:00,
2013-09-18 10:51:00,59.4,49.6,30.26,West,267,0.0,2.0,70,0.00,,,0.00,WUHU216VWC,2013-09-18 14:51:00,
2013-09-18 10:52:00,61.0,48.8,30.26,WSW,254,0.0,3.0,64,0.00,,CLR,0.00,VWS V14.01,2013-09-18 14:52:00,
2013-09-18 10:53:00,61.1,48.4,30.26,WSW,254,0.0,2.0,63,0.00,,CLR,0.00,VWS V14.01,2013-09-18 14:53:00,
2013-09-18 10:54:00,61.2,48.1,30.26,WSW,254,2.0,2.0,62,0.00,,CLR,0.00,VWS V14.01,2013-09-18 14:54:00,
2013-09-18 10:55:00,61.3,49.0,30.26,WSW,254,0.0,2.0,64,0.00,,CLR,0.00,VWS V14.01,2013-09-18 14:55:00,
2013-09-18 10:56:00,59.9,48.1,30.26,WSW,248,0.0,5.0,65,0.00,,,0.00,WUHU216VWC,2013-09-18 14:56:00,
2013-09-18 10:57:00,61.4,49.5,30.26,WSW,254,0.0,2.0,65,0.00,,CLR,0.00,VWS V14.01,2013-09-18 14:57:00,
2013-09-18 10:58:00,61.4,48.7,30.26,WSW,254,0.0,1.0,63,0.00,,CLR,0.00,VWS V14.01,2013-09-18 14:58:00,
2013-09-18 10:59:00,61.5,49.2,30.26,WSW,254,0.0,1.0,64,0.00,,CLR,0.00,VWS V14.01,2013-09-18 14:59:00,
2013-09-18 11:00:00,61.5,49.6,30.26,WSW,252,2.0,2.0,65,0.00,,CLR,0.00,VWS V14.01,2013-09-18 15:00:00,
2013-09-18 11:01:00,60.4,48.2,30.26,WSW,252,0.0,5.0,64,0.00,,,0.00,WUHU216VWC,2013-09-18 15:01:00,
2013-09-18 11:02:00,61.6,48.5,30.25,WSW,252,1.0,3.0,62,0.00,,CLR,0.00,VWS V14.01,2013-09-18 15:02:00,
2013-09-18 11:03:00,61.6,48.9,30.25,WSW,252,1.0,3.0,63,0.00,,CLR,0.00,VWS V14.01,2013-09-18 15:03:00,
2013-09-18 11:04:00,61.7,47.7,30.25,WSW,252,0.0,3.0,60,0.00,,CLR,0.00,VWS V14.01,2013-09-18 15:04:00,
2013-09-18 11:05:00,61.7,47.2,30.25,WSW,252,2.0,3.0,59,0.00,,CLR,0.00,VWS V14.01,2013-09-18 15:05:00,
2013-09-18 11:06:00,60.8,48.6,30.26,WSW,254,1.0,5.0,64,0.00,,,0.00,WUHU216VWC,2013-09-18 15:06:00,
2013-09-18 11:07:00,61.8,48.7,30.25,WSW,252,2.0,3.0,62,0.00,,CLR,0.00,VWS V14.01,2013-09-18 15:07:00,
2013-09-18 11:08:00,61.9,48.8,30.25,WSW,254,0.0,3.0,62,0.00,,CLR,0.00,VWS V14.01,2013-09-18 15:08:00,
2013-09-18 11:09:00,62.0,48.8,30.25,WSW,240,3.0,4.0,62,0.00,,CLR,0.00,VWS V14.01,2013-09-18 15:09:00,
2013-09-18 11:10:00,62.1,48.5,30.25,WSW,253,0.0,4.0,61,0.00,,CLR,0.00,VWS V14.01,2013-09-18 15:10:00,
2013-09-18 11:11:00,61.3,49.0,30.26,WSW,254,0.0,3.0,64,0.00,,,0.00,WUHU216VWC,2013-09-18 15:11:00,
2013-09-18 11:12:00,62.2,49.0,30.25,WSW,257,0.0,4.0,62,0.00,,CLR,0.00,VWS V14.01,2013-09-18 15:12:00,
2013-09-18 11:13:00,62.4,48.3,30.25,WSW,257,0.0,1.0,60,0.00,,CLR,0.00,VWS V14.01,2013-09-18 15:13:00,
2013-09-18 11:14:00,62.4,48.8,30.25,WSW,257,0.0,1.0,61,0.00,,CLR,0.00,VWS V14.01,2013-09-18 15:14:00,
2013-09-18 11:15:00,62.4,48.8,30.25,WSW,257,0.0,0.0,61,0.00,,CLR,0.00,VWS V14.01,2013-09-18 15:15:00,
2013-09-18 11:16:00,61.5,49.6,30.25,WSW,252,1.0,3.0,65,0.00,,,0.00,WUHU216VWC,2013-09-18 15:16:00,
2013-09-18 11:17:00,62.5,49.8,30.25,SW,217,0.0,0.0,63,0.00,,CLR,0.00,VWS V14.01,2013-09-18 15:17:00,
2013-09-18 11:18:00,62.5,49.8,30.25,SW,217,0.0,0.0,63,0.00,,CLR,0.00,VWS V14.01,2013-09-18 15:18:00,
2013-09-18 11:19:00,62.5,49.3,30.25,SW,217,0.0,0.0,62,0.00,,CLR,0.00,VWS V14.01,2013-09-18 15:19:00,
2013-09-18 11:20:00,62.5,49.8,30.25,SW,217,0.0,0.0,63,0.00,,CLR,0.00,VWS V14.01,2013-09-18 15:20:00,
2013-09-18 11:21:00,61.8,47.3,30.25,WSW,252,2.0,3.0,59,0.00,,,0.00,WUHU216VWC,2013-09-18 15:21:00,
2013-09-18 11:22:00,62.5,49.8,30.25,SW,216,0.0,2.0,63,0.00,,CLR,0.00,VWS V14.01,2013-09-18 15:22:00,
2013-09-18 11:23:00,62.6,49.8,30.25,WSW,242,0.0,2.0,63,0.00,,CLR,0.00,VWS V14.01,2013-09-18 15:23:00,
2013-09-18 11:24:00,62.6,49.8,30.25,WSW,242,0.0,2.0,63,0.00,,CLR,0.00,VWS V14.01,2013-09-18 15:24:00,
2013-09-18 11:25:00,62.7,49.1,30.25,WSW,242,1.0,2.0,61,0.00,,CLR,0.00,VWS V14.01,2013-09-18 15:25:00,
2013-09-18 11:26:00,62.2,48.2,30.25,WSW,256,0.0,4.0,60,0.00,,,0.00,WUHU216VWC,2013-09-18 15:26:00,
2013-09-18 11:27:00,62.9,48.4,30.25,West,279,1.0,1.0,59,0.00,,CLR,0.00,VWS V14.01,2013-09-18 15:27:00,
2013-09-18 11:28:00,63.0,49.4,30.25,West,279,0.0,1.0,61,0.00,,CLR,0.00,VWS V14.01,2013-09-18 15:28:00,
2013-09-18 11:29:00,63.1,49.9,30.24,WNW,282,3.0,3.0,62,0.00,,CLR,0.00,VWS V14.01,2013-09-18 15:29:00,
2013-09-18 11:30:00,63.2,49.5,30.24,WSW,252,0.0,3.0,61,0.00,,CLR,0.00,VWS V14.01,2013-09-18 15:30:00,
2013-09-18 11:31:00,62.4,48.8,30.25,WSW,257,0.0,4.0,61,0.00,,,0.00,WUHU216VWC,2013-09-18 15:31:00,
2013-09-18 11:32:00,63.3,47.3,30.24,WSW,252,0.0,3.0,56,0.00,,CLR,0.00,VWS V14.01,2013-09-18 15:32:00,
2013-09-18 11:33:00,63.4,47.5,30.24,WSW,252,0.0,1.0,56,0.00,,CLR,0.00,VWS V14.01,2013-09-18 15:33:00,
2013-09-18 11:34:00,63.5,48.9,30.24,WSW,252,2.0,2.0,59,0.00,,CLR,0.00,VWS V14.01,2013-09-18 15:34:00,
2013-09-18 11:35:00,63.6,49.0,30.24,WSW,258,1.0,3.0,59,0.00,,CLR,0.00,VWS V14.01,2013-09-18 15:35:00,
2013-09-18 11:36:00,62.5,49.3,30.25,SW,216,2.0,4.0,62,0.00,,,0.00,WUHU216VWC,2013-09-18 15:36:00,
2013-09-18 11:37:00,63.8,48.8,30.24,West,260,0.0,3.0,58,0.00,,CLR,0.00,VWS V14.01,2013-09-18 15:37:00,
2013-09-18 11:38:00,63.9,47.9,30.24,West,260,0.0,3.0,56,0.00,,CLR,0.00,VWS V14.01,2013-09-18 15:38:00,
2013-09-18 11:39:00,63.9,48.4,30.24,West,259,2.0,3.0,57,0.00,,CLR,0.00,VWS V14.01,2013-09-18 15:39:00,
2013-09-18 11:40:00,64.0,48.5,30.24,West,259,2.0,3.0,57,0.00,,CLR,0.00,VWS V14.01,2013-09-18 15:40:00,
2013-09-18 11:41:00,62.7,48.6,30.25,SW,218,0.0,2.0,60,0.00,,,0.00,WUHU216VWC,2013-09-18 15:41:00,
2013-09-18 11:42:00,64.2,48.2,30.24,WSW,254,1.0,3.0,56,0.00,,CLR,0.00,VWS V14.01,2013-09-18 15:42:00,
2013-09-18 11:43:00,64.4,48.8,30.24,WSW,254,0.0,2.0,57,0.00,,CLR,0.00,VWS V14.01,2013-09-18 15:43:00,
2013-09-18 11:44:00,64.5,49.0,30.24,West,261,2.0,2.0,57,0.00,,CLR,0.00,VWS V14.01,2013-09-18 15:44:00,
2013-09-18 11:45:00,64.6,49.5,30.24,West,261,0.0,2.0,58,0.00,,CLR,0.00,VWS V14.01,2013-09-18 15:45:00,
2013-09-18 11:46:00,63.2,49.5,30.24,WSW,252,0.0,3.0,61,0.00,,,0.00,WUHU216VWC,2013-09-18 15:46:00,
2013-09-18 11:47:00,64.7,48.7,30.24,West,261,1.0,2.0,56,0.00,,CLR,0.00,VWS V14.01,2013-09-18 15:47:00,
2013-09-18 11:48:00,64.8,48.3,30.24,West,261,0.0,2.0,55,0.00,,CLR,0.00,VWS V14.01,2013-09-18 15:48:00,
2013-09-18 11:49:00,64.8,48.3,30.24,West,261,0.0,1.0,55,0.00,,CLR,0.00,VWS V14.01,2013-09-18 15:49:00,
2013-09-18 11:50:00,64.8,48.8,30.23,West,261,0.0,1.0,56,0.00,,CLR,0.00,VWS V14.01,2013-09-18 15:50:00,
2013-09-18 11:51:00,64.8,48.8,30.24,WNW,292,1.0,2.0,56,0.00,,CLR,0.00,VWS V14.01,2013-09-18 15:51:00,
2013-09-18 11:52:00,63.7,49.1,30.24,West,260,1.0,3.0,59,0.00,,,0.00,WUHU216VWC,2013-09-18 15:52:00,
2013-09-18 11:53:00,64.8,49.7,30.24,WNW,292,0.0,2.0,58,0.00,,CLR,0.00,VWS V14.01,2013-09-18 15:53:00,
2013-09-18 11:54:00,64.9,49.3,30.23,WNW,292,1.0,2.0,57,0.00,,CLR,0.00,VWS V14.01,2013-09-18 15:54:00,
2013-09-18 11:55:00,64.9,49.3,30.23,WNW,292,1.0,2.0,57,0.00,,CLR,0.00,VWS V14.01,2013-09-18 15:55:00,
2013-09-18 11:56:00,65.0,49.4,30.23,WNW,292,3.0,3.0,57,0.00,,CLR,0.00,VWS V14.01,2013-09-18 15:56:00,
2013-09-18 11:57:00,64.1,49.0,30.24,WSW,254,1.0,3.0,58,0.00,,,0.00,WUHU216VWC,2013-09-18 15:57:00,
2013-09-18 11:58:00,65.1,49.5,30.23,WNW,292,0.0,3.0,57,0.00,,CLR,0.00,VWS V14.01,2013-09-18 15:58:00,
2013-09-18 11:59:00,65.2,49.1,30.23,WNW,292,0.0,3.0,56,0.00,,CLR,0.00,VWS V14.01,2013-09-18 15:59:00,
2013-09-18 12:00:00,65.3,49.7,30.23,WNW,292,0.0,3.0,57,0.00,,CLR,0.00,VWS V14.01,2013-09-18 16:00:00,
2013-09-18 12:01:00,64.6,48.6,30.24,West,261,1.0,3.0,56,0.00,,,0.00,WUHU216VWC,2013-09-18 16:01:00,
2013-09-18 12:02:00,65.5,50.3,30.23,WNW,292,0.0,1.0,58,0.00,,CLR,0.00,VWS V14.01,2013-09-18 16:02:00,
2013-09-18 12:03:00,65.5,50.3,30.23,WNW,292,0.0,1.0,58,0.00,,CLR,0.00,VWS V14.01,2013-09-18 16:03:00,
2013-09-18 12:04:00,65.6,49.5,30.23,WNW,292,0.0,1.0,56,0.00,,CLR,0.00,VWS V14.01,2013-09-18 16:04:00,
2013-09-18 12:05:00,65.7,49.6,30.23,WNW,292,0.0,0.0,56,0.00,,CLR,0.00,VWS V14.01,2013-09-18 16:05:00,
2013-09-18 12:06:00,64.8,48.8,30.23,West,261,0.0,3.0,56,0.00,,,0.00,WUHU216VWC,2013-09-18 16:06:00,
2013-09-18 12:07:00,65.9,48.8,30.23,WNW,292,0.0,1.0,54,0.00,,CLR,0.00,VWS V14.01,2013-09-18 16:07:00,
2013-09-18 12:08:00,66.0,49.9,30.23,WNW,292,0.0,1.0,56,0.00,,CLR,0.00,VWS V14.01,2013-09-18 16:08:00,
2013-09-18 12:09:00,66.1,50.0,30.23,WNW,292,0.0,1.0,56,0.00,,CLR,0.00,VWS V14.01,2013-09-18 16:09:00,
2013-09-18 12:10:00,66.2,50.1,30.23,WNW,292,0.0,1.0,56,0.00,,CLR,0.00,VWS V14.01,2013-09-18 16:10:00,
2013-09-18 12:11:00,64.9,49.3,30.23,WNW,292,1.0,2.0,57,0.00,,,0.00,WUHU216VWC,2013-09-18 16:11:00,
2013-09-18 12:12:00,66.3,50.2,30.23,WNW,292,0.0,0.0,56,0.00,,CLR,0.00,VWS V14.01,2013-09-18 16:12:00,
2013-09-18 12:13:00,66.3,49.2,30.22,WNW,292,0.0,1.0,54,0.00,,CLR,0.00,VWS V14.01,2013-09-18 16:13:00,
2013-09-18 12:14:00,66.3,50.2,30.23,WNW,292,0.0,1.0,56,0.00,,CLR,0.00,VWS V14.01,2013-09-18 16:14:00,
2013-09-18 12:15:00,66.4,49.3,30.23,WNW,292,0.0,1.0,54,0.00,,CLR,0.00,VWS V14.01,2013-09-18 16:15:00,
2013-09-18 12:16:00,65.4,49.8,30.23,WNW,292,0.0,3.0,57,0.00,,,0.00,WUHU216VWC,2013-09-18 16:16:00,
2013-09-18 12:17:00,66.5,49.4,30.22,WNW,292,1.0,1.0,54,0.00,,CLR,0.00,VWS V14.01,2013-09-18 16:17:00,
2013-09-18 12:18:00,66.6,48.4,30.22,WNW,293,1.0,1.0,52,0.00,,CLR,0.00,VWS V14.01,2013-09-18 16:18:00,
2013-09-18 12:19:00,66.7,48.5,30.22,WSW,244,3.0,4.0,52,0.00,,CLR,0.00,VWS V14.01,2013-09-18 16:19:00,
2013-09-18 12:20:00,66.7,48.5,30.22,WNW,291,3.0,4.0,52,0.00,,CLR,0.00,VWS V14.01,2013-09-18 16:20:00,
2013-09-18 12:21:00,65.7,49.6,30.23,WNW,292,0.0,3.0,56,0.00,,,0.00,WUHU216VWC,2013-09-18 16:21:00,
2013-09-18 12:22:00,66.9,48.2,30.22,WNW,301,1.0,4.0,51,0.00,,CLR,0.00,VWS V14.01,2013-09-18 16:22:00,
2013-09-18 12:23:00,66.9,48.2,30.22,WNW,289,0.0,3.0,51,0.00,,CLR,0.00,VWS V14.01,2013-09-18 16:23:00,
2013-09-18 12:24:00,67.0,48.8,30.22,WNW,289,0.0,3.0,52,0.00,,CLR,0.00,VWS V14.01,2013-09-18 16:24:00,
2013-09-18 12:25:00,67.1,48.4,30.22,West,269,6.0,6.0,51,0.00,,CLR,0.00,VWS V14.01,2013-09-18 16:25:00,
2013-09-18 12:26:00,66.1,50.0,30.23,WNW,292,0.0,3.0,56,0.00,,,0.00,WUHU216VWC,2013-09-18 16:26:00,
2013-09-18 12:27:00,67.2,48.5,30.22,North,5,1.0,6.0,51,0.00,,CLR,0.00,VWS V14.01,2013-09-18 16:27:00,
2013-09-18 12:28:00,67.3,48.6,30.22,North,5,1.0,6.0,51,0.00,,CLR,0.00,VWS V14.01,2013-09-18 16:28:00,
2013-09-18 12:29:00,67.3,48.6,30.22,North,5,0.0,3.0,51,0.00,,CLR,0.00,VWS V14.01,2013-09-18 16:29:00,
2013-09-18 12:30:00,67.4,49.2,30.22,NW,316,0.0,3.0,52,0.00,,CLR,0.00,VWS V14.01,2013-09-18 16:30:00,
2013-09-18 12:31:00,66.4,50.2,30.23,WNW,292,0.0,1.0,56,0.00,,,0.00,WUHU216VWC,2013-09-18 16:31:00,
2013-09-18 12:32:00,67.5,48.8,30.22,West,263,3.0,4.0,51,0.00,,CLR,0.00,VWS V14.01,2013-09-18 16:32:00,
2013-09-18 12:33:00,67.5,48.2,30.22,West,266,0.0,4.0,50,0.00,,CLR,0.00,VWS V14.01,2013-09-18 16:33:00,
2013-09-18 12:34:00,67.5,48.2,30.22,West,266,2.0,4.0,50,0.00,,CLR,0.00,VWS V14.01,2013-09-18 16:34:00,
2013-09-18 12:35:00,67.5,47.7,30.22,West,266,0.0,3.0,49,0.00,,CLR,0.00,VWS V14.01,2013-09-18 16:35:00,
2013-09-18 12:36:00,66.7,49.0,30.22,WNW,301,1.0,4.0,53,0.00,,,0.00,WUHU216VWC,2013-09-18 16:36:00,
2013-09-18 12:37:00,67.6,47.8,30.22,SSW,202,3.0,3.0,49,0.00,,CLR,0.00,VWS V14.01,2013-09-18 16:37:00,
2013-09-18 12:38:00,67.6,47.8,30.22,West,275,2.0,6.0,49,0.00,,CLR,0.00,VWS V14.01,2013-09-18 16:38:00,
2013-09-18 12:39:00,67.6,47.8,30.22,West,275,0.0,6.0,49,0.00,,CLR,0.00,VWS V14.01,2013-09-18 16:39:00,
2013-09-18 12:40:00,67.7,48.9,30.22,West,275,1.0,6.0,51,0.00,,CLR,0.00,VWS V14.01,2013-09-18 16:40:00,
2013-09-18 12:41:00,67.1,47.9,30.22,West,269,1.0,6.0,50,0.00,,,0.00,WUHU216VWC,2013-09-18 16:41:00,
2013-09-18 12:42:00,67.8,47.4,30.22,West,269,1.0,3.0,48,0.00,,CLR,0.00,VWS V14.01,2013-09-18 16:42:00,
2013-09-18 12:43:00,67.8,47.4,30.22,West,269,0.0,3.0,48,0.00,,CLR,0.00,VWS V14.01,2013-09-18 16:43:00,
2013-09-18 12:44:00,67.8,47.4,30.22,West,269,3.0,3.0,48,0.00,,CLR,0.00,VWS V14.01,2013-09-18 16:44:00,
2013-09-18 12:45:00,67.9,48.1,30.21,WSW,251,3.0,6.0,49,0.00,,CLR,0.00,VWS V14.01,2013-09-18 16:45:00,
2013-09-18 12:46:00,67.4,49.2,30.22,NW,314,2.0,6.0,52,0.00,,,0.00,WUHU216VWC,2013-09-18 16:46:00,
2013-09-18 12:47:00,68.0,47.0,30.21,WSW,252,3.0,6.0,47,0.00,,CLR,0.00,VWS V14.01,2013-09-18 16:47:00,
2013-09-18 12:48:00,68.1,48.2,30.21,WSW,252,0.0,6.0,49,0.00,,CLR,0.00,VWS V14.01,2013-09-18 16:48:00,
2013-09-18 12:49:00,68.2,47.8,30.21,West,267,3.0,3.0,48,0.00,,CLR,0.00,VWS V14.01,2013-09-18 16:49:00,
2013-09-18 12:50:00,68.3,48.4,30.21,WSW,254,1.0,3.0,49,0.00,,CLR,0.00,VWS V14.01,2013-09-18 16:50:00,
2013-09-18 12:51:00,67.6,47.8,30.22,West,266,0.0,6.0,49,0.00,,,0.00,WUHU216VWC,2013-09-18 16:51:00,
2013-09-18 12:52:00,68.4,48.0,30.21,WSW,254,0.0,3.0,48,0.00,,CLR,0.00,VWS V14.01,2013-09-18 16:52:00,
2013-09-18 12:53:00,68.5,49.2,30.21,WSW,254,0.0,2.0,50,0.00,,CLR,0.00,VWS V14.01,2013-09-18 16:53:00,
2013-09-18 12:54:00,68.7,48.2,30.21,WSW,254,0.0,0.0,48,0.00,,CLR,0.00,VWS V14.01,2013-09-18 16:54:00,
2013-09-18 12:55:00,68.7,49.3,30.21,WSW,254,0.0,0.0,50,0.00,,CLR,0.00,VWS V14.01,2013-09-18 16:55:00,
2013-09-18 12:56:00,67.7,48.9,30.22,West,275,0.0,6.0,51,0.00,,,0.00,WUHU216VWC,2013-09-18 16:56:00,
2013-09-18 12:57:00,68.8,47.2,30.21,WSW,254,0.0,1.0,46,0.00,,CLR,0.00,VWS V14.01,2013-09-18 16:57:00,
2013-09-18 12:58:00,68.9,50.0,30.21,WSW,254,0.0,1.0,51,0.00,,CLR,0.00,VWS V14.01,2013-09-18 16:58:00,
2013-09-18 12:59:00,69.0,49.1,30.21,WSW,254,0.0,1.0,49,0.00,,CLR,0.00,VWS V14.01,2013-09-18 16:59:00,
2013-09-18 13:00:00,69.1,49.2,30.21,WSW,254,0.0,1.0,49,0.00,,CLR,0.00,VWS V14.01,2013-09-18 17:00:00,
2013-09-18 13:01:00,67.9,48.1,30.22,WSW,255,3.0,6.0,49,0.00,,,0.00,WUHU216VWC,2013-09-18 17:01:00,
2013-09-18 13:02:00,69.2,49.8,30.21,South,188,2.0,2.0,50,0.00,,CLR,0.00,VWS V14.01,2013-09-18 17:02:00,
2013-09-18 13:03:00,69.3,47.7,30.21,SW,215,0.0,2.0,46,0.00,,CLR,0.00,VWS V14.01,2013-09-18 17:03:00,
2013-09-18 13:04:00,69.4,47.7,30.21,SW,214,0.0,2.0,46,0.00,,CLR,0.00,VWS V14.01,2013-09-18 17:04:00,
2013-09-18 13:05:00,69.5,47.2,30.20,SW,218,0.0,2.0,45,0.00,,CLR,0.00,VWS V14.01,2013-09-18 17:05:00,
2013-09-18 13:06:00,68.3,47.9,30.21,WSW,254,0.0,6.0,48,0.00,,,0.00,WUHU216VWC,2013-09-18 17:06:00,
2013-09-18 13:07:00,69.6,47.9,30.20,SW,231,3.0,3.0,46,0.00,,CLR,0.00,VWS V14.01,2013-09-18 17:07:00,
2013-09-18 13:08:00,69.7,49.7,30.20,SW,217,0.0,3.0,49,0.00,,CLR,0.00,VWS V14.01,2013-09-18 17:08:00,
2013-09-18 13:09:00,69.8,48.7,30.20,SW,218,0.0,3.0,47,0.00,,CLR,0.00,VWS V14.01,2013-09-18 17:09:00,
2013-09-18 13:10:00,69.9,48.2,30.20,SW,217,1.0,3.0,46,0.00,,CLR,0.00,VWS V14.01,2013-09-18 17:10:00,
2013-09-18 13:11:00,68.8,48.3,30.21,WSW,254,0.0,6.0,48,0.00,,,0.00,WUHU216VWC,2013-09-18 17:11:00,
2013-09-18 13:12:00,70.0,48.9,30.20,SW,217,2.0,2.0,47,0.00,,CLR,0.00,VWS V14.01,2013-09-18 17:12:00,
2013-09-18 13:13:00,70.1,47.2,30.20,West,268,2.0,3.0,44,0.00,,CLR,0.00,VWS V14.01,2013-09-18 17:13:00,
2013-09-18 13:14:00,70.1,47.8,30.20,West,265,0.0,3.0,45,0.00,,CLR,0.00,VWS V14.01,2013-09-18 17:14:00,
2013-09-18 13:15:00,70.2,47.3,30.20,West,265,3.0,3.0,44,0.00,,CLR,0.00,VWS V14.01,2013-09-18 17:15:00,
2013-09-18 13:16:00,69.1,49.2,30.21,SW,225,1.0,3.0,49,0.00,,,0.00,WUHU216VWC,2013-09-18 17:16:00,
2013-09-18 13:17:00,70.3,48.0,30.20,West,264,2.0,3.0,45,0.00,,CLR,0.00,VWS V14.01,2013-09-18 17:17:00,
2013-09-18 13:18:00,70.3,47.4,30.20,SW,214,0.0,3.0,44,0.00,,CLR,0.00,VWS V14.01,2013-09-18 17:18:00,
2013-09-18 13:19:00,70.3,47.4,30.20,SW,214,0.0,3.0,44,0.00,,CLR,0.00,VWS V14.01,2013-09-18 17:19:00,
2013-09-18 13:20:00,70.4,47.5,30.20,SW,216,0.0,3.0,44,0.00,,CLR,0.00,VWS V14.01,2013-09-18 17:20:00,
2013-09-18 13:21:00,69.5,47.3,30.20,SW,218,0.0,2.0,45,0.00,,,0.00,WUHU216VWC,2013-09-18 17:21:00,
2013-09-18 13:22:00,70.5,48.8,30.20,SSW,193,0.0,1.0,46,0.00,,CLR,0.00,VWS V14.01,2013-09-18 17:22:00,
2013-09-18 13:23:00,70.5,48.2,30.20,SSE,155,0.0,1.0,45,0.00,,CLR,0.00,VWS V14.01,2013-09-18 17:23:00,
2013-09-18 13:24:00,70.5,47.0,30.19,SSE,157,0.0,1.0,43,0.00,,CLR,0.00,VWS V14.01,2013-09-18 17:24:00,
2013-09-18 13:25:00,70.5,47.6,30.19,NE,52,1.0,1.0,44,0.00,,CLR,0.00,VWS V14.01,2013-09-18 17:25:00,
2013-09-18 13:26:00,69.9,48.2,30.20,SW,217,0.0,3.0,46,0.00,,,0.00,WUHU216VWC,2013-09-18 17:26:00,
2013-09-18 13:27:00,70.5,50.4,30.19,NE,34,0.0,3.0,49,0.00,,CLR,0.00,VWS V14.01,2013-09-18 17:27:00,
2013-09-18 13:28:00,70.5,49.9,30.19,NE,34,1.0,3.0,48,0.00,,CLR,0.00,VWS V14.01,2013-09-18 17:28:00,
2013-09-18 13:29:00,70.5,49.3,30.19,WSW,252,5.0,6.0,47,0.00,,CLR,0.00,VWS V14.01,2013-09-18 17:29:00,
2013-09-18 13:30:00,70.5,48.8,30.19,West,277,3.0,6.0,46,0.00,,CLR,0.00,VWS V14.01,2013-09-18 17:30:00,
2013-09-18 13:31:00,70.2,47.3,30.20,West,265,1.0,3.0,44,0.00,,,0.00,WUHU216VWC,2013-09-18 17:31:00,
2013-09-18 13:32:00,70.7,47.7,30.19,West,267,0.0,6.0,44,0.00,,CLR,0.00,VWS V14.01,2013-09-18 17:32:00,
2013-09-18 13:33:00,70.8,47.2,30.19,West,267,0.0,6.0,43,0.00,,CLR,0.00,VWS V14.01,2013-09-18 17:33:00,
2013-09-18 13:34:00,70.9,46.7,30.19,West,267,1.0,3.0,42,0.00,,CLR,0.00,VWS V14.01,2013-09-18 17:34:00,
2013-09-18 13:35:00,71.0,49.8,30.19,West,267,0.0,1.0,47,0.00,,CLR,0.00,VWS V14.01,2013-09-18 17:35:00,
2013-09-18 13:36:00,70.4,47.5,30.20,South,188,0.0,3.0,44,0.00,,,0.00,WUHU216VWC,2013-09-18 17:36:00,
2013-09-18 13:37:00,71.2,47.6,30.19,West,277,6.0,7.0,43,0.00,,CLR,0.00,VWS V14.01,2013-09-18 17:37:00,
2013-09-18 13:38:00,71.4,47.8,30.19,West,278,4.0,7.0,43,0.00,,CLR,0.00,VWS V14.01,2013-09-18 17:38:00,
2013-09-18 13:39:00,71.4,46.5,30.19,West,279,1.0,7.0,41,0.00,,CLR,0.00,VWS V14.01,2013-09-18 17:39:00,
2013-09-18 13:40:00,71.5,47.2,30.19,SW,217,2.0,7.0,42,0.00,,CLR,0.00,VWS V14.01,2013-09-18 17:40:00,
2013-09-18 13:41:00,70.5,48.2,30.19,NE,40,2.0,3.0,45,0.00,,,0.00,WUHU216VWC,2013-09-18 17:41:00,
2013-09-18 13:42:00,71.7,46.8,30.19,West,268,3.0,6.0,41,0.00,,CLR,0.00,VWS V14.01,2013-09-18 17:42:00,
2013-09-18 13:43:00,71.7,46.8,30.19,West,275,0.0,7.0,41,0.00,,CLR,0.00,VWS V14.01,2013-09-18 17:43:00,
2013-09-18 13:44:00,71.9,47.0,30.19,West,275,1.0,7.0,41,0.00,,CLR,0.00,VWS V14.01,2013-09-18 17:44:00,
2013-09-18 13:45:00,71.9,47.0,30.19,West,275,0.0,7.0,41,0.00,,CLR,0.00,VWS V14.01,2013-09-18 17:45:00,
2013-09-18 13:46:00,70.6,47.7,30.19,West,269,3.0,6.0,44,0.00,,,0.00,WUHU216VWC,2013-09-18 17:46:00,
2013-09-18 13:47:00,72.0,46.4,30.18,West,261,2.0,4.0,40,0.00,,CLR,0.00,VWS V14.01,2013-09-18 17:47:00,
2013-09-18 13:48:00,72.0,47.0,30.18,West,261,0.0,4.0,41,0.00,,CLR,0.00,VWS V14.01,2013-09-18 17:48:00,
2013-09-18 13:49:00,72.1,46.5,30.19,West,261,0.0,4.0,40,0.00,,CLR,0.00,VWS V14.01,2013-09-18 17:49:00,
2013-09-18 13:50:00,72.1,46.5,30.18,West,261,0.0,4.0,40,0.00,,CLR,0.00,VWS V14.01,2013-09-18 17:50:00,
2013-09-18 13:51:00,71.1,50.4,30.19,West,267,0.0,6.0,48,0.00,,,0.00,WUHU216VWC,2013-09-18 17:51:00,
2013-09-18 13:52:00,72.2,49.1,30.18,West,261,0.0,1.0,44,0.00,,CLR,0.00,VWS V14.01,2013-09-18 17:52:00,
2013-09-18 13:53:00,72.2,49.1,30.18,West,261,0.0,1.0,44,0.00,,CLR,0.00,VWS V14.01,2013-09-18 17:53:00,
2013-09-18 13:54:00,72.3,49.8,30.18,West,261,2.0,4.0,45,0.00,,CLR,0.00,VWS V14.01,2013-09-18 17:54:00,
2013-09-18 13:55:00,72.3,46.0,30.18,WSW,255,2.0,4.0,39,0.00,,CLR,0.00,VWS V14.01,2013-09-18 17:55:00,
2013-09-18 13:56:00,71.6,47.3,30.19,West,263,3.0,7.0,42,0.00,,,0.00,WUHU216VWC,2013-09-18 17:56:00,
2013-09-18 13:57:00,72.5,45.5,30.18,West,263,3.0,4.0,38,0.00,,CLR,0.00,VWS V14.01,2013-09-18 17:57:00,
2013-09-18 13:58:00,72.5,45.5,30.18,West,264,0.0,4.0,38,0.00,,CLR,0.00,VWS V14.01,2013-09-18 17:58:00,
2013-09-18 13:59:00,72.5,46.8,30.18,NW,319,0.0,3.0,40,0.00,,CLR,0.00,VWS V14.01,2013-09-18 17:59:00,
2013-09-18 14:00:00,72.5,46.2,30.18,NW,319,0.0,3.0,39,0.00,,CLR,0.00,VWS V14.01,2013-09-18 18:00:00,
2013-09-18 14:01:00,71.9,46.9,30.19,WNW,292,4.0,7.0,41,0.00,,,0.00,WUHU216VWC,2013-09-18 18:01:00,
2013-09-18 14:02:00,72.5,46.8,30.18,NW,319,0.0,2.0,40,0.00,,CLR,0.00,VWS V14.01,2013-09-18 18:02:00,
2013-09-18 14:03:00,72.5,46.2,30.18,NW,319,0.0,2.0,39,0.00,,CLR,0.00,VWS V14.01,2013-09-18 18:03:00,
2013-09-18 14:04:00,72.4,45.4,30.18,WSW,246,1.0,6.0,38,0.00,,CLR,0.00,VWS V14.01,2013-09-18 18:04:00,
2013-09-18 14:05:00,72.3,44.6,30.18,WNW,301,0.0,6.0,37,0.00,,CLR,0.00,VWS V14.01,2013-09-18 18:05:00,
2013-09-18 14:06:00,72.1,46.5,30.18,West,261,0.0,7.0,40,0.00,,,0.00,WUHU216VWC,2013-09-18 18:06:00,
2013-09-18 14:07:00,72.3,46.7,30.18,West,278,0.0,6.0,40,0.00,,CLR,0.00,VWS V14.01,2013-09-18 18:07:00,
2013-09-18 14:08:00,72.3,44.6,30.18,West,278,0.0,3.0,37,0.00,,CLR,0.00,VWS V14.01,2013-09-18 18:08:00,
2013-09-18 14:09:00,72.3,46.0,30.18,West,280,0.0,1.0,39,0.00,,CLR,0.00,VWS V14.01,2013-09-18 18:09:00,
2013-09-18 14:10:00,72.3,47.3,30.18,West,280,0.0,1.0,41,0.00,,CLR,0.00,VWS V14.01,2013-09-18 18:10:00,
2013-09-18 14:11:00,72.4,46.1,30.18,WSW,252,3.0,7.0,39,0.00,,,0.00,WUHU216VWC,2013-09-18 18:11:00,
2013-09-18 14:12:00,72.3,47.3,30.18,West,280,0.0,1.0,41,0.00,,CLR,0.00,VWS V14.01,2013-09-18 18:12:00,
2013-09-18 14:13:00,72.3,48.0,30.17,West,280,0.0,0.0,42,0.00,,CLR,0.00,VWS V14.01,2013-09-18 18:13:00,
2013-09-18 14:14:00,72.3,48.6,30.18,SSE,168,0.0,1.0,43,0.00,,CLR,0.00,VWS V14.01,2013-09-18 18:14:00,
2013-09-18 14:15:00,72.3,46.7,30.17,South,169,0.0,1.0,40,0.00,,CLR,0.00,VWS V14.01,2013-09-18 18:15:00,
2013-09-18 14:16:00,72.6,46.3,30.18,NW,319,0.0,4.0,39,0.00,,,0.00,WUHU216VWC,2013-09-18 18:16:00,
2013-09-18 14:17:00,72.4,46.7,30.17,West,269,1.0,3.0,40,0.00,,CLR,0.00,VWS V14.01,2013-09-18 18:17:00,
2013-09-18 14:18:00,72.5,46.8,30.17,SSE,153,0.0,4.0,40,0.00,,CLR,0.00,VWS V14.01,2013-09-18 18:18:00,
2013-09-18 14:19:00,72.5,47.5,30.17,SSE,157,0.0,4.0,41,0.00,,CLR,0.00,VWS V14.01,2013-09-18 18:19:00,
2013-09-18 14:20:00,72.6,47.6,30.17,WSW,251,1.0,4.0,41,0.00,,CLR,0.00,VWS V14.01,2013-09-18 18:20:00,
2013-09-18 14:21:00,72.3,46.0,30.18,West,277,0.0,6.0,39,0.00,,,0.00,WUHU216VWC,2013-09-18 18:21:00,
2013-09-18 14:22:00,72.7,49.5,30.17,WSW,256,0.0,3.0,44,0.00,,CLR,0.00,VWS V14.01,2013-09-18 18:22:00,
2013-09-18 14:23:00,72.8,49.6,30.17,WSW,256,0.0,3.0,44,0.00,,CLR,0.00,VWS V14.01,2013-09-18 18:23:00,
2013-09-18 14:24:00,72.9,48.5,30.17,SSW,213,0.0,2.0,42,0.00,,CLR,0.00,VWS V14.01,2013-09-18 18:24:00,
2013-09-18 14:25:00,73.0,48.6,30.17,SW,218,2.0,2.0,42,0.00,,CLR,0.00,VWS V14.01,2013-09-18 18:25:00,
2013-09-18 14:26:00,72.3,47.3,30.18,West,280,0.0,6.0,41,0.00,,,0.00,WUHU216VWC,2013-09-18 18:26:00,
2013-09-18 14:27:00,73.1,48.0,30.17,WNW,283,2.0,5.0,41,0.00,,CLR,0.00,VWS V14.01,2013-09-18 18:27:00,
2013-09-18 14:28:00,73.2,46.8,30.17,WNW,283,0.0,5.0,39,0.00,,CLR,0.00,VWS V14.01,2013-09-18 18:28:00,
2013-09-18 14:29:00,73.3,47.5,30.17,WNW,283,0.0,5.0,40,0.00,,CLR,0.00,VWS V14.01,2013-09-18 18:29:00,
2013-09-18 14:30:00,73.3,47.5,30.17,WNW,283,2.0,3.0,40,0.00,,CLR,0.00,VWS V14.01,2013-09-18 18:30:00,
2013-09-18 14:31:00,72.4,46.7,30.17,South,169,0.0,6.0,40,0.00,,,0.00,WUHU216VWC,2013-09-18 18:31:00,
2013-09-18 14:32:00,73.4,47.0,30.16,WNW,283,1.0,2.0,39,0.00,,CLR,0.00,VWS V14.01,2013-09-18 18:32:00,
2013-09-18 14:33:00,73.5,48.4,30.16,WNW,282,2.0,2.0,41,0.00,,CLR,0.00,VWS V14.01,2013-09-18 18:33:00,
2013-09-18 14:34:00,73.6,48.5,30.17,SSW,198,0.0,2.0,41,0.00,,CLR,0.00,VWS V14.01,2013-09-18 18:34:00,
2013-09-18 14:35:00,73.6,47.8,30.16,SSW,199,0.0,2.0,40,0.00,,CLR,0.00,VWS V14.01,2013-09-18 18:35:00,
2013-09-18 14:36:00,72.6,47.6,30.17,WSW,256,1.0,4.0,41,0.00,,,0.00,WUHU216VWC,2013-09-18 18:36:00,
2013-09-18 14:37:00,73.6,47.8,30.16,SSW,198,0.0,1.0,40,0.00,,CLR,0.00,VWS V14.01,2013-09-18 18:37:00,
2013-09-18 14:38:00,73.7,47.9,30.16,South,182,1.0,1.0,40,0.00,,CLR,0.00,VWS V14.01,2013-09-18 18:38:00,
2013-09-18 14:39:00,73.6,48.5,30.16,SSW,207,2.0,3.0,41,0.00,,CLR,0.00,VWS V14.01,2013-09-18 18:39:00,
2013-09-18 14:40:00,73.5,47.0,30.16,WSW,252,2.0,3.0,39,0.00,,CLR,0.00,VWS V14.01,2013-09-18 18:40:00,
2013-09-18 14:41:00,73.0,48.6,30.17,WSW,250,5.0,5.0,42,0.00,,,0.00,WUHU216VWC,2013-09-18 18:41:00,
2013-09-18 14:42:00,73.5,47.7,30.16,WSW,252,1.0,3.0,40,0.00,,CLR,0.00,VWS V14.01,2013-09-18 18:42:00,
2013-09-18 14:43:00,73.5,47.7,30.16,West,273,3.0,4.0,40,0.00,,CLR,0.00,VWS V14.01,2013-09-18 18:43:00,
2013-09-18 14:44:00,73.5,48.4,30.16,West,273,0.0,4.0,41,0.00,,CLR,0.00,VWS V14.01,2013-09-18 18:44:00,
2013-09-18 14:45:00,73.5,49.0,30.16,West,273,0.0,4.0,42,0.00,,CLR,0.00,VWS V14.01,2013-09-18 18:45:00,
2013-09-18 14:46:00,73.5,49.0,30.16,West,273,1.0,4.0,42,0.00,,CLR,0.00,VWS V14.01,2013-09-18 18:46:00,
2013-09-18 14:47:00,73.4,47.6,30.17,WNW,283,0.0,5.0,40,0.00,,,0.00,WUHU216VWC,2013-09-18 18:47:00,
2013-09-18 14:48:00,73.6,49.8,30.16,West,278,0.0,3.0,43,0.00,,CLR,0.00,VWS V14.01,2013-09-18 18:48:00,
2013-09-18 14:49:00,73.6,48.5,30.16,SSE,160,0.0,3.0,41,0.00,,CLR,0.00,VWS V14.01,2013-09-18 18:49:00,
2013-09-18 14:50:00,73.6,48.5,30.16,SSE,160,0.0,2.0,41,0.00,,CLR,0.00,VWS V14.01,2013-09-18 18:50:00,
2013-09-18 14:51:00,73.6,49.1,30.16,West,279,2.0,6.0,42,0.00,,CLR,0.00,VWS V14.01,2013-09-18 18:51:00,
2013-09-18 14:52:00,73.6,48.5,30.16,SSW,198,1.0,5.0,41,0.00,,,0.00,WUHU216VWC,2013-09-18 18:52:00,
2013-09-18 14:53:00,73.7,48.6,30.16,WSW,255,3.0,6.0,41,0.00,,CLR,0.00,VWS V14.01,2013-09-18 18:53:00,
2013-09-18 14:54:00,73.8,48.7,30.16,WSW,255,3.0,6.0,41,0.00,,CLR,0.00,VWS V14.01,2013-09-18 18:54:00,
2013-09-18 14:55:00,73.9,48.7,30.16,West,259,0.0,4.0,41,0.00,,CLR,0.00,VWS V14.01,2013-09-18 18:55:00,
2013-09-18 14:56:00,74.0,48.8,30.16,West,259,0.0,4.0,41,0.00,,CLR,0.00,VWS V14.01,2013-09-18 18:56:00,
2013-09-18 14:57:00,73.5,47.7,30.16,WSW,252,1.0,3.0,40,0.00,,,0.00,WUHU216VWC,2013-09-18 18:57:00,
2013-09-18 14:58:00,74.1,48.3,30.16,West,259,0.0,3.0,40,0.00,,CLR,0.00,VWS V14.01,2013-09-18 18:58:00,
2013-09-18 14:59:00,74.2,47.7,30.15,West,267,1.0,2.0,39,0.00,,CLR,0.00,VWS V14.01,2013-09-18 18:59:00,
2013-09-18 15:00:00,74.3,48.4,30.15,West,267,0.0,2.0,40,0.00,,CLR,0.00,VWS V14.01,2013-09-18 19:00:00,
2013-09-18 15:01:00,74.3,47.1,30.15,West,267,0.0,2.0,38,0.00,,CLR,0.00,VWS V14.01,2013-09-18 19:01:00,
2013-09-18 15:02:00,73.5,49.0,30.16,West,273,0.0,4.0,42,0.00,,,0.00,WUHU216VWC,2013-09-18 19:02:00,
2013-09-18 15:03:00,74.3,47.8,30.15,WNW,282,3.0,4.0,39,0.00,,CLR,0.00,VWS V14.01,2013-09-18 19:03:00,
2013-09-18 15:04:00,74.2,49.0,30.15,West,259,3.0,4.0,41,0.00,,CLR,0.00,VWS V14.01,2013-09-18 19:04:00,
2013-09-18 15:05:00,74.2,48.3,30.15,West,264,4.0,4.0,40,0.00,,CLR,0.00,VWS V14.01,2013-09-18 19:05:00,
2013-09-18 15:06:00,74.2,48.3,30.15,West,265,1.0,4.0,40,0.00,,CLR,0.00,VWS V14.01,2013-09-18 19:06:00,
2013-09-18 15:07:00,73.6,49.1,30.16,WNW,284,2.0,4.0,42,0.00,,,0.00,WUHU216VWC,2013-09-18 19:07:00,
2013-09-18 15:08:00,74.3,48.4,30.15,West,263,0.0,4.0,40,0.00,,CLR,0.00,VWS V14.01,2013-09-18 19:08:00,
2013-09-18 15:09:00,74.3,48.4,30.15,West,263,0.0,2.0,40,0.00,,CLR,0.00,VWS V14.01,2013-09-18 19:09:00,
2013-09-18 15:10:00,74.3,48.4,30.15,West,263,1.0,4.0,40,0.00,,CLR,0.00,VWS V14.01,2013-09-18 19:10:00,
2013-09-18 15:11:00,74.4,49.2,30.15,WSW,255,4.0,5.0,41,0.00,,CLR,0.00,VWS V14.01,2013-09-18 19:11:00,
2013-09-18 15:12:00,74.0,48.8,30.16,West,259,0.0,6.0,41,0.00,,,0.00,WUHU216VWC,2013-09-18 19:12:00,
2013-09-18 15:13:00,74.5,46.5,30.15,WSW,250,1.0,5.0,37,0.00,,CLR,0.00,VWS V14.01,2013-09-18 19:13:00,
2013-09-18 15:14:00,74.5,47.2,30.15,WSW,258,4.0,7.0,38,0.00,,CLR,0.00,VWS V14.01,2013-09-18 19:14:00,
2013-09-18 15:15:00,74.5,47.2,30.15,West,270,1.0,7.0,38,0.00,,CLR,0.00,VWS V14.01,2013-09-18 19:15:00,
2013-09-18 15:16:00,74.6,47.3,30.15,WSW,254,2.0,7.0,38,0.00,,CLR,0.00,VWS V14.01,2013-09-18 19:16:00,
2013-09-18 15:17:00,74.3,47.1,30.15,West,267,0.0,6.0,38,0.00,,,0.00,WUHU216VWC,2013-09-18 19:17:00,
2013-09-18 15:18:00,74.6,47.3,30.15,West,267,1.0,6.0,38,0.00,,CLR,0.00,VWS V14.01,2013-09-18 19:18:00,
2013-09-18 15:19:00,74.6,47.3,30.15,West,267,0.0,5.0,38,0.00,,CLR,0.00,VWS V14.01,2013-09-18 19:19:00,
2013-09-18 15:20:00,74.6,47.3,30.15,WSW,250,0.0,3.0,38,0.00,,CLR,0.00,VWS V14.01,2013-09-18 19:20:00,
2013-09-18 15:21:00,74.7,47.4,30.15,West,267,0.0,3.0,38,0.00,,CLR,0.00,VWS V14.01,2013-09-18 19:21:00,
2013-09-18 15:22:00,74.2,48.4,30.15,West,265,1.0,4.0,40,0.00,,,0.00,WUHU216VWC,2013-09-18 19:22:00,
2013-09-18 15:23:00,74.7,47.4,30.15,West,263,0.0,4.0,38,0.00,,CLR,0.00,VWS V14.01,2013-09-18 19:23:00,
2013-09-18 15:24:00,74.7,46.0,30.15,West,263,0.0,4.0,36,0.00,,CLR,0.00,VWS V14.01,2013-09-18 19:24:00,
2013-09-18 15:25:00,74.8,46.8,30.15,West,263,1.0,4.0,37,0.00,,CLR,0.00,VWS V14.01,2013-09-18 19:25:00,
2013-09-18 15:26:00,74.8,48.2,30.15,West,263,0.0,1.0,39,0.00,,CLR,0.00,VWS V14.01,2013-09-18 19:26:00,
2013-09-18 15:27:00,74.4,49.2,30.15,WSW,255,3.0,5.0,41,0.00,,,0.00,WUHU216VWC,2013-09-18 19:27:00,
2013-09-18 15:28:00,75.0,51.0,30.15,West,263,0.0,1.0,43,0.00,,CLR,0.00,VWS V14.01,2013-09-18 19:28:00,
2013-09-18 15:29:00,75.1,48.5,30.15,West,276,1.0,2.0,39,0.00,,CLR,0.00,VWS V14.01,2013-09-18 19:29:00,
2013-09-18 15:30:00,75.1,50.5,30.14,West,276,1.0,2.0,42,0.00,,CLR,0.00,VWS V14.01,2013-09-18 19:30:00,
2013-09-18 15:31:00,75.2,50.6,30.14,WSW,246,0.0,3.0,42,0.00,,CLR,0.00,VWS V14.01,2013-09-18 19:31:00,
2013-09-18 15:32:00,74.5,47.3,30.15,WSW,254,0.0,7.0,38,0.00,,,0.00,WUHU216VWC,2013-09-18 19:32:00,
2013-09-18 15:33:00,75.2,49.9,30.14,SSW,212,2.0,3.0,41,0.00,,CLR,0.00,VWS V14.01,2013-09-18 19:33:00,
2013-09-18 15:34:00,75.2,49.9,30.14,WSW,246,3.0,4.0,41,0.00,,CLR,0.00,VWS V14.01,2013-09-18 19:34:00,
2013-09-18 15:35:00,75.2,47.9,30.14,West,265,2.0,4.0,38,0.00,,CLR,0.00,VWS V14.01,2013-09-18 19:35:00,
2013-09-18 15:36:00,75.1,48.5,30.14,South,187,2.0,4.0,39,0.00,,CLR,0.00,VWS V14.01,2013-09-18 19:36:00,
2013-09-18 15:37:00,74.7,48.8,30.15,West,263,3.0,7.0,40,0.00,,,0.00,WUHU216VWC,2013-09-18 19:37:00,
2013-09-18 15:38:00,74.9,46.9,30.14,South,186,0.0,5.0,37,0.00,,CLR,0.00,VWS V14.01,2013-09-18 19:38:00,
2013-09-18 15:39:00,74.8,47.5,30.14,South,186,0.0,5.0,38,0.00,,CLR,0.00,VWS V14.01,2013-09-18 19:39:00,
2013-09-18 15:40:00,74.7,48.1,30.14,SW,220,0.0,1.0,39,0.00,,CLR,0.00,VWS V14.01,2013-09-18 19:40:00,
2013-09-18 15:41:00,74.6,47.3,30.14,SW,220,0.0,1.0,38,0.00,,CLR,0.00,VWS V14.01,2013-09-18 19:41:00,
2013-09-18 15:42:00,74.9,48.3,30.15,West,263,0.0,7.0,39,0.00,,,0.00,WUHU216VWC,2013-09-18 19:42:00,
2013-09-18 15:43:00,74.4,47.2,30.14,SW,220,0.0,1.0,38,0.00,,CLR,0.00,VWS V14.01,2013-09-18 19:43:00,
2013-09-18 15:44:00,74.3,47.1,30.14,SSW,200,0.0,1.0,38,0.00,,CLR,0.00,VWS V14.01,2013-09-18 19:44:00,
2013-09-18 15:45:00,74.2,49.0,30.14,SSW,200,0.0,1.0,41,0.00,,CLR,0.00,VWS V14.01,2013-09-18 19:45:00,
2013-09-18 15:46:00,74.1,47.6,30.14,WSW,250,1.0,3.0,39,0.00,,CLR,0.00,VWS V14.01,2013-09-18 19:46:00,
2013-09-18 15:47:00,75.2,50.6,30.14,WSW,246,0.0,4.0,42,0.00,,,0.00,WUHU216VWC,2013-09-18 19:47:00,
2013-09-18 15:48:00,73.9,46.7,30.13,WNW,289,0.0,4.0,38,0.00,,CLR,0.00,VWS V14.01,2013-09-18 19:48:00,
2013-09-18 15:49:00,73.8,48.0,30.14,WSW,252,0.0,4.0,40,0.00,,CLR,0.00,VWS V14.01,2013-09-18 19:49:00,
2013-09-18 15:50:00,73.7,45.8,30.13,WSW,252,0.0,4.0,37,0.00,,CLR,0.00,VWS V14.01,2013-09-18 19:50:00,
2013-09-18 15:51:00,73.6,48.5,30.13,WSW,252,0.0,3.0,41,0.00,,CLR,0.00,VWS V14.01,2013-09-18 19:51:00,
2013-09-18 15:52:00,75.1,48.5,30.14,South,186,1.0,5.0,39,0.00,,,0.00,WUHU216VWC,2013-09-18 19:52:00,
2013-09-18 15:53:00,73.4,50.2,30.13,WSW,252,0.0,0.0,44,0.00,,CLR,0.00,VWS V14.01,2013-09-18 19:53:00,
2013-09-18 15:54:00,73.4,50.8,30.13,WSW,252,0.0,0.0,45,0.00,,CLR,0.00,VWS V14.01,2013-09-18 19:54:00,
2013-09-18 15:55:00,73.3,51.3,30.13,WSW,252,0.0,0.0,46,0.00,,CLR,0.00,VWS V14.01,2013-09-18 19:55:00,
2013-09-18 15:56:00,73.2,50.0,30.13,WSW,252,1.0,1.0,44,0.00,,CLR,0.00,VWS V14.01,2013-09-18 19:56:00,
2013-09-18 15:57:00,74.5,47.3,30.14,SW,220,0.0,5.0,38,0.00,,,0.00,WUHU216VWC,2013-09-18 19:57:00,
2013-09-18 15:58:00,72.9,47.8,30.13,West,259,0.0,2.0,41,0.00,,CLR,0.00,VWS V14.01,2013-09-18 19:58:00,
2013-09-18 15:59:00,72.9,48.5,30.13,SW,214,0.0,2.0,42,0.00,,CLR,0.00,VWS V14.01,2013-09-18 19:59:00,
2013-09-18 16:00:00,72.8,50.8,30.13,SW,214,0.0,2.0,46,0.00,,CLR,0.00,VWS V14.01,2013-09-18 20:00:00,
2013-09-18 16:01:00,72.7,47.7,30.13,WSW,256,3.0,3.0,41,0.00,,CLR,0.00,VWS V14.01,2013-09-18 20:01:00,
2013-09-18 16:02:00,74.0,47.5,30.13,WSW,250,3.0,5.0,39,0.00,,,0.00,WUHU216VWC,2013-09-18 20:02:00,
2013-09-18 16:03:00,72.6,46.2,30.13,West,260,2.0,5.0,39,0.00,,CLR,0.00,VWS V14.01,2013-09-18 20:03:00,
2013-09-18 16:04:00,72.5,46.8,30.13,West,260,0.0,5.0,40,0.00,,CLR,0.00,VWS V14.01,2013-09-18 20:04:00,
2013-09-18 16:05:00,72.5,46.8,30.13,West,260,0.0,2.0,40,0.00,,CLR,0.00,VWS V14.01,2013-09-18 20:05:00,
2013-09-18 16:06:00,72.4,47.4,30.13,West,260,1.0,2.0,41,0.00,,CLR,0.00,VWS V14.01,2013-09-18 20:06:00,
2013-09-18 16:07:00,73.5,47.1,30.13,WSW,252,0.0,4.0,39,0.00,,,0.00,WUHU216VWC,2013-09-18 20:07:00,
2013-09-18 16:08:00,72.4,46.7,30.13,West,260,2.0,2.0,40,0.00,,CLR,0.00,VWS V14.01,2013-09-18 20:08:00,
2013-09-18 16:09:00,72.3,46.7,30.13,West,261,0.0,2.0,40,0.00,,CLR,0.00,VWS V14.01,2013-09-18 20:09:00,
2013-09-18 16:10:00,72.2,46.6,30.13,West,261,0.0,2.0,40,0.00,,CLR,0.00,VWS V14.01,2013-09-18 20:10:00,
2013-09-18 16:11:00,72.2,45.2,30.13,West,261,0.0,2.0,38,0.00,,CLR,0.00,VWS V14.01,2013-09-18 20:11:00,
2013-09-18 16:12:00,73.1,50.5,30.13,WSW,257,1.0,4.0,45,0.00,,,0.00,WUHU216VWC,2013-09-18 20:12:00,
2013-09-18 16:13:00,72.1,46.5,30.13,WSW,252,1.0,4.0,40,0.00,,CLR,0.00,VWS V14.01,2013-09-18 20:13:00,
2013-09-18 16:14:00,72.1,46.5,30.13,West,265,0.0,4.0,40,0.00,,CLR,0.00,VWS V14.01,2013-09-18 20:14:00,
2013-09-18 16:15:00,72.1,46.5,30.13,West,265,0.0,4.0,40,0.00,,CLR,0.00,VWS V14.01,2013-09-18 20:15:00,
2013-09-18 16:16:00,72.1,47.1,30.13,West,265,0.0,2.0,41,0.00,,CLR,0.00,VWS V14.01,2013-09-18 20:16:00,
2013-09-18 16:17:00,72.7,47.0,30.13,WSW,256,2.0,5.0,40,0.00,,,0.00,WUHU216VWC,2013-09-18 20:17:00,
2013-09-18 16:18:00,72.0,47.0,30.13,West,263,0.0,3.0,41,0.00,,CLR,0.00,VWS V14.01,2013-09-18 20:18:00,
2013-09-18 16:19:00,72.0,47.7,30.13,SSW,212,0.0,3.0,42,0.00,,CLR,0.00,VWS V14.01,2013-09-18 20:19:00,
2013-09-18 16:20:00,71.9,46.3,30.13,WNW,283,3.0,3.0,40,0.00,,CLR,0.00,VWS V14.01,2013-09-18 20:20:00,
2013-09-18 16:21:00,71.9,47.0,30.13,West,273,2.0,4.0,41,0.00,,CLR,0.00,VWS V14.01,2013-09-18 20:21:00,
2013-09-18 16:22:00,72.4,47.4,30.13,West,260,0.0,5.0,41,0.00,,,0.00,WUHU216VWC,2013-09-18 20:22:00,
2013-09-18 16:23:00,71.8,46.9,30.13,West,272,2.0,4.0,41,0.00,,CLR,0.00,VWS V14.01,2013-09-18 20:23:00,
2013-09-18 16:24:00,71.8,46.9,30.13,West,274,0.0,4.0,41,0.00,,CLR,0.00,VWS V14.01,2013-09-18 20:24:00,
2013-09-18 16:25:00,71.8,46.9,30.13,West,274,0.0,3.0,41,0.00,,CLR,0.00,VWS V14.01,2013-09-18 20:25:00,
2013-09-18 16:26:00,71.8,46.9,30.13,West,274,2.0,3.0,41,0.00,,CLR,0.00,VWS V14.01,2013-09-18 20:26:00,
2013-09-18 16:27:00,72.2,45.2,30.13,West,261,1.0,5.0,38,0.00,,,0.00,WUHU216VWC,2013-09-18 20:27:00,
2013-09-18 16:28:00,71.7,46.1,30.13,West,274,0.0,2.0,40,0.00,,CLR,0.00,VWS V14.01,2013-09-18 20:28:00,
2013-09-18 16:29:00,71.7,47.4,30.13,West,274,0.0,2.0,42,0.00,,CLR,0.00,VWS V14.01,2013-09-18 20:29:00,
2013-09-18 16:30:00,71.6,50.9,30.12,West,274,0.0,0.0,48,0.00,,CLR,0.00,VWS V14.01,2013-09-18 20:30:00,
2013-09-18 16:31:00,71.6,48.6,30.13,West,274,0.0,0.0,44,0.00,,CLR,0.00,VWS V14.01,2013-09-18 20:31:00,
2013-09-18 16:32:00,72.1,47.1,30.13,West,265,1.0,4.0,41,0.00,,,0.00,WUHU216VWC,2013-09-18 20:32:00,
2013-09-18 16:33:00,71.3,50.0,30.12,West,274,0.0,1.0,47,0.00,,CLR,0.00,VWS V14.01,2013-09-18 20:33:00,
2013-09-18 16:34:00,71.2,48.8,30.12,West,274,0.0,1.0,45,0.00,,CLR,0.00,VWS V14.01,2013-09-18 20:34:00,
2013-09-18 16:35:00,71.1,50.4,30.13,West,259,2.0,2.0,48,0.00,,CLR,0.00,VWS V14.01,2013-09-18 20:35:00,
2013-09-18 16:36:00,71.0,49.2,30.13,West,276,0.0,2.0,46,0.00,,CLR,0.00,VWS V14.01,2013-09-18 20:36:00,
2013-09-18 16:37:00,71.9,46.9,30.13,West,273,1.0,4.0,41,0.00,,,0.00,WUHU216VWC,2013-09-18 20:37:00,
2013-09-18 16:38:00,70.8,50.2,30.12,West,276,0.0,2.0,48,0.00,,CLR,0.00,VWS V14.01,2013-09-18 20:38:00,
2013-09-18 16:39:00,70.6,49.4,30.12,West,276,0.0,0.0,47,0.00,,CLR,0.00,VWS V14.01,2013-09-18 20:39:00,
2013-09-18 16:40:00,70.5,49.9,30.13,West,276,0.0,0.0,48,0.00,,CLR,0.00,VWS V14.01,2013-09-18 20:40:00,
2013-09-18 16:41:00,70.3,48.6,30.12,West,276,0.0,1.0,46,0.00,,CLR,0.00,VWS V14.01,2013-09-18 20:41:00,
2013-09-18 16:42:00,71.7,47.4,30.13,West,274,0.0,4.0,42,0.00,,,0.00,WUHU216VWC,2013-09-18 20:42:00,
2013-09-18 16:43:00,70.1,46.6,30.12,West,273,1.0,2.0,43,0.00,,CLR,0.00,VWS V14.01,2013-09-18 20:43:00,
2013-09-18 16:44:00,70.0,49.4,30.12,West,266,3.0,3.0,48,0.00,,CLR,0.00,VWS V14.01,2013-09-18 20:44:00,
2013-09-18 16:45:00,69.9,50.4,30.12,West,270,0.0,3.0,50,0.00,,CLR,0.00,VWS V14.01,2013-09-18 20:45:00,
2013-09-18 16:46:00,69.8,49.2,30.12,West,270,0.0,3.0,48,0.00,,CLR,0.00,VWS V14.01,2013-09-18 20:46:00,
2013-09-18 16:47:00,71.5,49.7,30.13,West,274,0.0,4.0,46,0.00,,,0.00,WUHU216VWC,2013-09-18 20:47:00,
2013-09-18 16:48:00,69.7,49.2,30.12,West,270,1.0,1.0,48,0.00,,CLR,0.00,VWS V14.01,2013-09-18 20:48:00,
2013-09-18 16:49:00,69.6,49.1,30.12,West,269,0.0,1.0,48,0.00,,CLR,0.00,VWS V14.01,2013-09-18 20:49:00,
2013-09-18 16:50:00,69.6,48.5,30.12,West,270,1.0,1.0,47,0.00,,CLR,0.00,VWS V14.01,2013-09-18 20:50:00,
2013-09-18 16:51:00,69.5,48.4,30.12,WSW,245,0.0,2.0,47,0.00,,CLR,0.00,VWS V14.01,2013-09-18 20:51:00,
2013-09-18 16:52:00,69.4,51.0,30.12,WSW,245,0.0,2.0,52,0.00,,CLR,0.00,VWS V14.01,2013-09-18 20:52:00,
2013-09-18 16:53:00,70.9,50.3,30.12,West,276,0.0,2.0,48,0.00,,,0.00,WUHU216VWC,2013-09-18 20:53:00,
2013-09-18 16:54:00,69.3,49.3,30.12,WSW,246,0.0,1.0,49,0.00,,CLR,0.00,VWS V14.01,2013-09-18 20:54:00,
2013-09-18 16:55:00,69.2,49.8,30.12,WSW,246,1.0,1.0,50,0.00,,CLR,0.00,VWS V14.01,2013-09-18 20:55:00,
2013-09-18 16:56:00,69.2,48.7,30.12,WSW,246,2.0,2.0,48,0.00,,CLR,0.00,VWS V14.01,2013-09-18 20:56:00,
2013-09-18 16:57:00,69.2,47.6,30.12,WSW,246,0.0,2.0,46,0.00,,CLR,0.00,VWS V14.01,2013-09-18 20:57:00,
2013-09-18 16:58:00,70.2,48.5,30.12,West,277,1.0,2.0,46,0.00,,,0.00,WUHU216VWC,2013-09-18 20:58:00,
2013-09-18 16:59:00,69.0,49.6,30.12,WNW,297,2.0,3.0,50,0.00,,CLR,0.00,VWS V14.01,2013-09-18 20:59:00,
2013-09-18 17:00:00,69.0,50.1,30.12,WNW,297,2.0,3.0,51,0.00,,CLR,0.00,VWS V14.01,2013-09-18 21:00:00,
2013-09-18 17:01:00,68.9,50.0,30.12,WNW,296,1.0,2.0,51,0.00,,CLR,0.00,VWS V14.01,2013-09-18 21:01:00,
2013-09-18 17:02:00,68.9,50.0,30.12,WNW,296,0.0,2.0,51,0.00,,CLR,0.00,VWS V14.01,2013-09-18 21:02:00,
2013-09-18 17:03:00,69.8,50.3,30.12,West,270,0.0,3.0,50,0.00,,,0.00,WUHU216VWC,2013-09-18 21:03:00,
2013-09-18 17:04:00,68.8,50.5,30.12,West,281,0.0,2.0,52,0.00,,CLR,0.00,VWS V14.01,2013-09-18 21:04:00,
2013-09-18 17:05:00,68.8,50.0,30.12,West,281,0.0,2.0,51,0.00,,CLR,0.00,VWS V14.01,2013-09-18 21:05:00,
2013-09-18 17:06:00,68.7,50.4,30.12,West,281,1.0,2.0,52,0.00,,CLR,0.00,VWS V14.01,2013-09-18 21:06:00,
2013-09-18 17:07:00,68.6,50.8,30.12,West,281,3.0,3.0,53,0.00,,CLR,0.00,VWS V14.01,2013-09-18 21:07:00,
2013-09-18 17:08:00,69.5,51.1,30.12,WSW,245,0.0,3.0,52,0.00,,,0.00,WUHU216VWC,2013-09-18 21:08:00,
2013-09-18 17:09:00,68.5,49.7,30.12,West,281,0.0,3.0,51,0.00,,CLR,0.00,VWS V14.01,2013-09-18 21:09:00,
2013-09-18 17:10:00,68.5,50.2,30.12,West,281,0.0,3.0,52,0.00,,CLR,0.00,VWS V14.01,2013-09-18 21:10:00,
2013-09-18 17:11:00,68.5,50.2,30.12,West,281,0.0,2.0,52,0.00,,CLR,0.00,VWS V14.01,2013-09-18 21:11:00,
2013-09-18 17:12:00,68.4,49.1,30.12,West,281,0.0,2.0,50,0.00,,CLR,0.00,VWS V14.01,2013-09-18 21:12:00,
2013-09-18 17:13:00,69.1,49.2,30.12,WSW,247,1.0,3.0,49,0.00,,,0.00,WUHU216VWC,2013-09-18 21:13:00,
2013-09-18 17:14:00,68.4,51.1,30.12,West,281,1.0,2.0,54,0.00,,CLR,0.00,VWS V14.01,2013-09-18 21:14:00,
2013-09-18 17:15:00,68.3,51.0,30.12,West,281,0.0,2.0,54,0.00,,CLR,0.00,VWS V14.01,2013-09-18 21:15:00,
2013-09-18 17:16:00,68.2,50.4,30.12,West,281,1.0,2.0,53,0.00,,CLR,0.00,VWS V14.01,2013-09-18 21:16:00,
2013-09-18 17:17:00,68.2,49.9,30.12,West,281,0.0,2.0,52,0.00,,CLR,0.00,VWS V14.01,2013-09-18 21:17:00,
2013-09-18 17:18:00,68.9,50.0,30.12,WNW,296,0.0,3.0,51,0.00,,,0.00,WUHU216VWC,2013-09-18 21:18:00,
2013-09-18 17:19:00,68.1,49.8,30.12,West,281,0.0,2.0,52,0.00,,CLR,0.00,VWS V14.01,2013-09-18 21:19:00,
2013-09-18 17:20:00,68.0,50.8,30.12,West,281,0.0,1.0,54,0.00,,CLR,0.00,VWS V14.01,2013-09-18 21:20:00,
2013-09-18 17:21:00,67.9,50.2,30.12,West,279,3.0,3.0,53,0.00,,CLR,0.00,VWS V14.01,2013-09-18 21:21:00,
2013-09-18 17:22:00,67.8,50.1,30.12,West,281,0.0,3.0,53,0.00,,CLR,0.00,VWS V14.01,2013-09-18 21:22:00,
2013-09-18 17:23:00,68.6,49.8,30.12,West,281,2.0,3.0,51,0.00,,,0.00,WUHU216VWC,2013-09-18 21:23:00,
2013-09-18 17:24:00,67.7,51.0,30.12,West,281,0.0,3.0,55,0.00,,CLR,0.00,VWS V14.01,2013-09-18 21:24:00,
2013-09-18 17:25:00,67.6,50.9,30.12,West,281,2.0,2.0,55,0.00,,CLR,0.00,VWS V14.01,2013-09-18 21:25:00,
2013-09-18 17:26:00,67.6,50.4,30.12,West,281,0.0,2.0,54,0.00,,CLR,0.00,VWS V14.01,2013-09-18 21:26:00,
2013-09-18 17:27:00,67.5,51.3,30.12,West,281,0.0,2.0,56,0.00,,CLR,0.00,VWS V14.01,2013-09-18 21:27:00,
2013-09-18 17:28:00,68.4,49.1,30.12,West,281,0.0,3.0,50,0.00,,,0.00,WUHU216VWC,2013-09-18 21:28:00,
2013-09-18 17:29:00,67.3,50.1,30.12,West,281,0.0,2.0,54,0.00,,CLR,0.00,VWS V14.01,2013-09-18 21:29:00,
2013-09-18 17:30:00,67.2,50.0,30.12,West,281,1.0,1.0,54,0.00,,CLR,0.00,VWS V14.01,2013-09-18 21:30:00,
2013-09-18 17:31:00,67.2,50.0,30.12,West,281,0.0,1.0,54,0.00,,CLR,0.00,VWS V14.01,2013-09-18 21:31:00,
2013-09-18 17:32:00,67.1,50.9,30.12,West,281,0.0,1.0,56,0.00,,CLR,0.00,VWS V14.01,2013-09-18 21:32:00,
2013-09-18 17:33:00,68.2,49.9,30.12,West,281,0.0,3.0,52,0.00,,,0.00,WUHU216VWC,2013-09-18 21:33:00,
2013-09-18 17:34:00,67.0,50.3,30.12,West,281,0.0,2.0,55,0.00,,CLR,0.00,VWS V14.01,2013-09-18 21:34:00,
2013-09-18 17:35:00,66.9,50.2,30.12,West,281,0.0,2.0,55,0.00,,CLR,0.00,VWS V14.01,2013-09-18 21:35:00,
2013-09-18 17:36:00,66.9,50.2,30.12,West,281,0.0,2.0,55,0.00,,CLR,0.00,VWS V14.01,2013-09-18 21:36:00,
2013-09-18 17:37:00,66.9,50.2,30.12,West,281,2.0,2.0,55,0.00,,CLR,0.00,VWS V14.01,2013-09-18 21:37:00,
2013-09-18 17:38:00,67.8,50.1,30.12,West,281,0.0,3.0,53,0.00,,,0.00,WUHU216VWC,2013-09-18 21:38:00,
2013-09-18 17:39:00,66.7,50.0,30.12,West,281,1.0,2.0,55,0.00,,CLR,0.00,VWS V14.01,2013-09-18 21:39:00,
2013-09-18 17:40:00,66.7,49.5,30.12,West,281,1.0,2.0,54,0.00,,CLR,0.00,VWS V14.01,2013-09-18 21:40:00,
2013-09-18 17:41:00,66.7,51.5,30.12,West,281,0.0,2.0,58,0.00,,CLR,0.00,VWS V14.01,2013-09-18 21:41:00,
2013-09-18 17:42:00,66.7,50.5,30.12,West,280,1.0,2.0,56,0.00,,CLR,0.00,VWS V14.01,2013-09-18 21:42:00,
2013-09-18 17:43:00,67.5,51.3,30.12,West,281,0.0,3.0,56,0.00,,,0.00,WUHU216VWC,2013-09-18 21:43:00,
2013-09-18 17:44:00,66.6,50.4,30.12,West,274,0.0,5.0,56,0.00,,CLR,0.00,VWS V14.01,2013-09-18 21:44:00,
2013-09-18 17:45:00,66.6,50.9,30.12,West,274,1.0,5.0,57,0.00,,CLR,0.00,VWS V14.01,2013-09-18 21:45:00,
2013-09-18 17:46:00,66.5,50.8,30.12,West,268,0.0,5.0,57,0.00,,CLR,0.00,VWS V14.01,2013-09-18 21:46:00,
2013-09-18 17:47:00,66.5,50.3,30.12,West,268,0.0,4.0,56,0.00,,CLR,0.00,VWS V14.01,2013-09-18 21:47:00,
2013-09-18 17:48:00,67.1,50.9,30.12,West,281,0.0,3.0,56,0.00,,,0.00,WUHU216VWC,2013-09-18 21:48:00,
2013-09-18 17:49:00,66.4,51.2,30.12,West,267,0.0,3.0,58,0.00,,CLR,0.00,VWS V14.01,2013-09-18 21:49:00,
2013-09-18 17:50:00,66.3,51.1,30.12,West,273,2.0,3.0,58,0.00,,CLR,0.00,VWS V14.01,2013-09-18 21:50:00,
2013-09-18 17:51:00,66.2,51.5,30.12,West,273,1.0,3.0,59,0.00,,CLR,0.00,VWS V14.01,2013-09-18 21:51:00,
2013-09-18 17:52:00,66.1,50.9,30.12,West,268,2.0,3.0,58,0.00,,CLR,0.00,VWS V14.01,2013-09-18 21:52:00,
2013-09-18 17:53:00,66.9,50.7,30.12,West,281,1.0,2.0,56,0.00,,,0.00,WUHU216VWC,2013-09-18 21:53:00,
2013-09-18 17:54:00,66.0,52.2,30.12,WSW,258,0.0,3.0,61,0.00,,CLR,0.00,VWS V14.01,2013-09-18 21:54:00,
2013-09-18 17:55:00,65.9,51.6,30.12,WSW,258,0.0,3.0,60,0.00,,CLR,0.00,VWS V14.01,2013-09-18 21:55:00,
2013-09-18 17:56:00,65.8,51.1,30.12,WSW,258,1.0,3.0,59,0.00,,CLR,0.00,VWS V14.01,2013-09-18 21:56:00,
2013-09-18 17:57:00,65.7,51.0,30.12,West,272,2.0,2.0,59,0.00,,CLR,0.00,VWS V14.01,2013-09-18 21:57:00,
2013-09-18 17:58:00,66.7,51.0,30.12,West,280,2.0,2.0,57,0.00,,,0.00,WUHU216VWC,2013-09-18 21:58:00,
2013-09-18 17:59:00,65.5,50.8,30.12,West,268,0.0,2.0,59,0.00,,CLR,0.00,VWS V14.01,2013-09-18 21:59:00,
2013-09-18 18:00:00,65.4,52.1,30.12,West,277,0.0,2.0,62,0.00,,CLR,0.00,VWS V14.01,2013-09-18 22:00:00,
2013-09-18 18:01:00,65.4,51.6,30.12,West,276,2.0,2.0,61,0.00,,CLR,0.00,VWS V14.01,2013-09-18 22:01:00,
2013-09-18 18:02:00,65.3,52.0,30.12,West,276,0.0,2.0,62,0.00,,CLR,0.00,VWS V14.01,2013-09-18 22:02:00,
2013-09-18 18:03:00,66.5,50.3,30.12,West,268,0.0,5.0,56,0.00,,,0.00,WUHU216VWC,2013-09-18 22:03:00,
2013-09-18 18:04:00,65.2,51.4,30.12,West,276,0.0,2.0,61,0.00,,CLR,0.00,VWS V14.01,2013-09-18 22:04:00,
2013-09-18 18:05:00,65.0,51.2,30.12,West,276,1.0,1.0,61,0.00,,CLR,0.00,VWS V14.01,2013-09-18 22:05:00,
2013-09-18 18:06:00,64.9,51.6,30.12,West,276,0.0,1.0,62,0.00,,CLR,0.00,VWS V14.01,2013-09-18 22:06:00,
2013-09-18 18:07:00,64.9,52.9,30.12,West,276,0.0,1.0,65,0.00,,CLR,0.00,VWS V14.01,2013-09-18 22:07:00,
2013-09-18 18:08:00,66.1,50.9,30.12,West,273,3.0,5.0,58,0.00,,,0.00,WUHU216VWC,2013-09-18 22:08:00,
2013-09-18 18:09:00,64.7,52.7,30.12,West,276,0.0,0.0,65,0.00,,CLR,0.00,VWS V14.01,2013-09-18 22:09:00,
2013-09-18 18:10:00,64.6,52.6,30.12,West,276,0.0,0.0,65,0.00,,CLR,0.00,VWS V14.01,2013-09-18 22:10:00,
2013-09-18 18:11:00,64.5,52.5,30.12,West,276,0.0,0.0,65,0.00,,CLR,0.00,VWS V14.01,2013-09-18 22:11:00,
2013-09-18 18:12:00,64.4,52.8,30.12,West,276,0.0,0.0,66,0.00,,CLR,0.00,VWS V14.01,2013-09-18 22:12:00,
2013-09-18 18:13:00,65.6,50.4,30.12,West,267,0.0,4.0,58,0.00,,,0.00,WUHU216VWC,2013-09-18 22:13:00,
2013-09-18 18:14:00,64.1,52.1,30.12,West,276,0.0,0.0,65,0.00,,CLR,0.00,VWS V14.01,2013-09-18 22:14:00,
2013-09-18 18:15:00,64.0,52.0,30.12,West,276,0.0,0.0,65,0.00,,CLR,0.00,VWS V14.01,2013-09-18 22:15:00,
2013-09-18 18:16:00,63.9,52.3,30.12,West,276,0.0,0.0,66,0.00,,CLR,0.00,VWS V14.01,2013-09-18 22:16:00,
2013-09-18 18:17:00,63.9,52.3,30.12,West,276,0.0,0.0,66,0.00,,CLR,0.00,VWS V14.01,2013-09-18 22:17:00,
2013-09-18 18:18:00,65.3,52.0,30.12,West,276,0.0,3.0,62,0.00,,,0.00,WUHU216VWC,2013-09-18 22:18:00,
2013-09-18 18:19:00,63.6,52.5,30.12,West,276,0.0,0.0,67,0.00,,CLR,0.00,VWS V14.01,2013-09-18 22:19:00,
2013-09-18 18:20:00,63.6,51.6,30.12,West,276,0.0,0.0,65,0.00,,CLR,0.00,VWS V14.01,2013-09-18 22:20:00,
2013-09-18 18:21:00,63.5,51.5,30.12,West,276,0.0,0.0,65,0.00,,CLR,0.00,VWS V14.01,2013-09-18 22:21:00,
2013-09-18 18:22:00,63.4,51.4,30.12,West,276,0.0,0.0,65,0.00,,CLR,0.00,VWS V14.01,2013-09-18 22:22:00,
2013-09-18 18:23:00,64.9,52.9,30.12,West,276,0.0,2.0,65,0.00,,,0.00,WUHU216VWC,2013-09-18 22:23:00,
2013-09-18 18:24:00,63.2,51.2,30.12,West,276,0.0,0.0,65,0.00,,CLR,0.00,VWS V14.01,2013-09-18 22:24:00,
2013-09-18 18:25:00,63.1,50.3,30.12,West,276,0.0,0.0,63,0.00,,CLR,0.00,VWS V14.01,2013-09-18 22:25:00,
2013-09-18 18:26:00,63.1,50.7,30.12,West,276,0.0,0.0,64,0.00,,CLR,0.00,VWS V14.01,2013-09-18 22:26:00,
2013-09-18 18:27:00,63.0,51.1,30.12,West,276,0.0,0.0,65,0.00,,CLR,0.00,VWS V14.01,2013-09-18 22:27:00,
2013-09-18 18:28:00,64.3,52.7,30.12,West,276,0.0,2.0,66,0.00,,,0.00,WUHU216VWC,2013-09-18 22:28:00,
2013-09-18 18:29:00,62.8,50.9,30.12,West,276,0.0,0.0,65,0.00,,CLR,0.00,VWS V14.01,2013-09-18 22:29:00,
2013-09-18 18:30:00,62.7,51.2,30.12,West,276,0.0,0.0,66,0.00,,CLR,0.00,VWS V14.01,2013-09-18 22:30:00,
2013-09-18 18:31:00,62.7,51.2,30.12,West,276,0.0,0.0,66,0.00,,CLR,0.00,VWS V14.01,2013-09-18 22:31:00,
2013-09-18 18:32:00,62.6,50.7,30.12,West,276,0.0,0.0,65,0.00,,CLR,0.00,VWS V14.01,2013-09-18 22:32:00,
2013-09-18 18:33:00,63.8,52.2,30.12,West,276,0.0,1.0,66,0.00,,,0.00,WUHU216VWC,2013-09-18 22:33:00,
2013-09-18 18:34:00,62.3,51.6,30.12,West,276,0.0,0.0,68,0.00,,CLR,0.00,VWS V14.01,2013-09-18 22:34:00,
2013-09-18 18:35:00,62.2,51.5,30.12,West,276,0.0,0.0,68,0.00,,CLR,0.00,VWS V14.01,2013-09-18 22:35:00,
2013-09-18 18:36:00,62.1,51.8,30.12,West,276,0.0,0.0,69,0.00,,CLR,0.00,VWS V14.01,2013-09-18 22:36:00,
2013-09-18 18:37:00,62.0,51.7,30.12,West,276,0.0,0.0,69,0.00,,CLR,0.00,VWS V14.01,2013-09-18 22:37:00,
2013-09-18 18:38:00,63.3,51.3,30.12,West,276,0.0,0.0,65,0.00,,,0.00,WUHU216VWC,2013-09-18 22:38:00,
2013-09-18 18:39:00,61.8,51.1,30.12,West,276,0.0,0.0,68,0.00,,CLR,0.00,VWS V14.01,2013-09-18 22:39:00,
2013-09-18 18:40:00,61.7,51.0,30.12,West,276,0.0,0.0,68,0.00,,CLR,0.00,VWS V14.01,2013-09-18 22:40:00,
2013-09-18 18:41:00,61.6,51.3,30.11,West,276,0.0,0.0,69,0.00,,CLR,0.00,VWS V14.01,2013-09-18 22:41:00,
2013-09-18 18:42:00,61.5,51.6,30.12,West,276,0.0,0.0,70,0.00,,CLR,0.00,VWS V14.01,2013-09-18 22:42:00,
2013-09-18 18:43:00,62.9,50.6,30.12,West,276,0.0,0.0,64,0.00,,,0.00,WUHU216VWC,2013-09-18 22:43:00,
2013-09-18 18:44:00,61.3,52.2,30.11,West,276,0.0,0.0,72,0.00,,CLR,0.00,VWS V14.01,2013-09-18 22:44:00,
2013-09-18 18:45:00,61.2,52.1,30.12,West,276,0.0,0.0,72,0.00,,CLR,0.00,VWS V14.01,2013-09-18 22:45:00,
2013-09-18 18:46:00,61.1,52.0,30.12,West,276,0.0,0.0,72,0.00,,CLR,0.00,VWS V14.01,2013-09-18 22:46:00,
2013-09-18 18:47:00,61.0,52.3,30.11,West,276,0.0,0.0,73,0.00,,CLR,0.00,VWS V14.01,2013-09-18 22:47:00,
2013-09-18 18:48:00,62.5,51.4,30.12,West,276,0.0,0.0,67,0.00,,,0.00,WUHU216VWC,2013-09-18 22:48:00,
2013-09-18 18:49:00,60.8,52.1,30.11,West,276,0.0,0.0,73,0.00,,CLR,0.00,VWS V14.01,2013-09-18 22:49:00,
2013-09-18 18:50:00,60.6,51.9,30.12,West,276,0.0,0.0,73,0.00,,CLR,0.00,VWS V14.01,2013-09-18 22:50:00,
2013-09-18 18:51:00,60.6,51.9,30.12,West,276,0.0,0.0,73,0.00,,CLR,0.00,VWS V14.01,2013-09-18 22:51:00,
2013-09-18 18:52:00,60.4,52.1,30.12,West,276,0.0,0.0,74,0.00,,CLR,0.00,VWS V14.01,2013-09-18 22:52:00,
2013-09-18 18:53:00,61.9,51.2,30.12,West,276,0.0,0.0,68,0.00,,,0.00,WUHU216VWC,2013-09-18 22:53:00,
2013-09-18 18:54:00,60.2,52.3,30.12,West,276,0.0,0.0,75,0.00,,CLR,0.00,VWS V14.01,2013-09-18 22:54:00,
2013-09-18 18:55:00,60.1,52.2,30.12,West,276,0.0,0.0,75,0.00,,CLR,0.00,VWS V14.01,2013-09-18 22:55:00,
2013-09-18 18:56:00,60.0,52.1,30.12,West,276,0.0,0.0,75,0.00,,CLR,0.00,VWS V14.01,2013-09-18 22:56:00,
2013-09-18 18:57:00,59.9,52.3,30.12,West,276,0.0,0.0,76,0.00,,CLR,0.00,VWS V14.01,2013-09-18 22:57:00,
2013-09-18 18:58:00,61.4,51.5,30.12,West,276,0.0,0.0,70,0.00,,,0.00,WUHU216VWC,2013-09-18 22:58:00,
2013-09-18 18:59:00,59.7,52.5,30.12,West,276,0.0,0.0,77,0.00,,CLR,0.00,VWS V14.01,2013-09-18 22:59:00,
2013-09-18 19:00:00,59.5,51.9,30.12,West,276,0.0,0.0,76,0.00,,CLR,0.00,VWS V14.01,2013-09-18 23:00:00,
2013-09-18 19:01:00,59.4,51.8,30.12,West,276,0.0,0.0,76,0.00,,CLR,0.00,VWS V14.01,2013-09-18 23:01:00,
2013-09-18 19:02:00,59.3,51.8,30.12,West,276,0.0,0.0,76,0.00,,CLR,0.00,VWS V14.01,2013-09-18 23:02:00,
2013-09-18 19:03:00,60.9,52.2,30.11,West,276,0.0,0.0,73,0.00,,,0.00,WUHU216VWC,2013-09-18 23:03:00,
2013-09-18 19:04:00,59.1,51.5,30.12,West,276,0.0,0.0,76,0.00,,CLR,0.00,VWS V14.01,2013-09-18 23:04:00,
2013-09-18 19:05:00,59.0,51.8,30.12,West,276,0.0,0.0,77,0.00,,CLR,0.00,VWS V14.01,2013-09-18 23:05:00,
2013-09-18 19:06:00,58.9,51.7,30.12,West,276,0.0,0.0,77,0.00,,CLR,0.00,VWS V14.01,2013-09-18 23:06:00,
2013-09-18 19:07:00,58.8,51.6,30.12,West,276,0.0,0.0,77,0.00,,CLR,0.00,VWS V14.01,2013-09-18 23:07:00,
2013-09-18 19:08:00,60.4,52.1,30.12,West,276,0.0,0.0,74,0.00,,,0.00,WUHU216VWC,2013-09-18 23:08:00,
2013-09-18 19:09:00,58.6,51.4,30.12,West,276,0.0,0.0,77,0.00,,CLR,0.00,VWS V14.01,2013-09-18 23:09:00,
2013-09-18 19:10:00,58.6,51.4,30.12,West,276,0.0,0.0,77,0.00,,CLR,0.00,VWS V14.01,2013-09-18 23:10:00,
2013-09-18 19:11:00,58.5,51.7,30.12,West,276,0.0,0.0,78,0.00,,CLR,0.00,VWS V14.01,2013-09-18 23:11:00,
2013-09-18 19:12:00,58.4,51.6,30.12,West,276,0.0,0.0,78,0.00,,CLR,0.00,VWS V14.01,2013-09-18 23:12:00,
2013-09-18 19:13:00,59.8,52.2,30.12,West,276,0.0,0.0,76,0.00,,,0.00,WUHU216VWC,2013-09-18 23:13:00,
2013-09-18 19:14:00,58.2,51.4,30.12,West,276,0.0,0.0,78,0.00,,CLR,0.00,VWS V14.01,2013-09-18 23:14:00,
2013-09-18 19:15:00,58.1,50.9,30.12,West,276,0.0,0.0,77,0.00,,CLR,0.00,VWS V14.01,2013-09-18 23:15:00,
2013-09-18 19:16:00,58.1,50.9,30.12,West,276,0.0,0.0,77,0.00,,CLR,0.00,VWS V14.01,2013-09-18 23:16:00,
2013-09-18 19:17:00,58.0,50.8,30.12,West,276,0.0,0.0,77,0.00,,CLR,0.00,VWS V14.01,2013-09-18 23:17:00,
2013-09-18 19:18:00,57.9,51.1,30.12,West,276,0.0,0.0,78,0.00,,CLR,0.00,VWS V14.01,2013-09-18 23:18:00,
2013-09-18 19:19:00,59.2,51.6,30.12,West,276,0.0,0.0,76,0.00,,,0.00,WUHU216VWC,2013-09-18 23:19:00,
2013-09-18 19:20:00,57.7,50.9,30.12,West,276,0.0,0.0,78,0.00,,CLR,0.00,VWS V14.01,2013-09-18 23:20:00,
2013-09-18 19:21:00,57.6,50.8,30.12,West,276,0.0,0.0,78,0.00,,CLR,0.00,VWS V14.01,2013-09-18 23:21:00,
2013-09-18 19:22:00,57.5,50.7,30.12,West,276,0.0,0.0,78,0.00,,CLR,0.00,VWS V14.01,2013-09-18 23:22:00,
2013-09-18 19:23:00,57.5,51.0,30.12,West,276,0.0,0.0,79,0.00,,CLR,0.00,VWS V14.01,2013-09-18 23:23:00,
2013-09-18 19:24:00,58.7,51.5,30.12,West,276,0.0,0.0,77,0.00,,,0.00,WUHU216VWC,2013-09-18 23:24:00,
2013-09-18 19:25:00,57.3,50.8,30.12,West,276,0.0,0.0,79,0.00,,CLR,0.00,VWS V14.01,2013-09-18 23:25:00,
2013-09-18 19:26:00,57.2,51.1,30.12,West,276,0.0,0.0,80,0.00,,CLR,0.00,VWS V14.01,2013-09-18 23:26:00,
2013-09-18 19:27:00,57.1,51.0,30.12,West,276,0.0,0.0,80,0.00,,CLR,0.00,VWS V14.01,2013-09-18 23:27:00,
2013-09-18 19:28:00,57.0,50.9,30.13,West,276,0.0,0.0,80,0.00,,CLR,0.00,VWS V14.01,2013-09-18 23:28:00,
2013-09-18 19:29:00,58.3,51.1,30.12,West,276,0.0,0.0,77,0.00,,,0.00,WUHU216VWC,2013-09-18 23:29:00,
2013-09-18 19:30:00,56.9,50.8,30.13,West,276,0.0,0.0,80,0.00,,CLR,0.00,VWS V14.01,2013-09-18 23:30:00,
2013-09-18 19:31:00,56.8,50.7,30.13,West,276,0.0,0.0,80,0.00,,CLR,0.00,VWS V14.01,2013-09-18 23:31:00,
2013-09-18 19:32:00,56.7,50.6,30.13,West,276,0.0,0.0,80,0.00,,CLR,0.00,VWS V14.01,2013-09-18 23:32:00,
2013-09-18 19:33:00,56.7,50.6,30.13,West,276,0.0,0.0,80,0.00,,CLR,0.00,VWS V14.01,2013-09-18 23:33:00,
2013-09-18 19:34:00,57.9,51.1,30.12,West,276,0.0,0.0,78,0.00,,,0.00,WUHU216VWC,2013-09-18 23:34:00,
2013-09-18 19:35:00,56.5,50.8,30.13,West,276,0.0,0.0,81,0.00,,CLR,0.00,VWS V14.01,2013-09-18 23:35:00,
2013-09-18 19:36:00,56.4,50.7,30.13,West,276,0.0,0.0,81,0.00,,CLR,0.00,VWS V14.01,2013-09-18 23:36:00,
2013-09-18 19:37:00,56.4,50.7,30.12,West,276,0.0,0.0,81,0.00,,CLR,0.00,VWS V14.01,2013-09-18 23:37:00,
2013-09-18 19:38:00,56.3,50.5,30.13,West,276,0.0,0.0,81,0.00,,CLR,0.00,VWS V14.01,2013-09-18 23:38:00,
2013-09-18 19:39:00,57.5,51.0,30.12,West,276,0.0,0.0,79,0.00,,,0.00,WUHU216VWC,2013-09-18 23:39:00,
2013-09-18 19:40:00,56.1,50.4,30.13,West,276,0.0,0.0,81,0.00,,CLR,0.00,VWS V14.01,2013-09-18 23:40:00,
2013-09-18 19:41:00,56.0,50.3,30.13,West,276,0.0,0.0,81,0.00,,CLR,0.00,VWS V14.01,2013-09-18 23:41:00,
2013-09-18 19:42:00,55.9,50.2,30.13,West,276,0.0,0.0,81,0.00,,CLR,0.00,VWS V14.01,2013-09-18 23:42:00,
2013-09-18 19:43:00,55.8,50.4,30.13,West,276,0.0,0.0,82,0.00,,CLR,0.00,VWS V14.01,2013-09-18 23:43:00,
2013-09-18 19:44:00,57.0,50.9,30.12,West,276,0.0,0.0,80,0.00,,,0.00,WUHU216VWC,2013-09-18 23:44:00,
2013-09-18 19:45:00,55.7,50.3,30.13,West,276,0.0,0.0,82,0.00,,CLR,0.00,VWS V14.01,2013-09-18 23:45:00,
2013-09-18 19:46:00,55.6,50.2,30.13,West,276,0.0,0.0,82,0.00,,CLR,0.00,VWS V14.01,2013-09-18 23:46:00,
2013-09-18 19:47:00,55.5,50.1,30.13,West,276,0.0,0.0,82,0.00,,CLR,0.00,VWS V14.01,2013-09-18 23:47:00,
2013-09-18 19:48:00,55.4,50.0,30.13,West,276,0.0,0.0,82,0.00,,CLR,0.00,VWS V14.01,2013-09-18 23:48:00,
2013-09-18 19:49:00,56.7,50.6,30.13,West,276,0.0,0.0,80,0.00,,,0.00,WUHU216VWC,2013-09-18 23:49:00,
2013-09-18 19:50:00,55.3,50.2,30.13,West,276,0.0,0.0,83,0.00,,CLR,0.00,VWS V14.01,2013-09-18 23:50:00,
2013-09-18 19:51:00,55.3,50.2,30.13,West,276,0.0,0.0,83,0.00,,CLR,0.00,VWS V14.01,2013-09-18 23:51:00,
2013-09-18 19:52:00,55.2,50.1,30.13,West,276,0.0,0.0,83,0.00,,CLR,0.00,VWS V14.01,2013-09-18 23:52:00,
2013-09-18 19:53:00,55.1,50.0,30.13,West,276,0.0,0.0,83,0.00,,CLR,0.00,VWS V14.01,2013-09-18 23:53:00,
2013-09-18 19:54:00,56.3,50.6,30.13,West,276,0.0,0.0,81,0.00,,,0.00,WUHU216VWC,2013-09-18 23:54:00,
2013-09-18 19:55:00,55.0,49.9,30.13,West,276,0.0,0.0,83,0.00,,CLR,0.00,VWS V14.01,2013-09-18 23:55:00,
2013-09-18 19:56:00,55.0,49.9,30.13,West,276,0.0,0.0,83,0.00,,CLR,0.00,VWS V14.01,2013-09-18 23:56:00,
2013-09-18 19:57:00,54.9,50.2,30.13,West,276,0.0,0.0,84,0.00,,CLR,0.00,VWS V14.01,2013-09-18 23:57:00,
2013-09-18 19:58:00,54.9,50.2,30.13,West,276,0.0,0.0,84,0.00,,CLR,0.00,VWS V14.01,2013-09-18 23:58:00,
2013-09-18 19:59:00,55.8,50.4,30.13,West,276,0.0,0.0,82,0.00,,,0.00,WUHU216VWC,2013-09-18 23:59:00,
2013-09-18 20:00:00,54.8,50.1,30.13,West,276,0.0,0.0,84,0.00,,CLR,0.00,VWS V14.01,2013-09-19 00:00:00,
2013-09-18 20:01:00,54.7,50.0,30.13,West,276,0.0,0.0,84,0.00,,CLR,0.00,VWS V14.01,2013-09-19 00:01:00,
2013-09-18 20:02:00,54.6,49.9,30.13,West,276,0.0,0.0,84,0.00,,CLR,0.00,VWS V14.01,2013-09-19 00:02:00,
2013-09-18 20:03:00,54.6,49.9,30.13,West,276,0.0,0.0,84,0.00,,CLR,0.00,VWS V14.01,2013-09-19 00:03:00,
2013-09-18 20:04:00,55.4,50.0,30.13,West,276,0.0,0.0,82,0.00,,,0.00,WUHU216VWC,2013-09-19 00:04:00,
2013-09-18 20:05:00,54.4,50.0,30.13,West,276,0.0,0.0,85,0.00,,CLR,0.00,VWS V14.01,2013-09-19 00:05:00,
2013-09-18 20:06:00,54.3,49.9,30.13,West,276,0.0,0.0,85,0.00,,CLR,0.00,VWS V14.01,2013-09-19 00:06:00,
2013-09-18 20:07:00,54.3,49.9,30.13,West,276,0.0,0.0,85,0.00,,CLR,0.00,VWS V14.01,2013-09-19 00:07:00,
2013-09-18 20:08:00,54.2,49.8,30.13,West,276,0.0,0.0,85,0.00,,CLR,0.00,VWS V14.01,2013-09-19 00:08:00,
2013-09-18 20:09:00,55.1,50.0,30.13,West,276,0.0,0.0,83,0.00,,,0.00,WUHU216VWC,2013-09-19 00:09:00,
2013-09-18 20:10:00,54.1,49.7,30.13,West,276,0.0,0.0,85,0.00,,CLR,0.00,VWS V14.01,2013-09-19 00:10:00,
2013-09-18 20:11:00,54.1,49.7,30.13,West,276,0.0,0.0,85,0.00,,CLR,0.00,VWS V14.01,2013-09-19 00:11:00,
2013-09-18 20:12:00,54.0,49.6,30.13,West,276,0.0,0.0,85,0.00,,CLR,0.00,VWS V14.01,2013-09-19 00:12:00,
2013-09-18 20:13:00,53.9,49.5,30.13,West,276,0.0,0.0,85,0.00,,CLR,0.00,VWS V14.01,2013-09-19 00:13:00,
2013-09-18 20:14:00,54.8,50.1,30.13,West,276,0.0,0.0,84,0.00,,,0.00,WUHU216VWC,2013-09-19 00:14:00,
2013-09-18 20:15:00,53.8,49.7,30.13,West,276,0.0,0.0,86,0.00,,CLR,0.00,VWS V14.01,2013-09-19 00:15:00,
2013-09-18 20:16:00,53.7,49.6,30.13,West,276,0.0,0.0,86,0.00,,CLR,0.00,VWS V14.01,2013-09-19 00:16:00,
2013-09-18 20:17:00,53.7,49.6,30.13,West,276,0.0,0.0,86,0.00,,CLR,0.00,VWS V14.01,2013-09-19 00:17:00,
2013-09-18 20:18:00,53.6,49.5,30.13,West,276,0.0,0.0,86,0.00,,CLR,0.00,VWS V14.01,2013-09-19 00:18:00,
2013-09-18 20:19:00,54.5,49.8,30.13,West,276,0.0,0.0,84,0.00,,,0.00,WUHU216VWC,2013-09-19 00:19:00,
2013-09-18 20:20:00,53.5,49.4,30.13,West,276,0.0,0.0,86,0.00,,CLR,0.00,VWS V14.01,2013-09-19 00:20:00,
2013-09-18 20:21:00,53.5,49.4,30.13,West,276,0.0,0.0,86,0.00,,CLR,0.00,VWS V14.01,2013-09-19 00:21:00,
2013-09-18 20:22:00,53.5,49.7,30.13,West,276,0.0,0.0,87,0.00,,CLR,0.00,VWS V14.01,2013-09-19 00:22:00,
2013-09-18 20:23:00,53.4,49.6,30.13,West,276,0.0,0.0,87,0.00,,CLR,0.00,VWS V14.01,2013-09-19 00:23:00,
2013-09-18 20:24:00,54.2,49.8,30.13,West,276,0.0,0.0,85,0.00,,,0.00,WUHU216VWC,2013-09-19 00:24:00,
2013-09-18 20:25:00,53.3,49.5,30.13,West,276,0.0,0.0,87,0.00,,CLR,0.00,VWS V14.01,2013-09-19 00:25:00,
2013-09-18 20:26:00,53.3,49.5,30.13,West,276,0.0,0.0,87,0.00,,CLR,0.00,VWS V14.01,2013-09-19 00:26:00,
2013-09-18 20:27:00,53.2,49.4,30.13,West,276,0.0,0.0,87,0.00,,CLR,0.00,VWS V14.01,2013-09-19 00:27:00,
2013-09-18 20:28:00,53.2,49.4,30.13,West,276,0.0,0.0,87,0.00,,CLR,0.00,VWS V14.01,2013-09-19 00:28:00,
2013-09-18 20:29:00,53.9,49.8,30.13,West,276,0.0,0.0,86,0.00,,,0.00,WUHU216VWC,2013-09-19 00:29:00,
2013-09-18 20:30:00,53.1,49.3,30.13,West,276,0.0,0.0,87,0.00,,CLR,0.00,VWS V14.01,2013-09-19 00:30:00,
2013-09-18 20:31:00,53.0,49.2,30.13,West,276,0.0,0.0,87,0.00,,CLR,0.00,VWS V14.01,2013-09-19 00:31:00,
2013-09-18 20:32:00,53.0,49.2,30.13,West,276,0.0,0.0,87,0.00,,CLR,0.00,VWS V14.01,2013-09-19 00:32:00,
2013-09-18 20:33:00,53.0,49.2,30.13,West,276,0.0,0.0,87,0.00,,CLR,0.00,VWS V14.01,2013-09-19 00:33:00,
2013-09-18 20:34:00,53.6,49.5,30.13,West,276,0.0,0.0,86,0.00,,,0.00,WUHU216VWC,2013-09-19 00:34:00,
2013-09-18 20:35:00,52.8,49.0,30.13,West,276,0.0,0.0,87,0.00,,CLR,0.00,VWS V14.01,2013-09-19 00:35:00,
2013-09-18 20:36:00,52.8,49.0,30.13,West,276,0.0,0.0,87,0.00,,CLR,0.00,VWS V14.01,2013-09-19 00:36:00,
2013-09-18 20:37:00,52.7,49.0,30.13,West,276,0.0,0.0,87,0.00,,CLR,0.00,VWS V14.01,2013-09-19 00:37:00,
2013-09-18 20:38:00,52.7,49.2,30.13,West,276,0.0,0.0,88,0.00,,CLR,0.00,VWS V14.01,2013-09-19 00:38:00,
2013-09-18 20:39:00,53.4,49.6,30.13,West,276,0.0,0.0,87,0.00,,,0.00,WUHU216VWC,2013-09-19 00:39:00,
2013-09-18 20:40:00,52.6,49.2,30.13,West,276,0.0,0.0,88,0.00,,CLR,0.00,VWS V14.01,2013-09-19 00:40:00,
2013-09-18 20:41:00,52.6,49.2,30.13,West,276,0.0,0.0,88,0.00,,CLR,0.00,VWS V14.01,2013-09-19 00:41:00,
2013-09-18 20:42:00,52.5,49.0,30.13,West,276,0.0,0.0,88,0.00,,CLR,0.00,VWS V14.01,2013-09-19 00:42:00,
2013-09-18 20:43:00,52.5,49.0,30.13,West,276,0.0,0.0,88,0.00,,CLR,0.00,VWS V14.01,2013-09-19 00:43:00,
2013-09-18 20:44:00,53.1,49.3,30.13,West,276,0.0,0.0,87,0.00,,,0.00,WUHU216VWC,2013-09-19 00:44:00,
2013-09-18 20:45:00,52.4,49.0,30.13,West,276,0.0,0.0,88,0.00,,CLR,0.00,VWS V14.01,2013-09-19 00:45:00,
2013-09-18 20:46:00,52.3,48.9,30.13,West,276,0.0,0.0,88,0.00,,CLR,0.00,VWS V14.01,2013-09-19 00:46:00,
2013-09-18 20:47:00,52.3,48.9,30.13,West,276,0.0,0.0,88,0.00,,CLR,0.00,VWS V14.01,2013-09-19 00:47:00,
2013-09-18 20:48:00,52.2,48.8,30.13,West,276,0.0,0.0,88,0.00,,CLR,0.00,VWS V14.01,2013-09-19 00:48:00,
2013-09-18 20:49:00,52.9,49.1,30.13,West,276,0.0,0.0,87,0.00,,,0.00,WUHU216VWC,2013-09-19 00:49:00,
2013-09-18 20:50:00,52.1,48.7,30.13,West,276,0.0,0.0,88,0.00,,CLR,0.00,VWS V14.01,2013-09-19 00:50:00,
2013-09-18 20:51:00,52.1,48.7,30.13,West,276,0.0,0.0,88,0.00,,CLR,0.00,VWS V14.01,2013-09-19 00:51:00,
2013-09-18 20:52:00,52.1,48.7,30.13,West,276,0.0,0.0,88,0.00,,CLR,0.00,VWS V14.01,2013-09-19 00:52:00,
2013-09-18 20:53:00,52.0,48.6,30.13,West,276,0.0,0.0,88,0.00,,CLR,0.00,VWS V14.01,2013-09-19 00:53:00,
2013-09-18 20:54:00,52.7,49.3,30.13,West,276,0.0,0.0,88,0.00,,,0.00,WUHU216VWC,2013-09-19 00:54:00,
2013-09-18 20:55:00,51.9,48.5,30.13,West,276,0.0,0.0,88,0.00,,CLR,0.00,VWS V14.01,2013-09-19 00:55:00,
2013-09-18 20:56:00,51.9,48.5,30.13,West,276,0.0,0.0,88,0.00,,CLR,0.00,VWS V14.01,2013-09-19 00:56:00,
2013-09-18 20:57:00,51.9,48.8,30.13,West,276,0.0,0.0,89,0.00,,CLR,0.00,VWS V14.01,2013-09-19 00:57:00,
2013-09-18 20:58:00,51.8,48.7,30.13,West,276,0.0,0.0,89,0.00,,CLR,0.00,VWS V14.01,2013-09-19 00:58:00,
2013-09-18 20:59:00,52.5,49.1,30.13,West,276,0.0,0.0,88,0.00,,,0.00,WUHU216VWC,2013-09-19 00:59:00,
2013-09-18 21:00:00,51.8,48.7,30.13,West,276,0.0,0.0,89,0.00,,CLR,0.00,VWS V14.01,2013-09-19 01:00:00,
2013-09-18 21:01:00,51.8,48.7,30.12,West,276,0.0,0.0,89,0.00,,CLR,0.00,VWS V14.01,2013-09-19 01:01:00,
2013-09-18 21:02:00,51.7,48.6,30.13,West,276,0.0,0.0,89,0.00,,CLR,0.00,VWS V14.01,2013-09-19 01:02:00,
2013-09-18 21:03:00,51.7,48.6,30.13,West,276,0.0,0.0,89,0.00,,CLR,0.00,VWS V14.01,2013-09-19 01:03:00,
2013-09-18 21:04:00,52.2,48.8,30.13,West,276,0.0,0.0,88,0.00,,,0.00,WUHU216VWC,2013-09-19 01:04:00,
2013-09-18 21:05:00,51.7,48.6,30.13,West,276,0.0,0.0,89,0.00,,CLR,0.00,VWS V14.01,2013-09-19 01:05:00,
2013-09-18 21:06:00,51.6,48.5,30.13,West,276,0.0,0.0,89,0.00,,CLR,0.00,VWS V14.01,2013-09-19 01:06:00,
2013-09-18 21:07:00,51.6,48.5,30.13,West,276,0.0,0.0,89,0.00,,CLR,0.00,VWS V14.01,2013-09-19 01:07:00,
2013-09-18 21:08:00,51.5,48.4,30.13,West,276,0.0,0.0,89,0.00,,CLR,0.00,VWS V14.01,2013-09-19 01:08:00,
2013-09-18 21:09:00,52.0,48.6,30.13,West,276,0.0,0.0,88,0.00,,,0.00,WUHU216VWC,2013-09-19 01:09:00,
2013-09-18 21:10:00,51.5,48.4,30.13,West,276,0.0,0.0,89,0.00,,CLR,0.00,VWS V14.01,2013-09-19 01:10:00,
2013-09-18 21:11:00,51.4,48.3,30.13,West,276,0.0,0.0,89,0.00,,CLR,0.00,VWS V14.01,2013-09-19 01:11:00,
2013-09-18 21:12:00,51.4,48.3,30.13,West,276,0.0,0.0,89,0.00,,CLR,0.00,VWS V14.01,2013-09-19 01:12:00,
2013-09-18 21:13:00,51.3,48.2,30.13,West,276,0.0,0.0,89,0.00,,CLR,0.00,VWS V14.01,2013-09-19 01:13:00,
2013-09-18 21:14:00,51.8,48.7,30.13,West,276,0.0,0.0,89,0.00,,,0.00,WUHU216VWC,2013-09-19 01:14:00,
2013-09-18 21:15:00,51.3,48.5,30.13,West,276,0.0,0.0,90,0.00,,CLR,0.00,VWS V14.01,2013-09-19 01:15:00,
2013-09-18 21:16:00,51.2,48.4,30.13,West,276,0.0,0.0,90,0.00,,CLR,0.00,VWS V14.01,2013-09-19 01:16:00,
2013-09-18 21:17:00,51.2,48.4,30.13,West,276,0.0,0.0,90,0.00,,CLR,0.00,VWS V14.01,2013-09-19 01:17:00,
2013-09-18 21:18:00,51.2,48.4,30.13,West,276,0.0,0.0,90,0.00,,CLR,0.00,VWS V14.01,2013-09-19 01:18:00,
2013-09-18 21:19:00,51.7,48.6,30.13,West,276,0.0,0.0,89,0.00,,,0.00,WUHU216VWC,2013-09-19 01:19:00,
2013-09-18 21:20:00,51.1,48.3,30.13,West,276,0.0,0.0,90,0.00,,CLR,0.00,VWS V14.01,2013-09-19 01:20:00,
2013-09-18 21:21:00,51.1,48.3,30.13,West,276,0.0,0.0,90,0.00,,CLR,0.00,VWS V14.01,2013-09-19 01:21:00,
2013-09-18 21:22:00,51.1,48.3,30.13,West,276,0.0,0.0,90,0.00,,CLR,0.00,VWS V14.01,2013-09-19 01:22:00,
2013-09-18 21:23:00,51.0,48.2,30.13,West,276,0.0,0.0,90,0.00,,CLR,0.00,VWS V14.01,2013-09-19 01:23:00,
2013-09-18 21:24:00,51.0,48.2,30.13,West,276,0.0,0.0,90,0.00,,CLR,0.00,VWS V14.01,2013-09-19 01:24:00,
2013-09-18 21:25:00,51.5,48.4,30.13,West,276,0.0,0.0,89,0.00,,,0.00,WUHU216VWC,2013-09-19 01:25:00,
2013-09-18 21:26:00,51.0,48.2,30.13,West,276,0.0,0.0,90,0.00,,CLR,0.00,VWS V14.01,2013-09-19 01:26:00,
2013-09-18 21:27:00,50.9,48.1,30.13,West,276,0.0,0.0,90,0.00,,CLR,0.00,VWS V14.01,2013-09-19 01:27:00,
2013-09-18 21:28:00,50.9,48.1,30.13,West,276,0.0,0.0,90,0.00,,CLR,0.00,VWS V14.01,2013-09-19 01:28:00,
2013-09-18 21:29:00,50.9,48.1,30.13,West,276,0.0,0.0,90,0.00,,CLR,0.00,VWS V14.01,2013-09-19 01:29:00,
2013-09-18 21:30:00,51.3,48.2,30.13,West,276,0.0,0.0,89,0.00,,,0.00,WUHU216VWC,2013-09-19 01:30:00,
2013-09-18 21:31:00,50.8,48.0,30.13,West,276,0.0,0.0,90,0.00,,CLR,0.00,VWS V14.01,2013-09-19 01:31:00,
2013-09-18 21:32:00,50.7,47.9,30.13,West,276,0.0,0.0,90,0.00,,CLR,0.00,VWS V14.01,2013-09-19 01:32:00,
2013-09-18 21:33:00,50.7,47.9,30.13,West,276,0.0,0.0,90,0.00,,CLR,0.00,VWS V14.01,2013-09-19 01:33:00,
2013-09-18 21:34:00,50.7,47.9,30.13,West,276,0.0,0.0,90,0.00,,CLR,0.00,VWS V14.01,2013-09-19 01:34:00,
2013-09-18 21:35:00,51.2,48.4,30.13,West,276,0.0,0.0,90,0.00,,,0.00,WUHU216VWC,2013-09-19 01:35:00,
2013-09-18 21:36:00,50.6,47.8,30.13,West,276,0.0,0.0,90,0.00,,CLR,0.00,VWS V14.01,2013-09-19 01:36:00,
2013-09-18 21:37:00,50.6,47.8,30.13,West,276,0.0,0.0,90,0.00,,CLR,0.00,VWS V14.01,2013-09-19 01:37:00,
2013-09-18 21:38:00,50.5,47.7,30.13,West,276,0.0,0.0,90,0.00,,CLR,0.00,VWS V14.01,2013-09-19 01:38:00,
2013-09-18 21:39:00,50.6,47.8,30.13,West,276,0.0,0.0,90,0.00,,CLR,0.00,VWS V14.01,2013-09-19 01:39:00,
2013-09-18 21:40:00,51.0,48.2,30.13,West,276,0.0,0.0,90,0.00,,,0.00,WUHU216VWC,2013-09-19 01:40:00,
2013-09-18 21:41:00,50.5,48.0,30.13,West,276,0.0,0.0,91,0.00,,CLR,0.00,VWS V14.01,2013-09-19 01:41:00,
2013-09-18 21:42:00,50.4,47.9,30.13,West,276,0.0,0.0,91,0.00,,CLR,0.00,VWS V14.01,2013-09-19 01:42:00,
2013-09-18 21:43:00,50.4,47.6,30.13,West,276,0.0,0.0,90,0.00,,CLR,0.00,VWS V14.01,2013-09-19 01:43:00,
2013-09-18 21:44:00,50.4,47.6,30.13,West,276,0.0,0.0,90,0.00,,CLR,0.00,VWS V14.01,2013-09-19 01:44:00,
2013-09-18 21:45:00,50.9,48.1,30.13,West,276,0.0,0.0,90,0.00,,,0.00,WUHU216VWC,2013-09-19 01:45:00,
2013-09-18 21:46:00,50.3,47.5,30.13,West,276,0.0,0.0,90,0.00,,CLR,0.00,VWS V14.01,2013-09-19 01:46:00,
2013-09-18 21:47:00,50.2,47.7,30.13,West,276,0.0,0.0,91,0.00,,CLR,0.00,VWS V14.01,2013-09-19 01:47:00,
2013-09-18 21:48:00,50.2,47.7,30.13,West,276,0.0,0.0,91,0.00,,CLR,0.00,VWS V14.01,2013-09-19 01:48:00,
2013-09-18 21:49:00,50.2,47.7,30.13,West,276,0.0,0.0,91,0.00,,CLR,0.00,VWS V14.01,2013-09-19 01:49:00,
2013-09-18 21:50:00,50.7,47.9,30.13,West,276,0.0,0.0,90,0.00,,,0.00,WUHU216VWC,2013-09-19 01:50:00,
2013-09-18 21:51:00,50.1,47.6,30.13,West,276,0.0,0.0,91,0.00,,CLR,0.00,VWS V14.01,2013-09-19 01:51:00,
2013-09-18 21:52:00,50.1,47.6,30.13,West,276,0.0,0.0,91,0.00,,CLR,0.00,VWS V14.01,2013-09-19 01:52:00,
2013-09-18 21:53:00,50.1,47.6,30.13,West,276,0.0,0.0,91,0.00,,CLR,0.00,VWS V14.01,2013-09-19 01:53:00,
2013-09-18 21:54:00,50.0,47.5,30.13,West,276,0.0,0.0,91,0.00,,CLR,0.00,VWS V14.01,2013-09-19 01:54:00,
2013-09-18 21:55:00,50.5,47.7,30.13,West,276,0.0,0.0,90,0.00,,,0.00,WUHU216VWC,2013-09-19 01:55:00,
2013-09-18 21:56:00,50.0,47.5,30.13,West,276,0.0,0.0,91,0.00,,CLR,0.00,VWS V14.01,2013-09-19 01:56:00,
2013-09-18 21:57:00,50.0,47.5,30.13,West,276,0.0,0.0,91,0.00,,CLR,0.00,VWS V14.01,2013-09-19 01:57:00,
2013-09-18 21:58:00,50.0,47.5,30.13,West,276,0.0,0.0,91,0.00,,CLR,0.00,VWS V14.01,2013-09-19 01:58:00,
2013-09-18 21:59:00,50.0,47.5,30.13,West,276,0.0,0.0,91,0.00,,CLR,0.00,VWS V14.01,2013-09-19 01:59:00,
2013-09-18 22:00:00,50.4,47.6,30.13,West,276,0.0,0.0,90,0.00,,,0.00,WUHU216VWC,2013-09-19 02:00:00,
2013-09-18 22:01:00,49.9,47.4,30.13,West,276,0.0,0.0,91,0.00,,CLR,0.00,VWS V14.01,2013-09-19 02:01:00,
2013-09-18 22:02:00,49.9,47.4,30.14,West,276,0.0,0.0,91,0.00,,CLR,0.00,VWS V14.01,2013-09-19 02:02:00,
2013-09-18 22:03:00,49.8,47.3,30.13,West,276,0.0,0.0,91,0.00,,CLR,0.00,VWS V14.01,2013-09-19 02:03:00,
2013-09-18 22:04:00,49.8,47.3,30.13,West,276,0.0,0.0,91,0.00,,CLR,0.00,VWS V14.01,2013-09-19 02:04:00,
2013-09-18 22:05:00,50.2,47.7,30.13,West,276,0.0,0.0,91,0.00,,,0.00,WUHU216VWC,2013-09-19 02:05:00,
2013-09-18 22:06:00,49.8,47.3,30.13,West,276,0.0,0.0,91,0.00,,CLR,0.00,VWS V14.01,2013-09-19 02:06:00,
2013-09-18 22:07:00,49.7,47.2,30.14,West,276,0.0,0.0,91,0.00,,CLR,0.00,VWS V14.01,2013-09-19 02:07:00,
2013-09-18 22:08:00,49.7,47.2,30.14,West,276,0.0,0.0,91,0.00,,CLR,0.00,VWS V14.01,2013-09-19 02:08:00,
2013-09-18 22:09:00,49.6,47.1,30.14,West,276,0.0,0.0,91,0.00,,CLR,0.00,VWS V14.01,2013-09-19 02:09:00,
2013-09-18 22:10:00,50.1,47.6,30.14,West,276,0.0,0.0,91,0.00,,,0.00,WUHU216VWC,2013-09-19 02:10:00,
2013-09-18 22:11:00,49.6,47.1,30.14,West,276,0.0,0.0,91,0.00,,CLR,0.00,VWS V14.01,2013-09-19 02:11:00,
2013-09-18 22:12:00,49.5,47.0,30.14,West,276,0.0,0.0,91,0.00,,CLR,0.00,VWS V14.01,2013-09-19 02:12:00,
2013-09-18 22:13:00,49.5,47.0,30.14,West,276,0.0,0.0,91,0.00,,CLR,0.00,VWS V14.01,2013-09-19 02:13:00,
2013-09-18 22:14:00,49.5,47.0,30.13,West,276,0.0,0.0,91,0.00,,CLR,0.00,VWS V14.01,2013-09-19 02:14:00,
2013-09-18 22:15:00,49.9,47.4,30.13,West,276,0.0,0.0,91,0.00,,,0.00,WUHU216VWC,2013-09-19 02:15:00,
2013-09-18 22:16:00,49.4,46.9,30.14,West,276,0.0,0.0,91,0.00,,CLR,0.00,VWS V14.01,2013-09-19 02:16:00,
2013-09-18 22:17:00,49.4,46.9,30.13,West,276,0.0,0.0,91,0.00,,CLR,0.00,VWS V14.01,2013-09-19 02:17:00,
2013-09-18 22:18:00,49.4,46.9,30.14,West,276,0.0,0.0,91,0.00,,CLR,0.00,VWS V14.01,2013-09-19 02:18:00,
2013-09-18 22:19:00,49.4,46.9,30.13,West,276,0.0,0.0,91,0.00,,CLR,0.00,VWS V14.01,2013-09-19 02:19:00,
2013-09-18 22:20:00,49.8,47.3,30.13,West,276,0.0,0.0,91,0.00,,,0.00,WUHU216VWC,2013-09-19 02:20:00,
2013-09-18 22:21:00,49.3,47.1,30.13,West,276,0.0,0.0,92,0.00,,CLR,0.00,VWS V14.01,2013-09-19 02:21:00,
2013-09-18 22:22:00,49.3,47.1,30.13,West,276,0.0,0.0,92,0.00,,CLR,0.00,VWS V14.01,2013-09-19 02:22:00,
2013-09-18 22:23:00,49.2,47.0,30.13,West,276,0.0,0.0,92,0.00,,CLR,0.00,VWS V14.01,2013-09-19 02:23:00,
2013-09-18 22:24:00,49.2,47.0,30.13,West,276,0.0,0.0,92,0.00,,CLR,0.00,VWS V14.01,2013-09-19 02:24:00,
2013-09-18 22:25:00,49.6,47.1,30.14,West,276,0.0,0.0,91,0.00,,,0.00,WUHU216VWC,2013-09-19 02:25:00,
2013-09-18 22:26:00,49.2,47.0,30.13,West,276,0.0,0.0,92,0.00,,CLR,0.00,VWS V14.01,2013-09-19 02:26:00,
2013-09-18 22:27:00,49.1,46.9,30.13,West,276,0.0,0.0,92,0.00,,CLR,0.00,VWS V14.01,2013-09-19 02:27:00,
2013-09-18 22:28:00,49.1,46.9,30.13,West,276,0.0,0.0,92,0.00,,CLR,0.00,VWS V14.01,2013-09-19 02:28:00,
2013-09-18 22:29:00,49.1,46.6,30.13,West,276,0.0,0.0,91,0.00,,CLR,0.00,VWS V14.01,2013-09-19 02:29:00,
2013-09-18 22:30:00,49.5,47.0,30.13,West,276,0.0,0.0,91,0.00,,,0.00,WUHU216VWC,2013-09-19 02:30:00,
2013-09-18 22:31:00,49.0,46.8,30.13,West,276,0.0,0.0,92,0.00,,CLR,0.00,VWS V14.01,2013-09-19 02:31:00,
2013-09-18 22:32:00,49.0,46.8,30.13,West,276,0.0,0.0,92,0.00,,CLR,0.00,VWS V14.01,2013-09-19 02:32:00,
2013-09-18 22:33:00,49.0,46.5,30.13,West,276,0.0,0.0,91,0.00,,CLR,0.00,VWS V14.01,2013-09-19 02:33:00,
2013-09-18 22:34:00,48.9,46.4,30.13,West,276,0.0,0.0,91,0.00,,CLR,0.00,VWS V14.01,2013-09-19 02:34:00,
2013-09-18 22:35:00,49.3,46.8,30.13,West,276,0.0,0.0,91,0.00,,,0.00,WUHU216VWC,2013-09-19 02:35:00,
2013-09-18 22:36:00,48.9,46.4,30.13,West,276,0.0,0.0,91,0.00,,CLR,0.00,VWS V14.01,2013-09-19 02:36:00,
2013-09-18 22:37:00,48.9,46.7,30.13,West,276,0.0,0.0,92,0.00,,CLR,0.00,VWS V14.01,2013-09-19 02:37:00,
2013-09-18 22:38:00,48.8,46.6,30.13,West,276,0.0,0.0,92,0.00,,CLR,0.00,VWS V14.01,2013-09-19 02:38:00,
2013-09-18 22:39:00,48.8,46.6,30.13,West,276,0.0,0.0,92,0.00,,CLR,0.00,VWS V14.01,2013-09-19 02:39:00,
2013-09-18 22:40:00,48.8,46.6,30.13,West,276,0.0,0.0,92,0.00,,CLR,0.00,VWS V14.01,2013-09-19 02:40:00,
2013-09-18 22:41:00,49.2,47.0,30.13,West,276,0.0,0.0,92,0.00,,,0.00,WUHU216VWC,2013-09-19 02:41:00,
2013-09-18 22:42:00,48.7,46.5,30.13,West,276,0.0,0.0,92,0.00,,CLR,0.00,VWS V14.01,2013-09-19 02:42:00,
2013-09-18 22:43:00,48.7,46.5,30.13,West,276,0.0,0.0,92,0.00,,CLR,0.00,VWS V14.01,2013-09-19 02:43:00,
2013-09-18 22:44:00,48.7,46.5,30.13,West,276,0.0,0.0,92,0.00,,CLR,0.00,VWS V14.01,2013-09-19 02:44:00,
2013-09-18 22:45:00,48.7,46.5,30.13,West,276,0.0,0.0,92,0.00,,CLR,0.00,VWS V14.01,2013-09-19 02:45:00,
2013-09-18 22:46:00,49.1,46.6,30.13,West,276,0.0,0.0,91,0.00,,,0.00,WUHU216VWC,2013-09-19 02:46:00,
2013-09-18 22:47:00,48.7,46.5,30.13,West,276,0.0,0.0,92,0.00,,CLR,0.00,VWS V14.01,2013-09-19 02:47:00,
2013-09-18 22:48:00,48.7,46.5,30.13,West,276,0.0,0.0,92,0.00,,CLR,0.00,VWS V14.01,2013-09-19 02:48:00,
2013-09-18 22:49:00,48.6,46.4,30.13,West,276,0.0,0.0,92,0.00,,CLR,0.00,VWS V14.01,2013-09-19 02:49:00,
2013-09-18 22:50:00,48.6,46.4,30.13,West,276,0.0,0.0,92,0.00,,CLR,0.00,VWS V14.01,2013-09-19 02:50:00,
2013-09-18 22:51:00,48.9,46.4,30.13,West,276,0.0,0.0,91,0.00,,,0.00,WUHU216VWC,2013-09-19 02:51:00,
2013-09-18 22:52:00,48.6,46.4,30.13,West,276,0.0,0.0,92,0.00,,CLR,0.00,VWS V14.01,2013-09-19 02:52:00,
2013-09-18 22:53:00,48.6,46.4,30.13,West,276,0.0,0.0,92,0.00,,CLR,0.00,VWS V14.01,2013-09-19 02:53:00,
2013-09-18 22:54:00,48.5,46.3,30.13,West,276,0.0,0.0,92,0.00,,CLR,0.00,VWS V14.01,2013-09-19 02:54:00,
2013-09-18 22:55:00,48.5,46.3,30.13,West,276,0.0,0.0,92,0.00,,CLR,0.00,VWS V14.01,2013-09-19 02:55:00,
2013-09-18 22:56:00,48.8,46.6,30.13,West,276,0.0,0.0,92,0.00,,,0.00,WUHU216VWC,2013-09-19 02:56:00,
2013-09-18 22:57:00,48.4,46.2,30.13,West,276,0.0,0.0,92,0.00,,CLR,0.00,VWS V14.01,2013-09-19 02:57:00,
2013-09-18 22:58:00,48.3,46.1,30.13,West,276,0.0,0.0,92,0.00,,CLR,0.00,VWS V14.01,2013-09-19 02:58:00,
2013-09-18 22:59:00,48.3,46.1,30.13,West,276,0.0,0.0,92,0.00,,CLR,0.00,VWS V14.01,2013-09-19 02:59:00,
2013-09-18 23:00:00,48.3,46.1,30.13,West,276,0.0,0.0,92,0.00,,CLR,0.00,VWS V14.01,2013-09-19 03:00:00,
2013-09-18 23:01:00,48.7,46.5,30.13,West,276,0.0,0.0,92,0.00,,,0.00,WUHU216VWC,2013-09-19 03:01:00,
2013-09-18 23:02:00,48.2,46.0,30.13,West,276,0.0,0.0,92,0.00,,CLR,0.00,VWS V14.01,2013-09-19 03:02:00,
2013-09-18 23:03:00,48.2,46.0,30.13,West,276,0.0,0.0,92,0.00,,CLR,0.00,VWS V14.01,2013-09-19 03:03:00,
2013-09-18 23:04:00,48.2,46.0,30.13,West,276,0.0,0.0,92,0.00,,CLR,0.00,VWS V14.01,2013-09-19 03:04:00,
2013-09-18 23:05:00,48.2,46.0,30.13,West,276,0.0,0.0,92,0.00,,CLR,0.00,VWS V14.01,2013-09-19 03:05:00,
2013-09-18 23:06:00,48.6,46.4,30.13,West,276,0.0,0.0,92,0.00,,,0.00,WUHU216VWC,2013-09-19 03:06:00,
2013-09-18 23:07:00,48.1,45.9,30.13,West,276,0.0,0.0,92,0.00,,CLR,0.00,VWS V14.01,2013-09-19 03:07:00,
2013-09-18 23:08:00,48.0,45.8,30.13,West,276,0.0,0.0,92,0.00,,CLR,0.00,VWS V14.01,2013-09-19 03:08:00,
2013-09-18 23:09:00,48.0,45.8,30.13,West,276,0.0,0.0,92,0.00,,CLR,0.00,VWS V14.01,2013-09-19 03:09:00,
2013-09-18 23:10:00,48.0,45.8,30.13,West,276,0.0,0.0,92,0.00,,CLR,0.00,VWS V14.01,2013-09-19 03:10:00,
2013-09-18 23:11:00,48.5,46.3,30.13,West,276,0.0,0.0,92,0.00,,,0.00,WUHU216VWC,2013-09-19 03:11:00,
2013-09-18 23:12:00,48.0,45.8,30.12,West,276,0.0,0.0,92,0.00,,CLR,0.00,VWS V14.01,2013-09-19 03:12:00,
2013-09-18 23:13:00,47.9,45.7,30.13,West,276,0.0,0.0,92,0.00,,CLR,0.00,VWS V14.01,2013-09-19 03:13:00,
2013-09-18 23:14:00,47.9,45.7,30.12,West,276,0.0,0.0,92,0.00,,CLR,0.00,VWS V14.01,2013-09-19 03:14:00,
2013-09-18 23:15:00,47.8,45.6,30.12,West,276,0.0,0.0,92,0.00,,CLR,0.00,VWS V14.01,2013-09-19 03:15:00,
2013-09-18 23:16:00,48.3,46.1,30.13,West,276,0.0,0.0,92,0.00,,,0.00,WUHU216VWC,2013-09-19 03:16:00,
2013-09-18 23:17:00,47.8,45.6,30.12,West,276,0.0,0.0,92,0.00,,CLR,0.00,VWS V14.01,2013-09-19 03:17:00,
2013-09-18 23:18:00,47.8,45.6,30.12,West,276,0.0,0.0,92,0.00,,CLR,0.00,VWS V14.01,2013-09-19 03:18:00,
2013-09-18 23:19:00,47.7,45.5,30.13,West,276,0.0,0.0,92,0.00,,CLR,0.00,VWS V14.01,2013-09-19 03:19:00,
2013-09-18 23:20:00,47.7,45.5,30.12,West,276,0.0,0.0,92,0.00,,CLR,0.00,VWS V14.01,2013-09-19 03:20:00,
2013-09-18 23:21:00,48.2,46.0,30.13,West,276,0.0,0.0,92,0.00,,,0.00,WUHU216VWC,2013-09-19 03:21:00,
2013-09-18 23:22:00,47.7,45.5,30.13,West,276,0.0,0.0,92,0.00,,CLR,0.00,VWS V14.01,2013-09-19 03:22:00,
2013-09-18 23:23:00,47.6,45.4,30.13,West,276,0.0,0.0,92,0.00,,CLR,0.00,VWS V14.01,2013-09-19 03:23:00,
2013-09-18 23:24:00,47.6,45.7,30.12,West,276,0.0,0.0,93,0.00,,CLR,0.00,VWS V14.01,2013-09-19 03:24:00,
2013-09-18 23:25:00,48.0,45.8,30.13,West,276,0.0,0.0,92,0.00,,,0.00,WUHU216VWC,2013-09-19 03:25:00,
2013-09-18 23:26:00,47.6,45.4,30.12,West,276,0.0,0.0,92,0.00,,CLR,0.00,VWS V14.01,2013-09-19 03:26:00,
2013-09-18 23:27:00,47.6,45.7,30.12,West,276,0.0,0.0,93,0.00,,CLR,0.00,VWS V14.01,2013-09-19 03:27:00,
2013-09-18 23:28:00,47.5,45.6,30.12,West,276,0.0,0.0,93,0.00,,CLR,0.00,VWS V14.01,2013-09-19 03:28:00,
2013-09-18 23:29:00,47.5,45.6,30.12,West,276,0.0,0.0,93,0.00,,CLR,0.00,VWS V14.01,2013-09-19 03:29:00,
2013-09-18 23:30:00,47.5,45.6,30.12,West,276,0.0,0.0,93,0.00,,CLR,0.00,VWS V14.01,2013-09-19 03:30:00,
2013-09-18 23:31:00,47.9,45.7,30.12,West,276,0.0,0.0,92,0.00,,,0.00,WUHU216VWC,2013-09-19 03:31:00,
2013-09-18 23:32:00,47.4,45.5,30.12,West,276,0.0,0.0,93,0.00,,CLR,0.00,VWS V14.01,2013-09-19 03:32:00,
2013-09-18 23:33:00,47.4,45.5,30.12,West,276,0.0,0.0,93,0.00,,CLR,0.00,VWS V14.01,2013-09-19 03:33:00,
2013-09-18 23:34:00,47.4,45.5,30.12,West,276,0.0,0.0,93,0.00,,CLR,0.00,VWS V14.01,2013-09-19 03:34:00,
2013-09-18 23:35:00,47.4,45.5,30.12,West,276,0.0,0.0,93,0.00,,CLR,0.00,VWS V14.01,2013-09-19 03:35:00,
2013-09-18 23:36:00,47.7,45.5,30.12,West,276,0.0,0.0,92,0.00,,,0.00,WUHU216VWC,2013-09-19 03:36:00,
2013-09-18 23:37:00,47.3,45.4,30.12,West,276,0.0,0.0,93,0.00,,CLR,0.00,VWS V14.01,2013-09-19 03:37:00,
2013-09-18 23:38:00,47.3,45.4,30.12,West,276,0.0,0.0,93,0.00,,CLR,0.00,VWS V14.01,2013-09-19 03:38:00,
2013-09-18 23:39:00,47.3,45.4,30.12,West,276,0.0,0.0,93,0.00,,CLR,0.00,VWS V14.01,2013-09-19 03:39:00,
2013-09-18 23:40:00,47.3,45.4,30.12,West,276,0.0,0.0,93,0.00,,CLR,0.00,VWS V14.01,2013-09-19 03:40:00,
2013-09-18 23:41:00,47.6,45.7,30.12,West,276,0.0,0.0,93,0.00,,,0.00,WUHU216VWC,2013-09-19 03:41:00,
2013-09-18 23:42:00,47.2,45.3,30.12,West,276,0.0,0.0,93,0.00,,CLR,0.00,VWS V14.01,2013-09-19 03:42:00,
2013-09-18 23:43:00,47.2,45.3,30.12,West,276,0.0,0.0,93,0.00,,CLR,0.00,VWS V14.01,2013-09-19 03:43:00,
2013-09-18 23:44:00,47.2,45.3,30.12,West,276,0.0,0.0,93,0.00,,CLR,0.00,VWS V14.01,2013-09-19 03:44:00,
2013-09-18 23:45:00,47.2,45.3,30.12,West,276,0.0,0.0,93,0.00,,CLR,0.00,VWS V14.01,2013-09-19 03:45:00,
2013-09-18 23:46:00,47.4,45.5,30.12,West,276,0.0,0.0,93,0.00,,,0.00,WUHU216VWC,2013-09-19 03:46:00,
2013-09-18 23:47:00,47.2,45.3,30.12,West,276,0.0,0.0,93,0.00,,CLR,0.00,VWS V14.01,2013-09-19 03:47:00,
2013-09-18 23:48:00,47.1,45.2,30.12,West,276,0.0,0.0,93,0.00,,CLR,0.00,VWS V14.01,2013-09-19 03:48:00,
2013-09-18 23:49:00,47.1,45.2,30.12,West,276,0.0,0.0,93,0.00,,CLR,0.00,VWS V14.01,2013-09-19 03:49:00,
2013-09-18 23:50:00,47.1,45.2,30.12,West,276,0.0,0.0,93,0.00,,CLR,0.00,VWS V14.01,2013-09-19 03:50:00,
2013-09-18 23:51:00,47.4,45.5,30.12,West,276,0.0,0.0,93,0.00,,,0.00,WUHU216VWC,2013-09-19 03:51:00,
2013-09-18 23:52:00,47.0,45.1,30.12,West,276,0.0,0.0,93,0.00,,CLR,0.00,VWS V14.01,2013-09-19 03:52:00,
2013-09-18 23:53:00,47.0,45.1,30.12,West,276,0.0,0.0,93,0.00,,CLR,0.00,VWS V14.01,2013-09-19 03:53:00,
2013-09-18 23:54:00,47.0,45.1,30.11,West,276,0.0,0.0,93,0.00,,CLR,0.00,VWS V14.01,2013-09-19 03:54:00,
2013-09-18 23:55:00,46.9,45.0,30.11,West,276,0.0,0.0,93,0.00,,CLR,0.00,VWS V14.01,2013-09-19 03:55:00,
2013-09-18 23:56:00,47.3,45.4,30.12,West,276,0.0,0.0,93,0.00,,,0.00,WUHU216VWC,2013-09-19 03:56:00,
2013-09-18 23:57:00,46.9,45.0,30.12,West,276,0.0,0.0,93,0.00,,CLR,0.00,VWS V14.01,2013-09-19 03:57:00,
2013-09-18 23:58:00,46.9,45.0,30.12,West,276,0.0,0.0,93,0.00,,CLR,0.00,VWS V14.01,2013-09-19 03:58:00,
2013-09-18 23:59:00,46.8,44.9,30.12,West,276,0.0,0.0,93,0.00,,CLR,0.00,VWS V14.01,2013-09-19 03:59:00,